<?xml version="1.0" encoding="UTF-8" standalone="no" ?>
<gpx xmlns="http://www.topografix.com/GPX/1/1" xmlns:xsi="http://www.w3.org/2001/XMLSchema-instance" xsi:schemaLocation="http://www.topografix.com/GPX/1/1 http://www.topografix.com/GPX/1/1/gpx.xsd" version="1.1" creator="VisuGPX - https://www.visugpx.com">
  <metadata>
    <name>Rando VTT Locmalo</name>
    <desc><![CDATA[Rando VTT de nuit et de pluie]]></desc>
  </metadata>
  <trk>
    <name><![CDATA[Rando VTT Locmalo_1]]></name>
    <cmt><![CDATA[VTT de Nuit et sous la pluie, Chaud !!]]></cmt>
    <trkseg>
      <trkpt lat="48.07033" lon="-3.18877">
        <ele>158.27416992188</ele>
        <time>2011-07-08T18:34:35Z</time>
      </trkpt>
      <trkpt lat="48.07029" lon="-3.18874">
        <ele>157.79357910156</ele>
        <time>2011-07-08T18:34:37Z</time>
      </trkpt>
      <trkpt lat="48.07012" lon="-3.18861">
        <ele>155.87097167969</ele>
        <time>2011-07-08T18:34:43Z</time>
      </trkpt>
      <trkpt lat="48.07004" lon="-3.18853">
        <ele>155.39025878906</ele>
        <time>2011-07-08T18:34:45Z</time>
      </trkpt>
      <trkpt lat="48.06998" lon="-3.18849">
        <ele>154.42895507812</ele>
        <time>2011-07-08T18:34:46Z</time>
      </trkpt>
      <trkpt lat="48.06992" lon="-3.18844">
        <ele>153.46765136719</ele>
        <time>2011-07-08T18:34:47Z</time>
      </trkpt>
      <trkpt lat="48.06986" lon="-3.1884">
        <ele>152.98693847656</ele>
        <time>2011-07-08T18:34:48Z</time>
      </trkpt>
      <trkpt lat="48.06971" lon="-3.18812">
        <ele>151.544921875</ele>
        <time>2011-07-08T18:34:52Z</time>
      </trkpt>
      <trkpt lat="48.06969" lon="-3.18806">
        <ele>151.544921875</ele>
        <time>2011-07-08T18:34:53Z</time>
      </trkpt>
      <trkpt lat="48.06966" lon="-3.18801">
        <ele>151.06420898438</ele>
        <time>2011-07-08T18:34:54Z</time>
      </trkpt>
      <trkpt lat="48.06962" lon="-3.188">
        <ele>150.58361816406</ele>
        <time>2011-07-08T18:34:55Z</time>
      </trkpt>
      <trkpt lat="48.06946" lon="-3.18784">
        <ele>148.66101074219</ele>
        <time>2011-07-08T18:35:00Z</time>
      </trkpt>
      <trkpt lat="48.06932" lon="-3.18741">
        <ele>147.69970703125</ele>
        <time>2011-07-08T18:35:06Z</time>
      </trkpt>
      <trkpt lat="48.06927" lon="-3.18727">
        <ele>147.21899414062</ele>
        <time>2011-07-08T18:35:08Z</time>
      </trkpt>
      <trkpt lat="48.06921" lon="-3.18716">
        <ele>147.21899414062</ele>
        <time>2011-07-08T18:35:10Z</time>
      </trkpt>
      <trkpt lat="48.06913" lon="-3.18685">
        <ele>147.21899414062</ele>
        <time>2011-07-08T18:35:15Z</time>
      </trkpt>
      <trkpt lat="48.069" lon="-3.1865">
        <ele>146.73840332031</ele>
        <time>2011-07-08T18:35:20Z</time>
      </trkpt>
      <trkpt lat="48.06883" lon="-3.18632">
        <ele>145.77709960938</ele>
        <time>2011-07-08T18:35:24Z</time>
      </trkpt>
      <trkpt lat="48.06873" lon="-3.18618">
        <ele>145.77709960938</ele>
        <time>2011-07-08T18:35:27Z</time>
      </trkpt>
      <trkpt lat="48.06863" lon="-3.18624">
        <ele>144.33520507812</ele>
        <time>2011-07-08T18:35:30Z</time>
      </trkpt>
      <trkpt lat="48.06845" lon="-3.18628">
        <ele>144.33520507812</ele>
        <time>2011-07-08T18:35:34Z</time>
      </trkpt>
      <trkpt lat="48.06829" lon="-3.18642">
        <ele>143.37365722656</ele>
        <time>2011-07-08T18:35:38Z</time>
      </trkpt>
      <trkpt lat="48.06816" lon="-3.1864">
        <ele>143.37365722656</ele>
        <time>2011-07-08T18:35:41Z</time>
      </trkpt>
      <trkpt lat="48.06814" lon="-3.18629">
        <ele>142.41247558594</ele>
        <time>2011-07-08T18:35:44Z</time>
      </trkpt>
      <trkpt lat="48.06826" lon="-3.18615">
        <ele>141.45104980469</ele>
        <time>2011-07-08T18:35:48Z</time>
      </trkpt>
      <trkpt lat="48.06838" lon="-3.186">
        <ele>143.37365722656</ele>
        <time>2011-07-08T18:35:52Z</time>
      </trkpt>
      <trkpt lat="48.06845" lon="-3.18582">
        <ele>144.81579589844</ele>
        <time>2011-07-08T18:35:55Z</time>
      </trkpt>
      <trkpt lat="48.06846" lon="-3.18541">
        <ele>145.77709960938</ele>
        <time>2011-07-08T18:36:01Z</time>
      </trkpt>
      <trkpt lat="48.06853" lon="-3.1851">
        <ele>146.73840332031</ele>
        <time>2011-07-08T18:36:06Z</time>
      </trkpt>
      <trkpt lat="48.06865" lon="-3.18473">
        <ele>148.66101074219</ele>
        <time>2011-07-08T18:36:12Z</time>
      </trkpt>
      <trkpt lat="48.06869" lon="-3.1845">
        <ele>150.10302734375</ele>
        <time>2011-07-08T18:36:16Z</time>
      </trkpt>
      <trkpt lat="48.0687" lon="-3.18412">
        <ele>152.02575683594</ele>
        <time>2011-07-08T18:36:22Z</time>
      </trkpt>
      <trkpt lat="48.06872" lon="-3.18391">
        <ele>150.10302734375</ele>
        <time>2011-07-08T18:36:25Z</time>
      </trkpt>
      <trkpt lat="48.06879" lon="-3.18358">
        <ele>150.58361816406</ele>
        <time>2011-07-08T18:36:30Z</time>
      </trkpt>
      <trkpt lat="48.06892" lon="-3.18336">
        <ele>150.58361816406</ele>
        <time>2011-07-08T18:36:35Z</time>
      </trkpt>
      <trkpt lat="48.06901" lon="-3.18329">
        <ele>151.544921875</ele>
        <time>2011-07-08T18:36:39Z</time>
      </trkpt>
      <trkpt lat="48.06897" lon="-3.18324">
        <ele>152.50634765625</ele>
        <time>2011-07-08T18:36:42Z</time>
      </trkpt>
      <trkpt lat="48.06887" lon="-3.1833">
        <ele>151.544921875</ele>
        <time>2011-07-08T18:36:46Z</time>
      </trkpt>
      <trkpt lat="48.06856" lon="-3.18343">
        <ele>150.58361816406</ele>
        <time>2011-07-08T18:36:55Z</time>
      </trkpt>
      <trkpt lat="48.06837" lon="-3.18343">
        <ele>151.544921875</ele>
        <time>2011-07-08T18:37:00Z</time>
      </trkpt>
      <trkpt lat="48.06804" lon="-3.18335">
        <ele>154.42895507812</ele>
        <time>2011-07-08T18:37:08Z</time>
      </trkpt>
      <trkpt lat="48.06758" lon="-3.18331">
        <ele>157.31286621094</ele>
        <time>2011-07-08T18:37:18Z</time>
      </trkpt>
      <trkpt lat="48.06737" lon="-3.18328">
        <ele>157.79357910156</ele>
        <time>2011-07-08T18:37:22Z</time>
      </trkpt>
      <trkpt lat="48.06704" lon="-3.18313">
        <ele>158.75476074219</ele>
        <time>2011-07-08T18:37:28Z</time>
      </trkpt>
      <trkpt lat="48.06699" lon="-3.1831">
        <ele>158.27416992188</ele>
        <time>2011-07-08T18:37:29Z</time>
      </trkpt>
      <trkpt lat="48.06656" lon="-3.18271">
        <ele>157.79357910156</ele>
        <time>2011-07-08T18:37:38Z</time>
      </trkpt>
      <trkpt lat="48.06643" lon="-3.1826">
        <ele>156.83215332031</ele>
        <time>2011-07-08T18:37:41Z</time>
      </trkpt>
      <trkpt lat="48.06619" lon="-3.18237">
        <ele>157.79357910156</ele>
        <time>2011-07-08T18:37:47Z</time>
      </trkpt>
      <trkpt lat="48.06585" lon="-3.18208">
        <ele>158.75476074219</ele>
        <time>2011-07-08T18:37:56Z</time>
      </trkpt>
      <trkpt lat="48.06583" lon="-3.18206">
        <ele>158.27416992188</ele>
        <time>2011-07-08T18:38:01Z</time>
      </trkpt>
      <trkpt lat="48.06582" lon="-3.18204">
        <ele>158.75476074219</ele>
        <time>2011-07-08T18:38:04Z</time>
      </trkpt>
      <trkpt lat="48.06566" lon="-3.18193">
        <ele>159.23547363281</ele>
        <time>2011-07-08T18:38:10Z</time>
      </trkpt>
      <trkpt lat="48.06542" lon="-3.18181">
        <ele>156.83215332031</ele>
        <time>2011-07-08T18:38:15Z</time>
      </trkpt>
      <trkpt lat="48.06515" lon="-3.18167">
        <ele>156.83215332031</ele>
        <time>2011-07-08T18:38:20Z</time>
      </trkpt>
      <trkpt lat="48.06495" lon="-3.18168">
        <ele>156.3515625</ele>
        <time>2011-07-08T18:38:24Z</time>
      </trkpt>
      <trkpt lat="48.06492" lon="-3.18184">
        <ele>157.31286621094</ele>
        <time>2011-07-08T18:38:28Z</time>
      </trkpt>
      <trkpt lat="48.06492" lon="-3.18189">
        <ele>157.31286621094</ele>
        <time>2011-07-08T18:38:29Z</time>
      </trkpt>
      <trkpt lat="48.06489" lon="-3.18221">
        <ele>158.75476074219</ele>
        <time>2011-07-08T18:38:35Z</time>
      </trkpt>
      <trkpt lat="48.06486" lon="-3.18258">
        <ele>156.3515625</ele>
        <time>2011-07-08T18:38:41Z</time>
      </trkpt>
      <trkpt lat="48.0648" lon="-3.18312">
        <ele>153.46765136719</ele>
        <time>2011-07-08T18:38:48Z</time>
      </trkpt>
      <trkpt lat="48.06472" lon="-3.18357">
        <ele>152.50634765625</ele>
        <time>2011-07-08T18:38:53Z</time>
      </trkpt>
      <trkpt lat="48.06469" lon="-3.18405">
        <ele>152.02575683594</ele>
        <time>2011-07-08T18:38:59Z</time>
      </trkpt>
      <trkpt lat="48.06469" lon="-3.18416">
        <ele>151.544921875</ele>
        <time>2011-07-08T18:39:01Z</time>
      </trkpt>
      <trkpt lat="48.06468" lon="-3.1842">
        <ele>152.02575683594</ele>
        <time>2011-07-08T18:39:06Z</time>
      </trkpt>
      <trkpt lat="48.06468" lon="-3.18417">
        <ele>149.1416015625</ele>
        <time>2011-07-08T18:39:11Z</time>
      </trkpt>
      <trkpt lat="48.06467" lon="-3.18417">
        <ele>149.1416015625</ele>
        <time>2011-07-08T18:39:12Z</time>
      </trkpt>
      <trkpt lat="48.06467" lon="-3.18418">
        <ele>149.1416015625</ele>
        <time>2011-07-08T18:39:14Z</time>
      </trkpt>
      <trkpt lat="48.06466" lon="-3.18419">
        <ele>149.1416015625</ele>
        <time>2011-07-08T18:39:15Z</time>
      </trkpt>
      <trkpt lat="48.06467" lon="-3.18422">
        <ele>150.58361816406</ele>
        <time>2011-07-08T18:39:18Z</time>
      </trkpt>
      <trkpt lat="48.06464" lon="-3.18443">
        <ele>159.71618652344</ele>
        <time>2011-07-08T18:39:23Z</time>
      </trkpt>
      <trkpt lat="48.06459" lon="-3.18485">
        <ele>167.88732910156</ele>
        <time>2011-07-08T18:39:29Z</time>
      </trkpt>
      <trkpt lat="48.06458" lon="-3.18501">
        <ele>169.32946777344</ele>
        <time>2011-07-08T18:39:31Z</time>
      </trkpt>
      <trkpt lat="48.06455" lon="-3.18533">
        <ele>169.32946777344</ele>
        <time>2011-07-08T18:39:35Z</time>
      </trkpt>
      <trkpt lat="48.06456" lon="-3.18567">
        <ele>168.84875488281</ele>
        <time>2011-07-08T18:39:40Z</time>
      </trkpt>
      <trkpt lat="48.06456" lon="-3.18574">
        <ele>165.48413085938</ele>
        <time>2011-07-08T18:39:45Z</time>
      </trkpt>
      <trkpt lat="48.06456" lon="-3.18576">
        <ele>167.40673828125</ele>
        <time>2011-07-08T18:39:55Z</time>
      </trkpt>
      <trkpt lat="48.06455" lon="-3.18577">
        <ele>165.96472167969</ele>
        <time>2011-07-08T18:39:57Z</time>
      </trkpt>
      <trkpt lat="48.06455" lon="-3.1858">
        <ele>173.6552734375</ele>
        <time>2011-07-08T18:40:04Z</time>
      </trkpt>
      <trkpt lat="48.06454" lon="-3.18582">
        <ele>174.61657714844</ele>
        <time>2011-07-08T18:40:07Z</time>
      </trkpt>
      <trkpt lat="48.06456" lon="-3.18581">
        <ele>175.09729003906</ele>
        <time>2011-07-08T18:40:13Z</time>
      </trkpt>
      <trkpt lat="48.06454" lon="-3.18579">
        <ele>170.77136230469</ele>
        <time>2011-07-08T18:40:17Z</time>
      </trkpt>
      <trkpt lat="48.06453" lon="-3.18578">
        <ele>169.81005859375</ele>
        <time>2011-07-08T18:40:19Z</time>
      </trkpt>
      <trkpt lat="48.06453" lon="-3.18578">
        <ele>169.81005859375</ele>
        <time>2011-07-08T18:40:20Z</time>
      </trkpt>
      <trkpt lat="48.06453" lon="-3.18575">
        <ele>170.29064941406</ele>
        <time>2011-07-08T18:40:27Z</time>
      </trkpt>
      <trkpt lat="48.06453" lon="-3.18579">
        <ele>176.05859375</ele>
        <time>2011-07-08T18:40:38Z</time>
      </trkpt>
      <trkpt lat="48.0645" lon="-3.18583">
        <ele>177.50061035156</ele>
        <time>2011-07-08T18:40:46Z</time>
      </trkpt>
      <trkpt lat="48.0645" lon="-3.18582">
        <ele>176.05859375</ele>
        <time>2011-07-08T18:40:53Z</time>
      </trkpt>
      <trkpt lat="48.06451" lon="-3.18584">
        <ele>174.13586425781</ele>
        <time>2011-07-08T18:40:56Z</time>
      </trkpt>
      <trkpt lat="48.06452" lon="-3.18596">
        <ele>171.25207519531</ele>
        <time>2011-07-08T18:41:00Z</time>
      </trkpt>
      <trkpt lat="48.06452" lon="-3.18601">
        <ele>170.77136230469</ele>
        <time>2011-07-08T18:41:01Z</time>
      </trkpt>
      <trkpt lat="48.06451" lon="-3.18633">
        <ele>165.96472167969</ele>
        <time>2011-07-08T18:41:07Z</time>
      </trkpt>
      <trkpt lat="48.06451" lon="-3.18635">
        <ele>165.00341796875</ele>
        <time>2011-07-08T18:41:08Z</time>
      </trkpt>
      <trkpt lat="48.06449" lon="-3.18649">
        <ele>164.04211425781</ele>
        <time>2011-07-08T18:41:13Z</time>
      </trkpt>
      <trkpt lat="48.06453" lon="-3.18664">
        <ele>163.08081054688</ele>
        <time>2011-07-08T18:41:18Z</time>
      </trkpt>
      <trkpt lat="48.06452" lon="-3.18678">
        <ele>166.4453125</ele>
        <time>2011-07-08T18:41:23Z</time>
      </trkpt>
      <trkpt lat="48.06452" lon="-3.1868">
        <ele>166.92602539062</ele>
        <time>2011-07-08T18:41:24Z</time>
      </trkpt>
      <trkpt lat="48.06451" lon="-3.18699">
        <ele>167.88732910156</ele>
        <time>2011-07-08T18:41:29Z</time>
      </trkpt>
      <trkpt lat="48.06447" lon="-3.18729">
        <ele>169.81005859375</ele>
        <time>2011-07-08T18:41:34Z</time>
      </trkpt>
      <trkpt lat="48.06446" lon="-3.18757">
        <ele>170.29064941406</ele>
        <time>2011-07-08T18:41:38Z</time>
      </trkpt>
      <trkpt lat="48.06445" lon="-3.18789">
        <ele>167.88732910156</ele>
        <time>2011-07-08T18:41:42Z</time>
      </trkpt>
      <trkpt lat="48.06448" lon="-3.18804">
        <ele>163.08081054688</ele>
        <time>2011-07-08T18:41:45Z</time>
      </trkpt>
      <trkpt lat="48.06457" lon="-3.18815">
        <ele>159.23547363281</ele>
        <time>2011-07-08T18:41:48Z</time>
      </trkpt>
      <trkpt lat="48.06465" lon="-3.18823">
        <ele>156.3515625</ele>
        <time>2011-07-08T18:41:50Z</time>
      </trkpt>
      <trkpt lat="48.06475" lon="-3.18839">
        <ele>152.02575683594</ele>
        <time>2011-07-08T18:41:53Z</time>
      </trkpt>
      <trkpt lat="48.06478" lon="-3.18845">
        <ele>151.544921875</ele>
        <time>2011-07-08T18:41:54Z</time>
      </trkpt>
      <trkpt lat="48.06483" lon="-3.18858">
        <ele>151.06420898438</ele>
        <time>2011-07-08T18:41:56Z</time>
      </trkpt>
      <trkpt lat="48.06482" lon="-3.18878">
        <ele>147.69970703125</ele>
        <time>2011-07-08T18:42:00Z</time>
      </trkpt>
      <trkpt lat="48.06478" lon="-3.18875">
        <ele>145.29638671875</ele>
        <time>2011-07-08T18:42:03Z</time>
      </trkpt>
      <trkpt lat="48.06475" lon="-3.18868">
        <ele>144.81579589844</ele>
        <time>2011-07-08T18:42:07Z</time>
      </trkpt>
      <trkpt lat="48.06463" lon="-3.18851">
        <ele>145.29638671875</ele>
        <time>2011-07-08T18:42:15Z</time>
      </trkpt>
      <trkpt lat="48.06453" lon="-3.1884">
        <ele>144.33520507812</ele>
        <time>2011-07-08T18:42:19Z</time>
      </trkpt>
      <trkpt lat="48.06435" lon="-3.18821">
        <ele>142.89306640625</ele>
        <time>2011-07-08T18:42:24Z</time>
      </trkpt>
      <trkpt lat="48.06417" lon="-3.18814">
        <ele>146.2578125</ele>
        <time>2011-07-08T18:42:29Z</time>
      </trkpt>
      <trkpt lat="48.06402" lon="-3.18809">
        <ele>144.81579589844</ele>
        <time>2011-07-08T18:42:34Z</time>
      </trkpt>
      <trkpt lat="48.0639" lon="-3.18797">
        <ele>144.81579589844</ele>
        <time>2011-07-08T18:42:38Z</time>
      </trkpt>
      <trkpt lat="48.06374" lon="-3.18788">
        <ele>149.62231445312</ele>
        <time>2011-07-08T18:42:43Z</time>
      </trkpt>
      <trkpt lat="48.06361" lon="-3.18781">
        <ele>150.58361816406</ele>
        <time>2011-07-08T18:42:47Z</time>
      </trkpt>
      <trkpt lat="48.06344" lon="-3.18772">
        <ele>150.10302734375</ele>
        <time>2011-07-08T18:42:52Z</time>
      </trkpt>
      <trkpt lat="48.06331" lon="-3.18763">
        <ele>146.73840332031</ele>
        <time>2011-07-08T18:42:58Z</time>
      </trkpt>
      <trkpt lat="48.06316" lon="-3.18761">
        <ele>147.21899414062</ele>
        <time>2011-07-08T18:43:03Z</time>
      </trkpt>
      <trkpt lat="48.06295" lon="-3.18759">
        <ele>143.85437011719</ele>
        <time>2011-07-08T18:43:08Z</time>
      </trkpt>
      <trkpt lat="48.0628" lon="-3.18751">
        <ele>141.45104980469</ele>
        <time>2011-07-08T18:43:12Z</time>
      </trkpt>
      <trkpt lat="48.06259" lon="-3.1873">
        <ele>142.41247558594</ele>
        <time>2011-07-08T18:43:19Z</time>
      </trkpt>
      <trkpt lat="48.06244" lon="-3.18711">
        <ele>143.37365722656</ele>
        <time>2011-07-08T18:43:24Z</time>
      </trkpt>
      <trkpt lat="48.0624" lon="-3.18704">
        <ele>140.97045898438</ele>
        <time>2011-07-08T18:43:28Z</time>
      </trkpt>
      <trkpt lat="48.06236" lon="-3.18702">
        <ele>140.00915527344</ele>
        <time>2011-07-08T18:43:35Z</time>
      </trkpt>
      <trkpt lat="48.06235" lon="-3.18704">
        <ele>137.12524414062</ele>
        <time>2011-07-08T18:43:43Z</time>
      </trkpt>
      <trkpt lat="48.06234" lon="-3.18704">
        <ele>137.60583496094</ele>
        <time>2011-07-08T18:43:44Z</time>
      </trkpt>
      <trkpt lat="48.06234" lon="-3.18704">
        <ele>137.60583496094</ele>
        <time>2011-07-08T18:43:45Z</time>
      </trkpt>
      <trkpt lat="48.06234" lon="-3.18704">
        <ele>137.12524414062</ele>
        <time>2011-07-08T18:43:47Z</time>
      </trkpt>
      <trkpt lat="48.06232" lon="-3.18707">
        <ele>141.93176269531</ele>
        <time>2011-07-08T18:43:54Z</time>
      </trkpt>
      <trkpt lat="48.06241" lon="-3.18713">
        <ele>143.37365722656</ele>
        <time>2011-07-08T18:43:59Z</time>
      </trkpt>
      <trkpt lat="48.06245" lon="-3.1872">
        <ele>142.41247558594</ele>
        <time>2011-07-08T18:44:02Z</time>
      </trkpt>
      <trkpt lat="48.06244" lon="-3.18726">
        <ele>141.45104980469</ele>
        <time>2011-07-08T18:44:04Z</time>
      </trkpt>
      <trkpt lat="48.06241" lon="-3.18728">
        <ele>142.41247558594</ele>
        <time>2011-07-08T18:44:06Z</time>
      </trkpt>
      <trkpt lat="48.06239" lon="-3.1873">
        <ele>142.41247558594</ele>
        <time>2011-07-08T18:44:07Z</time>
      </trkpt>
      <trkpt lat="48.06234" lon="-3.18746">
        <ele>144.33520507812</ele>
        <time>2011-07-08T18:44:12Z</time>
      </trkpt>
      <trkpt lat="48.06232" lon="-3.18748">
        <ele>146.2578125</ele>
        <time>2011-07-08T18:44:13Z</time>
      </trkpt>
      <trkpt lat="48.06224" lon="-3.18743">
        <ele>148.18041992188</ele>
        <time>2011-07-08T18:44:19Z</time>
      </trkpt>
      <trkpt lat="48.06219" lon="-3.18728">
        <ele>145.77709960938</ele>
        <time>2011-07-08T18:44:24Z</time>
      </trkpt>
      <trkpt lat="48.06216" lon="-3.18714">
        <ele>143.37365722656</ele>
        <time>2011-07-08T18:44:27Z</time>
      </trkpt>
      <trkpt lat="48.06209" lon="-3.1869">
        <ele>140.97045898438</ele>
        <time>2011-07-08T18:44:33Z</time>
      </trkpt>
      <trkpt lat="48.06197" lon="-3.18679">
        <ele>137.60583496094</ele>
        <time>2011-07-08T18:44:38Z</time>
      </trkpt>
      <trkpt lat="48.06179" lon="-3.18675">
        <ele>132.31860351562</ele>
        <time>2011-07-08T18:44:43Z</time>
      </trkpt>
      <trkpt lat="48.06166" lon="-3.18678">
        <ele>131.35729980469</ele>
        <time>2011-07-08T18:44:47Z</time>
      </trkpt>
      <trkpt lat="48.06145" lon="-3.18686">
        <ele>135.20251464844</ele>
        <time>2011-07-08T18:44:52Z</time>
      </trkpt>
      <trkpt lat="48.06135" lon="-3.18691">
        <ele>136.64465332031</ele>
        <time>2011-07-08T18:44:54Z</time>
      </trkpt>
      <trkpt lat="48.06123" lon="-3.18701">
        <ele>139.0478515625</ele>
        <time>2011-07-08T18:44:57Z</time>
      </trkpt>
      <trkpt lat="48.06103" lon="-3.18703">
        <ele>141.45104980469</ele>
        <time>2011-07-08T18:45:02Z</time>
      </trkpt>
      <trkpt lat="48.06092" lon="-3.187">
        <ele>140.97045898438</ele>
        <time>2011-07-08T18:45:05Z</time>
      </trkpt>
      <trkpt lat="48.06078" lon="-3.18697">
        <ele>140.48986816406</ele>
        <time>2011-07-08T18:45:10Z</time>
      </trkpt>
      <trkpt lat="48.0607" lon="-3.18691">
        <ele>140.00915527344</ele>
        <time>2011-07-08T18:45:14Z</time>
      </trkpt>
      <trkpt lat="48.06058" lon="-3.18682">
        <ele>142.41247558594</ele>
        <time>2011-07-08T18:45:19Z</time>
      </trkpt>
      <trkpt lat="48.06053" lon="-3.18676">
        <ele>143.37365722656</ele>
        <time>2011-07-08T18:45:21Z</time>
      </trkpt>
      <trkpt lat="48.0604" lon="-3.18654">
        <ele>145.77709960938</ele>
        <time>2011-07-08T18:45:26Z</time>
      </trkpt>
      <trkpt lat="48.06025" lon="-3.18618">
        <ele>146.73840332031</ele>
        <time>2011-07-08T18:45:33Z</time>
      </trkpt>
      <trkpt lat="48.06005" lon="-3.18586">
        <ele>144.81579589844</ele>
        <time>2011-07-08T18:45:41Z</time>
      </trkpt>
      <trkpt lat="48.05994" lon="-3.18559">
        <ele>143.37365722656</ele>
        <time>2011-07-08T18:45:46Z</time>
      </trkpt>
      <trkpt lat="48.05986" lon="-3.18543">
        <ele>142.41247558594</ele>
        <time>2011-07-08T18:45:49Z</time>
      </trkpt>
      <trkpt lat="48.05972" lon="-3.18513">
        <ele>140.97045898438</ele>
        <time>2011-07-08T18:45:54Z</time>
      </trkpt>
      <trkpt lat="48.05957" lon="-3.18485">
        <ele>140.97045898438</ele>
        <time>2011-07-08T18:45:59Z</time>
      </trkpt>
      <trkpt lat="48.05947" lon="-3.18469">
        <ele>140.00915527344</ele>
        <time>2011-07-08T18:46:04Z</time>
      </trkpt>
      <trkpt lat="48.05939" lon="-3.1846">
        <ele>137.60583496094</ele>
        <time>2011-07-08T18:46:08Z</time>
      </trkpt>
      <trkpt lat="48.05933" lon="-3.18452">
        <ele>136.64465332031</ele>
        <time>2011-07-08T18:46:10Z</time>
      </trkpt>
      <trkpt lat="48.05917" lon="-3.18427">
        <ele>135.20251464844</ele>
        <time>2011-07-08T18:46:15Z</time>
      </trkpt>
      <trkpt lat="48.05911" lon="-3.18411">
        <ele>135.68310546875</ele>
        <time>2011-07-08T18:46:19Z</time>
      </trkpt>
      <trkpt lat="48.0591" lon="-3.18409">
        <ele>137.12524414062</ele>
        <time>2011-07-08T18:46:21Z</time>
      </trkpt>
      <trkpt lat="48.05908" lon="-3.18397">
        <ele>138.08654785156</ele>
        <time>2011-07-08T18:46:26Z</time>
      </trkpt>
      <trkpt lat="48.05907" lon="-3.18394">
        <ele>138.56726074219</ele>
        <time>2011-07-08T18:46:27Z</time>
      </trkpt>
      <trkpt lat="48.05906" lon="-3.18369">
        <ele>134.72192382812</ele>
        <time>2011-07-08T18:46:32Z</time>
      </trkpt>
      <trkpt lat="48.05902" lon="-3.18341">
        <ele>132.31860351562</ele>
        <time>2011-07-08T18:46:37Z</time>
      </trkpt>
      <trkpt lat="48.05892" lon="-3.18325">
        <ele>131.35729980469</ele>
        <time>2011-07-08T18:46:41Z</time>
      </trkpt>
      <trkpt lat="48.05879" lon="-3.18309">
        <ele>132.31860351562</ele>
        <time>2011-07-08T18:46:45Z</time>
      </trkpt>
      <trkpt lat="48.05873" lon="-3.18301">
        <ele>133.27990722656</ele>
        <time>2011-07-08T18:46:47Z</time>
      </trkpt>
      <trkpt lat="48.05866" lon="-3.18287">
        <ele>132.79931640625</ele>
        <time>2011-07-08T18:46:50Z</time>
      </trkpt>
      <trkpt lat="48.05853" lon="-3.18278">
        <ele>132.31860351562</ele>
        <time>2011-07-08T18:46:54Z</time>
      </trkpt>
      <trkpt lat="48.05842" lon="-3.18279">
        <ele>132.79931640625</ele>
        <time>2011-07-08T18:46:57Z</time>
      </trkpt>
      <trkpt lat="48.05836" lon="-3.18281">
        <ele>131.837890625</ele>
        <time>2011-07-08T18:46:59Z</time>
      </trkpt>
      <trkpt lat="48.05823" lon="-3.18271">
        <ele>128.9541015625</ele>
        <time>2011-07-08T18:47:04Z</time>
      </trkpt>
      <trkpt lat="48.05811" lon="-3.18266">
        <ele>128.47338867188</ele>
        <time>2011-07-08T18:47:08Z</time>
      </trkpt>
      <trkpt lat="48.05796" lon="-3.18265">
        <ele>130.87670898438</ele>
        <time>2011-07-08T18:47:13Z</time>
      </trkpt>
      <trkpt lat="48.05784" lon="-3.18262">
        <ele>130.39599609375</ele>
        <time>2011-07-08T18:47:18Z</time>
      </trkpt>
      <trkpt lat="48.05772" lon="-3.18262">
        <ele>131.35729980469</ele>
        <time>2011-07-08T18:47:22Z</time>
      </trkpt>
      <trkpt lat="48.0576" lon="-3.18272">
        <ele>131.837890625</ele>
        <time>2011-07-08T18:47:26Z</time>
      </trkpt>
      <trkpt lat="48.05743" lon="-3.18287">
        <ele>131.35729980469</ele>
        <time>2011-07-08T18:47:32Z</time>
      </trkpt>
      <trkpt lat="48.05729" lon="-3.18299">
        <ele>131.837890625</ele>
        <time>2011-07-08T18:47:37Z</time>
      </trkpt>
      <trkpt lat="48.05721" lon="-3.18305">
        <ele>132.31860351562</ele>
        <time>2011-07-08T18:47:41Z</time>
      </trkpt>
      <trkpt lat="48.05715" lon="-3.18318">
        <ele>133.27990722656</ele>
        <time>2011-07-08T18:47:45Z</time>
      </trkpt>
      <trkpt lat="48.05714" lon="-3.18322">
        <ele>133.27990722656</ele>
        <time>2011-07-08T18:47:46Z</time>
      </trkpt>
      <trkpt lat="48.05712" lon="-3.18325">
        <ele>133.27990722656</ele>
        <time>2011-07-08T18:47:47Z</time>
      </trkpt>
      <trkpt lat="48.05703" lon="-3.18345">
        <ele>134.2412109375</ele>
        <time>2011-07-08T18:47:52Z</time>
      </trkpt>
      <trkpt lat="48.05697" lon="-3.18366">
        <ele>134.72192382812</ele>
        <time>2011-07-08T18:47:56Z</time>
      </trkpt>
      <trkpt lat="48.05693" lon="-3.18387">
        <ele>135.20251464844</ele>
        <time>2011-07-08T18:48:00Z</time>
      </trkpt>
      <trkpt lat="48.05685" lon="-3.1839">
        <ele>135.68310546875</ele>
        <time>2011-07-08T18:48:04Z</time>
      </trkpt>
      <trkpt lat="48.05679" lon="-3.18373">
        <ele>138.08654785156</ele>
        <time>2011-07-08T18:48:08Z</time>
      </trkpt>
      <trkpt lat="48.05665" lon="-3.18375">
        <ele>138.08654785156</ele>
        <time>2011-07-08T18:48:14Z</time>
      </trkpt>
      <trkpt lat="48.05659" lon="-3.18369">
        <ele>136.16394042969</ele>
        <time>2011-07-08T18:48:18Z</time>
      </trkpt>
      <trkpt lat="48.05648" lon="-3.18367">
        <ele>133.27990722656</ele>
        <time>2011-07-08T18:48:22Z</time>
      </trkpt>
      <trkpt lat="48.0564" lon="-3.18359">
        <ele>132.31860351562</ele>
        <time>2011-07-08T18:48:25Z</time>
      </trkpt>
      <trkpt lat="48.05637" lon="-3.18358">
        <ele>131.35729980469</ele>
        <time>2011-07-08T18:48:27Z</time>
      </trkpt>
      <trkpt lat="48.05623" lon="-3.18373">
        <ele>130.87670898438</ele>
        <time>2011-07-08T18:48:32Z</time>
      </trkpt>
      <trkpt lat="48.05621" lon="-3.18378">
        <ele>131.35729980469</ele>
        <time>2011-07-08T18:48:33Z</time>
      </trkpt>
      <trkpt lat="48.05613" lon="-3.18376">
        <ele>129.91528320312</ele>
        <time>2011-07-08T18:48:37Z</time>
      </trkpt>
      <trkpt lat="48.05603" lon="-3.18367">
        <ele>130.87670898438</ele>
        <time>2011-07-08T18:48:41Z</time>
      </trkpt>
      <trkpt lat="48.05598" lon="-3.18353">
        <ele>128.47338867188</ele>
        <time>2011-07-08T18:48:46Z</time>
      </trkpt>
      <trkpt lat="48.05593" lon="-3.18348">
        <ele>127.99255371094</ele>
        <time>2011-07-08T18:48:48Z</time>
      </trkpt>
      <trkpt lat="48.05585" lon="-3.18331">
        <ele>124.62805175781</ele>
        <time>2011-07-08T18:48:54Z</time>
      </trkpt>
      <trkpt lat="48.05573" lon="-3.18329">
        <ele>124.14733886719</ele>
        <time>2011-07-08T18:48:58Z</time>
      </trkpt>
      <trkpt lat="48.05569" lon="-3.18331">
        <ele>124.14733886719</ele>
        <time>2011-07-08T18:48:59Z</time>
      </trkpt>
      <trkpt lat="48.05552" lon="-3.18327">
        <ele>128.47338867188</ele>
        <time>2011-07-08T18:49:05Z</time>
      </trkpt>
      <trkpt lat="48.05542" lon="-3.18319">
        <ele>131.35729980469</ele>
        <time>2011-07-08T18:49:09Z</time>
      </trkpt>
      <trkpt lat="48.05539" lon="-3.18316">
        <ele>131.35729980469</ele>
        <time>2011-07-08T18:49:10Z</time>
      </trkpt>
      <trkpt lat="48.05531" lon="-3.18299">
        <ele>133.27990722656</ele>
        <time>2011-07-08T18:49:15Z</time>
      </trkpt>
      <trkpt lat="48.05516" lon="-3.18288">
        <ele>137.12524414062</ele>
        <time>2011-07-08T18:49:20Z</time>
      </trkpt>
      <trkpt lat="48.05512" lon="-3.18294">
        <ele>138.08654785156</ele>
        <time>2011-07-08T18:49:24Z</time>
      </trkpt>
      <trkpt lat="48.05511" lon="-3.183">
        <ele>138.08654785156</ele>
        <time>2011-07-08T18:49:26Z</time>
      </trkpt>
      <trkpt lat="48.05505" lon="-3.18318">
        <ele>141.93176269531</ele>
        <time>2011-07-08T18:49:31Z</time>
      </trkpt>
      <trkpt lat="48.05504" lon="-3.18322">
        <ele>144.33520507812</ele>
        <time>2011-07-08T18:49:32Z</time>
      </trkpt>
      <trkpt lat="48.05503" lon="-3.1835">
        <ele>149.1416015625</ele>
        <time>2011-07-08T18:49:38Z</time>
      </trkpt>
      <trkpt lat="48.055" lon="-3.18374">
        <ele>149.62231445312</ele>
        <time>2011-07-08T18:49:43Z</time>
      </trkpt>
      <trkpt lat="48.05494" lon="-3.18396">
        <ele>147.21899414062</ele>
        <time>2011-07-08T18:49:49Z</time>
      </trkpt>
      <trkpt lat="48.05485" lon="-3.18408">
        <ele>148.66101074219</ele>
        <time>2011-07-08T18:49:54Z</time>
      </trkpt>
      <trkpt lat="48.05479" lon="-3.18424">
        <ele>146.73840332031</ele>
        <time>2011-07-08T18:49:59Z</time>
      </trkpt>
      <trkpt lat="48.05475" lon="-3.18437">
        <ele>146.2578125</ele>
        <time>2011-07-08T18:50:03Z</time>
      </trkpt>
      <trkpt lat="48.05469" lon="-3.18445">
        <ele>143.85437011719</ele>
        <time>2011-07-08T18:50:08Z</time>
      </trkpt>
      <trkpt lat="48.05467" lon="-3.18454">
        <ele>141.93176269531</ele>
        <time>2011-07-08T18:50:12Z</time>
      </trkpt>
      <trkpt lat="48.05462" lon="-3.1847">
        <ele>143.37365722656</ele>
        <time>2011-07-08T18:50:18Z</time>
      </trkpt>
      <trkpt lat="48.05455" lon="-3.18484">
        <ele>143.85437011719</ele>
        <time>2011-07-08T18:50:24Z</time>
      </trkpt>
      <trkpt lat="48.05453" lon="-3.18488">
        <ele>143.37365722656</ele>
        <time>2011-07-08T18:50:26Z</time>
      </trkpt>
      <trkpt lat="48.05445" lon="-3.18504">
        <ele>143.37365722656</ele>
        <time>2011-07-08T18:50:32Z</time>
      </trkpt>
      <trkpt lat="48.05444" lon="-3.18507">
        <ele>143.37365722656</ele>
        <time>2011-07-08T18:50:33Z</time>
      </trkpt>
      <trkpt lat="48.05438" lon="-3.18524">
        <ele>145.77709960938</ele>
        <time>2011-07-08T18:50:39Z</time>
      </trkpt>
      <trkpt lat="48.05432" lon="-3.18539">
        <ele>147.21899414062</ele>
        <time>2011-07-08T18:50:45Z</time>
      </trkpt>
      <trkpt lat="48.05416" lon="-3.1855">
        <ele>147.69970703125</ele>
        <time>2011-07-08T18:50:51Z</time>
      </trkpt>
      <trkpt lat="48.05404" lon="-3.18567">
        <ele>149.62231445312</ele>
        <time>2011-07-08T18:50:56Z</time>
      </trkpt>
      <trkpt lat="48.05395" lon="-3.18591">
        <ele>151.06420898438</ele>
        <time>2011-07-08T18:51:01Z</time>
      </trkpt>
      <trkpt lat="48.05385" lon="-3.18589">
        <ele>152.02575683594</ele>
        <time>2011-07-08T18:51:05Z</time>
      </trkpt>
      <trkpt lat="48.05383" lon="-3.18586">
        <ele>152.02575683594</ele>
        <time>2011-07-08T18:51:06Z</time>
      </trkpt>
      <trkpt lat="48.05371" lon="-3.18569">
        <ele>152.02575683594</ele>
        <time>2011-07-08T18:51:11Z</time>
      </trkpt>
      <trkpt lat="48.05357" lon="-3.18553">
        <ele>151.06420898438</ele>
        <time>2011-07-08T18:51:17Z</time>
      </trkpt>
      <trkpt lat="48.05355" lon="-3.18553">
        <ele>150.58361816406</ele>
        <time>2011-07-08T18:51:18Z</time>
      </trkpt>
      <trkpt lat="48.05351" lon="-3.18558">
        <ele>149.62231445312</ele>
        <time>2011-07-08T18:51:22Z</time>
      </trkpt>
      <trkpt lat="48.0535" lon="-3.18554">
        <ele>148.66101074219</ele>
        <time>2011-07-08T18:51:25Z</time>
      </trkpt>
      <trkpt lat="48.05352" lon="-3.18549">
        <ele>148.66101074219</ele>
        <time>2011-07-08T18:51:30Z</time>
      </trkpt>
      <trkpt lat="48.05354" lon="-3.18552">
        <ele>148.66101074219</ele>
        <time>2011-07-08T18:51:34Z</time>
      </trkpt>
      <trkpt lat="48.05354" lon="-3.18551">
        <ele>147.69970703125</ele>
        <time>2011-07-08T18:51:38Z</time>
      </trkpt>
      <trkpt lat="48.05354" lon="-3.18553">
        <ele>147.69970703125</ele>
        <time>2011-07-08T18:51:43Z</time>
      </trkpt>
      <trkpt lat="48.05353" lon="-3.18566">
        <ele>147.69970703125</ele>
        <time>2011-07-08T18:51:47Z</time>
      </trkpt>
      <trkpt lat="48.05349" lon="-3.18586">
        <ele>148.66101074219</ele>
        <time>2011-07-08T18:51:52Z</time>
      </trkpt>
      <trkpt lat="48.05344" lon="-3.186">
        <ele>149.1416015625</ele>
        <time>2011-07-08T18:51:57Z</time>
      </trkpt>
      <trkpt lat="48.05337" lon="-3.18617">
        <ele>150.58361816406</ele>
        <time>2011-07-08T18:52:03Z</time>
      </trkpt>
      <trkpt lat="48.0533" lon="-3.18637">
        <ele>151.544921875</ele>
        <time>2011-07-08T18:52:09Z</time>
      </trkpt>
      <trkpt lat="48.05324" lon="-3.18653">
        <ele>152.98693847656</ele>
        <time>2011-07-08T18:52:14Z</time>
      </trkpt>
      <trkpt lat="48.05318" lon="-3.1867">
        <ele>152.98693847656</ele>
        <time>2011-07-08T18:52:19Z</time>
      </trkpt>
      <trkpt lat="48.05306" lon="-3.187">
        <ele>153.94836425781</ele>
        <time>2011-07-08T18:52:27Z</time>
      </trkpt>
      <trkpt lat="48.05293" lon="-3.18733">
        <ele>154.90954589844</ele>
        <time>2011-07-08T18:52:35Z</time>
      </trkpt>
      <trkpt lat="48.05281" lon="-3.18763">
        <ele>155.87097167969</ele>
        <time>2011-07-08T18:52:42Z</time>
      </trkpt>
      <trkpt lat="48.05266" lon="-3.188">
        <ele>155.87097167969</ele>
        <time>2011-07-08T18:52:50Z</time>
      </trkpt>
      <trkpt lat="48.05244" lon="-3.18848">
        <ele>155.87097167969</ele>
        <time>2011-07-08T18:53:00Z</time>
      </trkpt>
      <trkpt lat="48.05224" lon="-3.18887">
        <ele>154.42895507812</ele>
        <time>2011-07-08T18:53:07Z</time>
      </trkpt>
      <trkpt lat="48.05198" lon="-3.18935">
        <ele>152.02575683594</ele>
        <time>2011-07-08T18:53:14Z</time>
      </trkpt>
      <trkpt lat="48.05194" lon="-3.18942">
        <ele>151.544921875</ele>
        <time>2011-07-08T18:53:15Z</time>
      </trkpt>
      <trkpt lat="48.05179" lon="-3.18955">
        <ele>150.10302734375</ele>
        <time>2011-07-08T18:53:18Z</time>
      </trkpt>
      <trkpt lat="48.05174" lon="-3.18954">
        <ele>150.10302734375</ele>
        <time>2011-07-08T18:53:19Z</time>
      </trkpt>
      <trkpt lat="48.05158" lon="-3.18947">
        <ele>149.1416015625</ele>
        <time>2011-07-08T18:53:22Z</time>
      </trkpt>
      <trkpt lat="48.0514" lon="-3.18962">
        <ele>148.18041992188</ele>
        <time>2011-07-08T18:53:25Z</time>
      </trkpt>
      <trkpt lat="48.05101" lon="-3.19022">
        <ele>143.37365722656</ele>
        <time>2011-07-08T18:53:32Z</time>
      </trkpt>
      <trkpt lat="48.05062" lon="-3.1908">
        <ele>140.48986816406</ele>
        <time>2011-07-08T18:53:38Z</time>
      </trkpt>
      <trkpt lat="48.05055" lon="-3.1909">
        <ele>140.00915527344</ele>
        <time>2011-07-08T18:53:39Z</time>
      </trkpt>
      <trkpt lat="48.05014" lon="-3.1912">
        <ele>137.60583496094</ele>
        <time>2011-07-08T18:53:44Z</time>
      </trkpt>
      <trkpt lat="48.04988" lon="-3.19118">
        <ele>137.12524414062</ele>
        <time>2011-07-08T18:53:47Z</time>
      </trkpt>
      <trkpt lat="48.0498" lon="-3.19115">
        <ele>137.12524414062</ele>
        <time>2011-07-08T18:53:48Z</time>
      </trkpt>
      <trkpt lat="48.04935" lon="-3.1909">
        <ele>137.12524414062</ele>
        <time>2011-07-08T18:53:55Z</time>
      </trkpt>
      <trkpt lat="48.04905" lon="-3.19071">
        <ele>138.56726074219</ele>
        <time>2011-07-08T18:54:01Z</time>
      </trkpt>
      <trkpt lat="48.04876" lon="-3.19058">
        <ele>139.52844238281</ele>
        <time>2011-07-08T18:54:07Z</time>
      </trkpt>
      <trkpt lat="48.04848" lon="-3.19058">
        <ele>140.97045898438</ele>
        <time>2011-07-08T18:54:13Z</time>
      </trkpt>
      <trkpt lat="48.04824" lon="-3.19065">
        <ele>141.45104980469</ele>
        <time>2011-07-08T18:54:18Z</time>
      </trkpt>
      <trkpt lat="48.04808" lon="-3.19068">
        <ele>141.45104980469</ele>
        <time>2011-07-08T18:54:21Z</time>
      </trkpt>
      <trkpt lat="48.04787" lon="-3.19073">
        <ele>141.93176269531</ele>
        <time>2011-07-08T18:54:25Z</time>
      </trkpt>
      <trkpt lat="48.04746" lon="-3.1909">
        <ele>141.93176269531</ele>
        <time>2011-07-08T18:54:32Z</time>
      </trkpt>
      <trkpt lat="48.04718" lon="-3.19113">
        <ele>140.97045898438</ele>
        <time>2011-07-08T18:54:37Z</time>
      </trkpt>
      <trkpt lat="48.04706" lon="-3.19123">
        <ele>140.97045898438</ele>
        <time>2011-07-08T18:54:39Z</time>
      </trkpt>
      <trkpt lat="48.04671" lon="-3.19129">
        <ele>142.89306640625</ele>
        <time>2011-07-08T18:54:44Z</time>
      </trkpt>
      <trkpt lat="48.04653" lon="-3.19126">
        <ele>142.41247558594</ele>
        <time>2011-07-08T18:54:47Z</time>
      </trkpt>
      <trkpt lat="48.04622" lon="-3.1913">
        <ele>142.41247558594</ele>
        <time>2011-07-08T18:54:52Z</time>
      </trkpt>
      <trkpt lat="48.04608" lon="-3.19139">
        <ele>139.52844238281</ele>
        <time>2011-07-08T18:54:54Z</time>
      </trkpt>
      <trkpt lat="48.04593" lon="-3.19148">
        <ele>137.60583496094</ele>
        <time>2011-07-08T18:54:57Z</time>
      </trkpt>
      <trkpt lat="48.04584" lon="-3.19153">
        <ele>137.12524414062</ele>
        <time>2011-07-08T18:54:59Z</time>
      </trkpt>
      <trkpt lat="48.04572" lon="-3.19159">
        <ele>137.12524414062</ele>
        <time>2011-07-08T18:55:03Z</time>
      </trkpt>
      <trkpt lat="48.04561" lon="-3.19175">
        <ele>137.12524414062</ele>
        <time>2011-07-08T18:55:08Z</time>
      </trkpt>
      <trkpt lat="48.0455" lon="-3.19193">
        <ele>136.64465332031</ele>
        <time>2011-07-08T18:55:13Z</time>
      </trkpt>
      <trkpt lat="48.04541" lon="-3.19212">
        <ele>136.16394042969</ele>
        <time>2011-07-08T18:55:17Z</time>
      </trkpt>
      <trkpt lat="48.04522" lon="-3.19225">
        <ele>136.16394042969</ele>
        <time>2011-07-08T18:55:21Z</time>
      </trkpt>
      <trkpt lat="48.04512" lon="-3.19231">
        <ele>135.68310546875</ele>
        <time>2011-07-08T18:55:23Z</time>
      </trkpt>
      <trkpt lat="48.0451" lon="-3.19254">
        <ele>129.91528320312</ele>
        <time>2011-07-08T18:55:27Z</time>
      </trkpt>
      <trkpt lat="48.0451" lon="-3.19261">
        <ele>127.03137207031</ele>
        <time>2011-07-08T18:55:28Z</time>
      </trkpt>
      <trkpt lat="48.04508" lon="-3.19281">
        <ele>122.22473144531</ele>
        <time>2011-07-08T18:55:31Z</time>
      </trkpt>
      <trkpt lat="48.04499" lon="-3.19301">
        <ele>123.18615722656</ele>
        <time>2011-07-08T18:55:35Z</time>
      </trkpt>
      <trkpt lat="48.04494" lon="-3.19306">
        <ele>125.58935546875</ele>
        <time>2011-07-08T18:55:37Z</time>
      </trkpt>
      <trkpt lat="48.04488" lon="-3.19319">
        <ele>123.66674804688</ele>
        <time>2011-07-08T18:55:40Z</time>
      </trkpt>
      <trkpt lat="48.04485" lon="-3.19321">
        <ele>121.26354980469</ele>
        <time>2011-07-08T18:55:42Z</time>
      </trkpt>
      <trkpt lat="48.0448" lon="-3.19323">
        <ele>118.86010742188</ele>
        <time>2011-07-08T18:55:45Z</time>
      </trkpt>
      <trkpt lat="48.04468" lon="-3.19336">
        <ele>115.97619628906</ele>
        <time>2011-07-08T18:55:50Z</time>
      </trkpt>
      <trkpt lat="48.04459" lon="-3.19353">
        <ele>111.16955566406</ele>
        <time>2011-07-08T18:55:54Z</time>
      </trkpt>
      <trkpt lat="48.04445" lon="-3.19367">
        <ele>111.16955566406</ele>
        <time>2011-07-08T18:55:59Z</time>
      </trkpt>
      <trkpt lat="48.04435" lon="-3.19374">
        <ele>115.01489257812</ele>
        <time>2011-07-08T18:56:02Z</time>
      </trkpt>
      <trkpt lat="48.0443" lon="-3.1938">
        <ele>118.37939453125</ele>
        <time>2011-07-08T18:56:04Z</time>
      </trkpt>
      <trkpt lat="48.04427" lon="-3.19383">
        <ele>119.3408203125</ele>
        <time>2011-07-08T18:56:07Z</time>
      </trkpt>
      <trkpt lat="48.04414" lon="-3.1938">
        <ele>124.14733886719</ele>
        <time>2011-07-08T18:56:10Z</time>
      </trkpt>
      <trkpt lat="48.04401" lon="-3.19378">
        <ele>123.66674804688</ele>
        <time>2011-07-08T18:56:15Z</time>
      </trkpt>
      <trkpt lat="48.04393" lon="-3.19376">
        <ele>123.18615722656</ele>
        <time>2011-07-08T18:56:21Z</time>
      </trkpt>
      <trkpt lat="48.04385" lon="-3.19369">
        <ele>122.22473144531</ele>
        <time>2011-07-08T18:56:25Z</time>
      </trkpt>
      <trkpt lat="48.04372" lon="-3.19369">
        <ele>123.18615722656</ele>
        <time>2011-07-08T18:56:29Z</time>
      </trkpt>
      <trkpt lat="48.04366" lon="-3.19359">
        <ele>121.744140625</ele>
        <time>2011-07-08T18:56:33Z</time>
      </trkpt>
      <trkpt lat="48.04355" lon="-3.19356">
        <ele>121.744140625</ele>
        <time>2011-07-08T18:56:38Z</time>
      </trkpt>
      <trkpt lat="48.04352" lon="-3.19356">
        <ele>122.22473144531</ele>
        <time>2011-07-08T18:56:40Z</time>
      </trkpt>
      <trkpt lat="48.0435" lon="-3.19355">
        <ele>122.22473144531</ele>
        <time>2011-07-08T18:56:42Z</time>
      </trkpt>
      <trkpt lat="48.04345" lon="-3.19341">
        <ele>122.22473144531</ele>
        <time>2011-07-08T18:56:47Z</time>
      </trkpt>
      <trkpt lat="48.04343" lon="-3.19327">
        <ele>119.82141113281</ele>
        <time>2011-07-08T18:56:51Z</time>
      </trkpt>
      <trkpt lat="48.04336" lon="-3.1932">
        <ele>119.3408203125</ele>
        <time>2011-07-08T18:56:55Z</time>
      </trkpt>
      <trkpt lat="48.04331" lon="-3.19307">
        <ele>119.82141113281</ele>
        <time>2011-07-08T18:56:58Z</time>
      </trkpt>
      <trkpt lat="48.04326" lon="-3.19297">
        <ele>119.82141113281</ele>
        <time>2011-07-08T18:57:00Z</time>
      </trkpt>
      <trkpt lat="48.04325" lon="-3.19255">
        <ele>121.26354980469</ele>
        <time>2011-07-08T18:57:07Z</time>
      </trkpt>
      <trkpt lat="48.04327" lon="-3.1922">
        <ele>121.744140625</ele>
        <time>2011-07-08T18:57:13Z</time>
      </trkpt>
      <trkpt lat="48.04332" lon="-3.1918">
        <ele>121.744140625</ele>
        <time>2011-07-08T18:57:20Z</time>
      </trkpt>
      <trkpt lat="48.04336" lon="-3.19141">
        <ele>122.22473144531</ele>
        <time>2011-07-08T18:57:27Z</time>
      </trkpt>
      <trkpt lat="48.04339" lon="-3.191">
        <ele>122.22473144531</ele>
        <time>2011-07-08T18:57:35Z</time>
      </trkpt>
      <trkpt lat="48.04331" lon="-3.19081">
        <ele>122.70544433594</ele>
        <time>2011-07-08T18:57:40Z</time>
      </trkpt>
      <trkpt lat="48.04327" lon="-3.19079">
        <ele>122.70544433594</ele>
        <time>2011-07-08T18:57:44Z</time>
      </trkpt>
      <trkpt lat="48.04324" lon="-3.19077">
        <ele>122.70544433594</ele>
        <time>2011-07-08T18:57:47Z</time>
      </trkpt>
      <trkpt lat="48.04321" lon="-3.19079">
        <ele>123.18615722656</ele>
        <time>2011-07-08T18:57:53Z</time>
      </trkpt>
      <trkpt lat="48.04317" lon="-3.19087">
        <ele>125.58935546875</ele>
        <time>2011-07-08T18:58:00Z</time>
      </trkpt>
      <trkpt lat="48.04309" lon="-3.19086">
        <ele>126.06994628906</ele>
        <time>2011-07-08T18:58:06Z</time>
      </trkpt>
      <trkpt lat="48.04299" lon="-3.19078">
        <ele>125.58935546875</ele>
        <time>2011-07-08T18:58:10Z</time>
      </trkpt>
      <trkpt lat="48.04286" lon="-3.19065">
        <ele>126.06994628906</ele>
        <time>2011-07-08T18:58:16Z</time>
      </trkpt>
      <trkpt lat="48.04277" lon="-3.19058">
        <ele>127.03137207031</ele>
        <time>2011-07-08T18:58:20Z</time>
      </trkpt>
      <trkpt lat="48.04267" lon="-3.19047">
        <ele>127.03137207031</ele>
        <time>2011-07-08T18:58:24Z</time>
      </trkpt>
      <trkpt lat="48.0425" lon="-3.19032">
        <ele>130.39599609375</ele>
        <time>2011-07-08T18:58:30Z</time>
      </trkpt>
      <trkpt lat="48.04234" lon="-3.19017">
        <ele>133.27990722656</ele>
        <time>2011-07-08T18:58:35Z</time>
      </trkpt>
      <trkpt lat="48.04224" lon="-3.19004">
        <ele>128.9541015625</ele>
        <time>2011-07-08T18:58:40Z</time>
      </trkpt>
      <trkpt lat="48.04212" lon="-3.18996">
        <ele>126.55065917969</ele>
        <time>2011-07-08T18:58:44Z</time>
      </trkpt>
      <trkpt lat="48.04198" lon="-3.18983">
        <ele>126.55065917969</ele>
        <time>2011-07-08T18:58:49Z</time>
      </trkpt>
      <trkpt lat="48.04193" lon="-3.18977">
        <ele>127.99255371094</ele>
        <time>2011-07-08T18:58:51Z</time>
      </trkpt>
      <trkpt lat="48.04174" lon="-3.18963">
        <ele>127.99255371094</ele>
        <time>2011-07-08T18:58:58Z</time>
      </trkpt>
      <trkpt lat="48.04159" lon="-3.1895">
        <ele>125.10876464844</ele>
        <time>2011-07-08T18:59:04Z</time>
      </trkpt>
      <trkpt lat="48.04151" lon="-3.18942">
        <ele>123.66674804688</ele>
        <time>2011-07-08T18:59:08Z</time>
      </trkpt>
      <trkpt lat="48.04145" lon="-3.1894">
        <ele>122.70544433594</ele>
        <time>2011-07-08T18:59:11Z</time>
      </trkpt>
      <trkpt lat="48.04128" lon="-3.18942">
        <ele>123.66674804688</ele>
        <time>2011-07-08T18:59:17Z</time>
      </trkpt>
      <trkpt lat="48.0411" lon="-3.18942">
        <ele>123.18615722656</ele>
        <time>2011-07-08T18:59:23Z</time>
      </trkpt>
      <trkpt lat="48.04107" lon="-3.18942">
        <ele>122.22473144531</ele>
        <time>2011-07-08T18:59:24Z</time>
      </trkpt>
      <trkpt lat="48.04089" lon="-3.18947">
        <ele>121.744140625</ele>
        <time>2011-07-08T18:59:29Z</time>
      </trkpt>
      <trkpt lat="48.04071" lon="-3.18948">
        <ele>125.58935546875</ele>
        <time>2011-07-08T18:59:34Z</time>
      </trkpt>
      <trkpt lat="48.04066" lon="-3.18947">
        <ele>126.06994628906</ele>
        <time>2011-07-08T18:59:36Z</time>
      </trkpt>
      <trkpt lat="48.04057" lon="-3.18943">
        <ele>125.10876464844</ele>
        <time>2011-07-08T18:59:41Z</time>
      </trkpt>
      <trkpt lat="48.04055" lon="-3.18941">
        <ele>126.06994628906</ele>
        <time>2011-07-08T18:59:49Z</time>
      </trkpt>
      <trkpt lat="48.04053" lon="-3.18937">
        <ele>127.03137207031</ele>
        <time>2011-07-08T18:59:52Z</time>
      </trkpt>
      <trkpt lat="48.04051" lon="-3.18929">
        <ele>130.87670898438</ele>
        <time>2011-07-08T18:59:59Z</time>
      </trkpt>
      <trkpt lat="48.0405" lon="-3.18925">
        <ele>130.39599609375</ele>
        <time>2011-07-08T19:00:03Z</time>
      </trkpt>
      <trkpt lat="48.04049" lon="-3.18919">
        <ele>127.99255371094</ele>
        <time>2011-07-08T19:00:09Z</time>
      </trkpt>
      <trkpt lat="48.04047" lon="-3.18913">
        <ele>126.55065917969</ele>
        <time>2011-07-08T19:00:11Z</time>
      </trkpt>
      <trkpt lat="48.04042" lon="-3.18903">
        <ele>128.47338867188</ele>
        <time>2011-07-08T19:00:17Z</time>
      </trkpt>
      <trkpt lat="48.04041" lon="-3.18903">
        <ele>129.43469238281</ele>
        <time>2011-07-08T19:00:21Z</time>
      </trkpt>
      <trkpt lat="48.04038" lon="-3.189">
        <ele>134.72192382812</ele>
        <time>2011-07-08T19:00:28Z</time>
      </trkpt>
      <trkpt lat="48.04038" lon="-3.18899">
        <ele>136.16394042969</ele>
        <time>2011-07-08T19:00:33Z</time>
      </trkpt>
      <trkpt lat="48.04037" lon="-3.18896">
        <ele>137.60583496094</ele>
        <time>2011-07-08T19:00:41Z</time>
      </trkpt>
      <trkpt lat="48.04036" lon="-3.18894">
        <ele>137.60583496094</ele>
        <time>2011-07-08T19:00:42Z</time>
      </trkpt>
      <trkpt lat="48.04028" lon="-3.1888">
        <ele>136.16394042969</ele>
        <time>2011-07-08T19:00:48Z</time>
      </trkpt>
      <trkpt lat="48.04023" lon="-3.18867">
        <ele>136.16394042969</ele>
        <time>2011-07-08T19:00:52Z</time>
      </trkpt>
      <trkpt lat="48.04013" lon="-3.18853">
        <ele>136.16394042969</ele>
        <time>2011-07-08T19:00:56Z</time>
      </trkpt>
      <trkpt lat="48.04006" lon="-3.18838">
        <ele>136.64465332031</ele>
        <time>2011-07-08T19:01:00Z</time>
      </trkpt>
      <trkpt lat="48.04004" lon="-3.18831">
        <ele>136.16394042969</ele>
        <time>2011-07-08T19:01:02Z</time>
      </trkpt>
      <trkpt lat="48.03998" lon="-3.18813">
        <ele>136.16394042969</ele>
        <time>2011-07-08T19:01:07Z</time>
      </trkpt>
      <trkpt lat="48.04004" lon="-3.18799">
        <ele>134.72192382812</ele>
        <time>2011-07-08T19:01:11Z</time>
      </trkpt>
      <trkpt lat="48.04007" lon="-3.18795">
        <ele>134.72192382812</ele>
        <time>2011-07-08T19:01:12Z</time>
      </trkpt>
      <trkpt lat="48.0402" lon="-3.18781">
        <ele>132.79931640625</ele>
        <time>2011-07-08T19:01:17Z</time>
      </trkpt>
      <trkpt lat="48.0403" lon="-3.18772">
        <ele>132.31860351562</ele>
        <time>2011-07-08T19:01:21Z</time>
      </trkpt>
      <trkpt lat="48.04034" lon="-3.18768">
        <ele>136.16394042969</ele>
        <time>2011-07-08T19:01:23Z</time>
      </trkpt>
      <trkpt lat="48.0404" lon="-3.18758">
        <ele>138.08654785156</ele>
        <time>2011-07-08T19:01:27Z</time>
      </trkpt>
      <trkpt lat="48.04047" lon="-3.18737">
        <ele>140.97045898438</ele>
        <time>2011-07-08T19:01:32Z</time>
      </trkpt>
      <trkpt lat="48.04056" lon="-3.18713">
        <ele>146.2578125</ele>
        <time>2011-07-08T19:01:39Z</time>
      </trkpt>
      <trkpt lat="48.04062" lon="-3.18696">
        <ele>149.1416015625</ele>
        <time>2011-07-08T19:01:44Z</time>
      </trkpt>
      <trkpt lat="48.04064" lon="-3.18674">
        <ele>152.02575683594</ele>
        <time>2011-07-08T19:01:50Z</time>
      </trkpt>
      <trkpt lat="48.04063" lon="-3.18653">
        <ele>154.42895507812</ele>
        <time>2011-07-08T19:01:55Z</time>
      </trkpt>
      <trkpt lat="48.04062" lon="-3.18644">
        <ele>154.42895507812</ele>
        <time>2011-07-08T19:01:58Z</time>
      </trkpt>
      <trkpt lat="48.04062" lon="-3.18623">
        <ele>157.79357910156</ele>
        <time>2011-07-08T19:02:04Z</time>
      </trkpt>
      <trkpt lat="48.04063" lon="-3.18619">
        <ele>159.71618652344</ele>
        <time>2011-07-08T19:02:06Z</time>
      </trkpt>
      <trkpt lat="48.04073" lon="-3.18606">
        <ele>151.544921875</ele>
        <time>2011-07-08T19:02:12Z</time>
      </trkpt>
      <trkpt lat="48.04074" lon="-3.18601">
        <ele>150.10302734375</ele>
        <time>2011-07-08T19:02:14Z</time>
      </trkpt>
      <trkpt lat="48.04079" lon="-3.18586">
        <ele>143.85437011719</ele>
        <time>2011-07-08T19:02:19Z</time>
      </trkpt>
      <trkpt lat="48.04078" lon="-3.18575">
        <ele>142.41247558594</ele>
        <time>2011-07-08T19:02:25Z</time>
      </trkpt>
      <trkpt lat="48.04078" lon="-3.18558">
        <ele>139.52844238281</ele>
        <time>2011-07-08T19:02:28Z</time>
      </trkpt>
      <trkpt lat="48.04078" lon="-3.18551">
        <ele>136.16394042969</ele>
        <time>2011-07-08T19:02:34Z</time>
      </trkpt>
      <trkpt lat="48.04078" lon="-3.18555">
        <ele>136.16394042969</ele>
        <time>2011-07-08T19:02:37Z</time>
      </trkpt>
      <trkpt lat="48.04076" lon="-3.18565">
        <ele>129.43469238281</ele>
        <time>2011-07-08T19:02:43Z</time>
      </trkpt>
      <trkpt lat="48.0407" lon="-3.18565">
        <ele>126.55065917969</ele>
        <time>2011-07-08T19:02:47Z</time>
      </trkpt>
      <trkpt lat="48.04068" lon="-3.18564">
        <ele>124.62805175781</ele>
        <time>2011-07-08T19:02:50Z</time>
      </trkpt>
      <trkpt lat="48.04057" lon="-3.18558">
        <ele>126.06994628906</ele>
        <time>2011-07-08T19:02:56Z</time>
      </trkpt>
      <trkpt lat="48.04055" lon="-3.18558">
        <ele>127.03137207031</ele>
        <time>2011-07-08T19:02:58Z</time>
      </trkpt>
      <trkpt lat="48.04054" lon="-3.18561">
        <ele>128.47338867188</ele>
        <time>2011-07-08T19:03:03Z</time>
      </trkpt>
      <trkpt lat="48.04053" lon="-3.18561">
        <ele>128.9541015625</ele>
        <time>2011-07-08T19:03:04Z</time>
      </trkpt>
      <trkpt lat="48.04049" lon="-3.18568">
        <ele>134.2412109375</ele>
        <time>2011-07-08T19:03:10Z</time>
      </trkpt>
      <trkpt lat="48.04044" lon="-3.18583">
        <ele>137.12524414062</ele>
        <time>2011-07-08T19:03:16Z</time>
      </trkpt>
      <trkpt lat="48.04034" lon="-3.18602">
        <ele>140.00915527344</ele>
        <time>2011-07-08T19:03:22Z</time>
      </trkpt>
      <trkpt lat="48.0403" lon="-3.18609">
        <ele>140.97045898438</ele>
        <time>2011-07-08T19:03:25Z</time>
      </trkpt>
      <trkpt lat="48.04021" lon="-3.1863">
        <ele>138.08654785156</ele>
        <time>2011-07-08T19:03:31Z</time>
      </trkpt>
      <trkpt lat="48.04018" lon="-3.18634">
        <ele>136.64465332031</ele>
        <time>2011-07-08T19:03:34Z</time>
      </trkpt>
      <trkpt lat="48.04013" lon="-3.18637">
        <ele>136.16394042969</ele>
        <time>2011-07-08T19:03:40Z</time>
      </trkpt>
      <trkpt lat="48.04012" lon="-3.18632">
        <ele>137.12524414062</ele>
        <time>2011-07-08T19:03:44Z</time>
      </trkpt>
      <trkpt lat="48.04013" lon="-3.18622">
        <ele>138.56726074219</ele>
        <time>2011-07-08T19:03:49Z</time>
      </trkpt>
      <trkpt lat="48.04013" lon="-3.18612">
        <ele>139.0478515625</ele>
        <time>2011-07-08T19:03:54Z</time>
      </trkpt>
      <trkpt lat="48.04013" lon="-3.18609">
        <ele>140.97045898438</ele>
        <time>2011-07-08T19:03:56Z</time>
      </trkpt>
      <trkpt lat="48.04009" lon="-3.18595">
        <ele>145.29638671875</ele>
        <time>2011-07-08T19:04:02Z</time>
      </trkpt>
      <trkpt lat="48.04009" lon="-3.18592">
        <ele>145.29638671875</ele>
        <time>2011-07-08T19:04:03Z</time>
      </trkpt>
      <trkpt lat="48.04008" lon="-3.18576">
        <ele>148.18041992188</ele>
        <time>2011-07-08T19:04:09Z</time>
      </trkpt>
      <trkpt lat="48.04009" lon="-3.18571">
        <ele>148.66101074219</ele>
        <time>2011-07-08T19:04:11Z</time>
      </trkpt>
      <trkpt lat="48.0401" lon="-3.18565">
        <ele>148.18041992188</ele>
        <time>2011-07-08T19:04:13Z</time>
      </trkpt>
      <trkpt lat="48.04001" lon="-3.18559">
        <ele>149.62231445312</ele>
        <time>2011-07-08T19:04:19Z</time>
      </trkpt>
      <trkpt lat="48.03994" lon="-3.1855">
        <ele>149.1416015625</ele>
        <time>2011-07-08T19:04:24Z</time>
      </trkpt>
      <trkpt lat="48.03983" lon="-3.18539">
        <ele>146.73840332031</ele>
        <time>2011-07-08T19:04:28Z</time>
      </trkpt>
      <trkpt lat="48.03978" lon="-3.18535">
        <ele>143.37365722656</ele>
        <time>2011-07-08T19:04:34Z</time>
      </trkpt>
      <trkpt lat="48.03965" lon="-3.18535">
        <ele>140.00915527344</ele>
        <time>2011-07-08T19:04:40Z</time>
      </trkpt>
      <trkpt lat="48.03958" lon="-3.18543">
        <ele>139.52844238281</ele>
        <time>2011-07-08T19:04:46Z</time>
      </trkpt>
      <trkpt lat="48.03955" lon="-3.18544">
        <ele>139.0478515625</ele>
        <time>2011-07-08T19:04:48Z</time>
      </trkpt>
      <trkpt lat="48.03939" lon="-3.18544">
        <ele>140.97045898438</ele>
        <time>2011-07-08T19:04:54Z</time>
      </trkpt>
      <trkpt lat="48.03923" lon="-3.18541">
        <ele>140.97045898438</ele>
        <time>2011-07-08T19:05:00Z</time>
      </trkpt>
      <trkpt lat="48.03909" lon="-3.1854">
        <ele>143.37365722656</ele>
        <time>2011-07-08T19:05:06Z</time>
      </trkpt>
      <trkpt lat="48.039" lon="-3.18541">
        <ele>143.37365722656</ele>
        <time>2011-07-08T19:05:12Z</time>
      </trkpt>
      <trkpt lat="48.03896" lon="-3.18543">
        <ele>144.33520507812</ele>
        <time>2011-07-08T19:05:19Z</time>
      </trkpt>
      <trkpt lat="48.03892" lon="-3.18544">
        <ele>144.81579589844</ele>
        <time>2011-07-08T19:05:27Z</time>
      </trkpt>
      <trkpt lat="48.03889" lon="-3.18546">
        <ele>143.85437011719</ele>
        <time>2011-07-08T19:05:31Z</time>
      </trkpt>
      <trkpt lat="48.03885" lon="-3.18548">
        <ele>145.29638671875</ele>
        <time>2011-07-08T19:05:38Z</time>
      </trkpt>
      <trkpt lat="48.03883" lon="-3.18549">
        <ele>145.77709960938</ele>
        <time>2011-07-08T19:05:39Z</time>
      </trkpt>
      <trkpt lat="48.03874" lon="-3.18555">
        <ele>146.73840332031</ele>
        <time>2011-07-08T19:05:45Z</time>
      </trkpt>
      <trkpt lat="48.03872" lon="-3.18559">
        <ele>148.18041992188</ele>
        <time>2011-07-08T19:05:50Z</time>
      </trkpt>
      <trkpt lat="48.03871" lon="-3.18564">
        <ele>151.544921875</ele>
        <time>2011-07-08T19:05:56Z</time>
      </trkpt>
      <trkpt lat="48.0387" lon="-3.18569">
        <ele>155.87097167969</ele>
        <time>2011-07-08T19:06:01Z</time>
      </trkpt>
      <trkpt lat="48.03871" lon="-3.18582">
        <ele>155.87097167969</ele>
        <time>2011-07-08T19:06:09Z</time>
      </trkpt>
      <trkpt lat="48.03873" lon="-3.18592">
        <ele>153.94836425781</ele>
        <time>2011-07-08T19:06:15Z</time>
      </trkpt>
      <trkpt lat="48.03875" lon="-3.18601">
        <ele>154.42895507812</ele>
        <time>2011-07-08T19:06:21Z</time>
      </trkpt>
      <trkpt lat="48.03878" lon="-3.18606">
        <ele>154.42895507812</ele>
        <time>2011-07-08T19:06:26Z</time>
      </trkpt>
      <trkpt lat="48.0388" lon="-3.18607">
        <ele>154.42895507812</ele>
        <time>2011-07-08T19:06:28Z</time>
      </trkpt>
      <trkpt lat="48.03882" lon="-3.1861">
        <ele>155.39025878906</ele>
        <time>2011-07-08T19:06:35Z</time>
      </trkpt>
      <trkpt lat="48.03888" lon="-3.18615">
        <ele>156.3515625</ele>
        <time>2011-07-08T19:06:40Z</time>
      </trkpt>
      <trkpt lat="48.03891" lon="-3.18619">
        <ele>156.3515625</ele>
        <time>2011-07-08T19:06:42Z</time>
      </trkpt>
      <trkpt lat="48.03892" lon="-3.18626">
        <ele>154.90954589844</ele>
        <time>2011-07-08T19:06:46Z</time>
      </trkpt>
      <trkpt lat="48.03894" lon="-3.18634">
        <ele>151.06420898438</ele>
        <time>2011-07-08T19:06:51Z</time>
      </trkpt>
      <trkpt lat="48.03896" lon="-3.1864">
        <ele>150.10302734375</ele>
        <time>2011-07-08T19:06:55Z</time>
      </trkpt>
      <trkpt lat="48.03897" lon="-3.18643">
        <ele>151.06420898438</ele>
        <time>2011-07-08T19:07:02Z</time>
      </trkpt>
      <trkpt lat="48.03896" lon="-3.18643">
        <ele>152.98693847656</ele>
        <time>2011-07-08T19:07:09Z</time>
      </trkpt>
      <trkpt lat="48.03895" lon="-3.18643">
        <ele>153.46765136719</ele>
        <time>2011-07-08T19:07:14Z</time>
      </trkpt>
      <trkpt lat="48.03895" lon="-3.18644">
        <ele>153.94836425781</ele>
        <time>2011-07-08T19:07:19Z</time>
      </trkpt>
      <trkpt lat="48.03895" lon="-3.18644">
        <ele>153.94836425781</ele>
        <time>2011-07-08T19:07:21Z</time>
      </trkpt>
      <trkpt lat="48.03899" lon="-3.18648">
        <ele>154.90954589844</ele>
        <time>2011-07-08T19:07:42Z</time>
      </trkpt>
      <trkpt lat="48.03906" lon="-3.18654">
        <ele>155.39025878906</ele>
        <time>2011-07-08T19:07:46Z</time>
      </trkpt>
      <trkpt lat="48.03909" lon="-3.18658">
        <ele>154.90954589844</ele>
        <time>2011-07-08T19:07:48Z</time>
      </trkpt>
      <trkpt lat="48.03915" lon="-3.18673">
        <ele>152.50634765625</ele>
        <time>2011-07-08T19:07:55Z</time>
      </trkpt>
      <trkpt lat="48.03918" lon="-3.18674">
        <ele>152.02575683594</ele>
        <time>2011-07-08T19:07:57Z</time>
      </trkpt>
      <trkpt lat="48.03924" lon="-3.18671">
        <ele>151.06420898438</ele>
        <time>2011-07-08T19:08:00Z</time>
      </trkpt>
      <trkpt lat="48.03927" lon="-3.18674">
        <ele>149.62231445312</ele>
        <time>2011-07-08T19:08:03Z</time>
      </trkpt>
      <trkpt lat="48.0393" lon="-3.18676">
        <ele>147.69970703125</ele>
        <time>2011-07-08T19:08:06Z</time>
      </trkpt>
      <trkpt lat="48.0393" lon="-3.18677">
        <ele>145.77709960938</ele>
        <time>2011-07-08T19:08:08Z</time>
      </trkpt>
      <trkpt lat="48.0393" lon="-3.18694">
        <ele>141.45104980469</ele>
        <time>2011-07-08T19:08:13Z</time>
      </trkpt>
      <trkpt lat="48.03929" lon="-3.18705">
        <ele>139.52844238281</ele>
        <time>2011-07-08T19:08:17Z</time>
      </trkpt>
      <trkpt lat="48.0393" lon="-3.18718">
        <ele>136.64465332031</ele>
        <time>2011-07-08T19:08:22Z</time>
      </trkpt>
      <trkpt lat="48.03928" lon="-3.18724">
        <ele>137.12524414062</ele>
        <time>2011-07-08T19:08:25Z</time>
      </trkpt>
      <trkpt lat="48.03927" lon="-3.18728">
        <ele>136.16394042969</ele>
        <time>2011-07-08T19:08:27Z</time>
      </trkpt>
      <trkpt lat="48.03922" lon="-3.18744">
        <ele>136.64465332031</ele>
        <time>2011-07-08T19:08:34Z</time>
      </trkpt>
      <trkpt lat="48.03917" lon="-3.18762">
        <ele>135.20251464844</ele>
        <time>2011-07-08T19:08:38Z</time>
      </trkpt>
      <trkpt lat="48.03911" lon="-3.1879">
        <ele>130.87670898438</ele>
        <time>2011-07-08T19:08:43Z</time>
      </trkpt>
      <trkpt lat="48.03897" lon="-3.18804">
        <ele>128.9541015625</ele>
        <time>2011-07-08T19:08:48Z</time>
      </trkpt>
      <trkpt lat="48.03882" lon="-3.18807">
        <ele>129.91528320312</ele>
        <time>2011-07-08T19:08:52Z</time>
      </trkpt>
      <trkpt lat="48.03867" lon="-3.18809">
        <ele>132.79931640625</ele>
        <time>2011-07-08T19:08:55Z</time>
      </trkpt>
      <trkpt lat="48.03849" lon="-3.18807">
        <ele>136.16394042969</ele>
        <time>2011-07-08T19:08:59Z</time>
      </trkpt>
      <trkpt lat="48.03833" lon="-3.18807">
        <ele>139.52844238281</ele>
        <time>2011-07-08T19:09:03Z</time>
      </trkpt>
      <trkpt lat="48.03813" lon="-3.18804">
        <ele>140.97045898438</ele>
        <time>2011-07-08T19:09:10Z</time>
      </trkpt>
      <trkpt lat="48.03802" lon="-3.18801">
        <ele>141.93176269531</ele>
        <time>2011-07-08T19:09:15Z</time>
      </trkpt>
      <trkpt lat="48.03796" lon="-3.18797">
        <ele>141.93176269531</ele>
        <time>2011-07-08T19:09:18Z</time>
      </trkpt>
      <trkpt lat="48.0379" lon="-3.18791">
        <ele>141.93176269531</ele>
        <time>2011-07-08T19:09:22Z</time>
      </trkpt>
      <trkpt lat="48.03785" lon="-3.18781">
        <ele>142.41247558594</ele>
        <time>2011-07-08T19:09:27Z</time>
      </trkpt>
      <trkpt lat="48.03778" lon="-3.18765">
        <ele>140.97045898438</ele>
        <time>2011-07-08T19:09:33Z</time>
      </trkpt>
      <trkpt lat="48.03776" lon="-3.18753">
        <ele>137.60583496094</ele>
        <time>2011-07-08T19:09:39Z</time>
      </trkpt>
      <trkpt lat="48.03773" lon="-3.18751">
        <ele>139.0478515625</ele>
        <time>2011-07-08T19:09:41Z</time>
      </trkpt>
      <trkpt lat="48.0377" lon="-3.18747">
        <ele>140.48986816406</ele>
        <time>2011-07-08T19:09:44Z</time>
      </trkpt>
      <trkpt lat="48.03758" lon="-3.18736">
        <ele>143.85437011719</ele>
        <time>2011-07-08T19:09:51Z</time>
      </trkpt>
      <trkpt lat="48.03748" lon="-3.18725">
        <ele>149.1416015625</ele>
        <time>2011-07-08T19:09:56Z</time>
      </trkpt>
      <trkpt lat="48.03749" lon="-3.18722">
        <ele>148.18041992188</ele>
        <time>2011-07-08T19:09:57Z</time>
      </trkpt>
      <trkpt lat="48.0374" lon="-3.18712">
        <ele>147.21899414062</ele>
        <time>2011-07-08T19:10:02Z</time>
      </trkpt>
      <trkpt lat="48.0374" lon="-3.18711">
        <ele>148.18041992188</ele>
        <time>2011-07-08T19:10:04Z</time>
      </trkpt>
      <trkpt lat="48.03734" lon="-3.18706">
        <ele>147.21899414062</ele>
        <time>2011-07-08T19:10:11Z</time>
      </trkpt>
      <trkpt lat="48.0373" lon="-3.18705">
        <ele>147.69970703125</ele>
        <time>2011-07-08T19:10:16Z</time>
      </trkpt>
      <trkpt lat="48.03728" lon="-3.18705">
        <ele>147.69970703125</ele>
        <time>2011-07-08T19:10:18Z</time>
      </trkpt>
      <trkpt lat="48.03726" lon="-3.18702">
        <ele>147.21899414062</ele>
        <time>2011-07-08T19:10:27Z</time>
      </trkpt>
      <trkpt lat="48.03722" lon="-3.18697">
        <ele>147.21899414062</ele>
        <time>2011-07-08T19:10:32Z</time>
      </trkpt>
      <trkpt lat="48.03714" lon="-3.18684">
        <ele>152.02575683594</ele>
        <time>2011-07-08T19:10:39Z</time>
      </trkpt>
      <trkpt lat="48.03702" lon="-3.18673">
        <ele>155.87097167969</ele>
        <time>2011-07-08T19:10:45Z</time>
      </trkpt>
      <trkpt lat="48.03691" lon="-3.18662">
        <ele>159.71618652344</ele>
        <time>2011-07-08T19:10:50Z</time>
      </trkpt>
      <trkpt lat="48.03683" lon="-3.18653">
        <ele>160.67749023438</ele>
        <time>2011-07-08T19:10:55Z</time>
      </trkpt>
      <trkpt lat="48.03678" lon="-3.1865">
        <ele>157.79357910156</ele>
        <time>2011-07-08T19:11:01Z</time>
      </trkpt>
      <trkpt lat="48.03677" lon="-3.18653">
        <ele>156.83215332031</ele>
        <time>2011-07-08T19:11:03Z</time>
      </trkpt>
      <trkpt lat="48.03671" lon="-3.18658">
        <ele>155.87097167969</ele>
        <time>2011-07-08T19:11:07Z</time>
      </trkpt>
      <trkpt lat="48.03669" lon="-3.18661">
        <ele>155.39025878906</ele>
        <time>2011-07-08T19:11:11Z</time>
      </trkpt>
      <trkpt lat="48.03668" lon="-3.18663">
        <ele>155.87097167969</ele>
        <time>2011-07-08T19:11:15Z</time>
      </trkpt>
      <trkpt lat="48.03671" lon="-3.18667">
        <ele>153.46765136719</ele>
        <time>2011-07-08T19:11:20Z</time>
      </trkpt>
      <trkpt lat="48.03669" lon="-3.1867">
        <ele>155.39025878906</ele>
        <time>2011-07-08T19:11:25Z</time>
      </trkpt>
      <trkpt lat="48.0367" lon="-3.18673">
        <ele>152.50634765625</ele>
        <time>2011-07-08T19:11:29Z</time>
      </trkpt>
      <trkpt lat="48.03672" lon="-3.18681">
        <ele>150.10302734375</ele>
        <time>2011-07-08T19:11:35Z</time>
      </trkpt>
      <trkpt lat="48.03675" lon="-3.18688">
        <ele>148.18041992188</ele>
        <time>2011-07-08T19:11:42Z</time>
      </trkpt>
      <trkpt lat="48.03676" lon="-3.1869">
        <ele>148.18041992188</ele>
        <time>2011-07-08T19:11:43Z</time>
      </trkpt>
      <trkpt lat="48.03677" lon="-3.18694">
        <ele>149.1416015625</ele>
        <time>2011-07-08T19:11:45Z</time>
      </trkpt>
      <trkpt lat="48.03677" lon="-3.18704">
        <ele>150.10302734375</ele>
        <time>2011-07-08T19:11:49Z</time>
      </trkpt>
      <trkpt lat="48.03683" lon="-3.18723">
        <ele>147.21899414062</ele>
        <time>2011-07-08T19:11:55Z</time>
      </trkpt>
      <trkpt lat="48.0369" lon="-3.18738">
        <ele>141.45104980469</ele>
        <time>2011-07-08T19:12:00Z</time>
      </trkpt>
      <trkpt lat="48.03696" lon="-3.18749">
        <ele>139.52844238281</ele>
        <time>2011-07-08T19:12:04Z</time>
      </trkpt>
      <trkpt lat="48.03699" lon="-3.18755">
        <ele>137.12524414062</ele>
        <time>2011-07-08T19:12:07Z</time>
      </trkpt>
      <trkpt lat="48.03703" lon="-3.18774">
        <ele>136.16394042969</ele>
        <time>2011-07-08T19:12:14Z</time>
      </trkpt>
      <trkpt lat="48.03701" lon="-3.18776">
        <ele>138.08654785156</ele>
        <time>2011-07-08T19:12:15Z</time>
      </trkpt>
      <trkpt lat="48.03701" lon="-3.18788">
        <ele>136.16394042969</ele>
        <time>2011-07-08T19:12:19Z</time>
      </trkpt>
      <trkpt lat="48.03698" lon="-3.18792">
        <ele>137.12524414062</ele>
        <time>2011-07-08T19:12:21Z</time>
      </trkpt>
      <trkpt lat="48.0369" lon="-3.18795">
        <ele>139.52844238281</ele>
        <time>2011-07-08T19:12:25Z</time>
      </trkpt>
      <trkpt lat="48.0367" lon="-3.18798">
        <ele>145.29638671875</ele>
        <time>2011-07-08T19:12:34Z</time>
      </trkpt>
      <trkpt lat="48.03652" lon="-3.18802">
        <ele>149.1416015625</ele>
        <time>2011-07-08T19:12:42Z</time>
      </trkpt>
      <trkpt lat="48.03639" lon="-3.18801">
        <ele>151.544921875</ele>
        <time>2011-07-08T19:12:48Z</time>
      </trkpt>
      <trkpt lat="48.0362" lon="-3.18797">
        <ele>153.94836425781</ele>
        <time>2011-07-08T19:12:56Z</time>
      </trkpt>
      <trkpt lat="48.03609" lon="-3.1879">
        <ele>155.39025878906</ele>
        <time>2011-07-08T19:13:01Z</time>
      </trkpt>
      <trkpt lat="48.03595" lon="-3.1878">
        <ele>156.3515625</ele>
        <time>2011-07-08T19:13:07Z</time>
      </trkpt>
      <trkpt lat="48.03584" lon="-3.18774">
        <ele>157.31286621094</ele>
        <time>2011-07-08T19:13:12Z</time>
      </trkpt>
      <trkpt lat="48.03573" lon="-3.18764">
        <ele>157.79357910156</ele>
        <time>2011-07-08T19:13:18Z</time>
      </trkpt>
      <trkpt lat="48.03565" lon="-3.18742">
        <ele>157.31286621094</ele>
        <time>2011-07-08T19:13:24Z</time>
      </trkpt>
      <trkpt lat="48.03559" lon="-3.18715">
        <ele>153.94836425781</ele>
        <time>2011-07-08T19:13:29Z</time>
      </trkpt>
      <trkpt lat="48.03553" lon="-3.18667">
        <ele>150.58361816406</ele>
        <time>2011-07-08T19:13:35Z</time>
      </trkpt>
      <trkpt lat="48.03544" lon="-3.18606">
        <ele>148.18041992188</ele>
        <time>2011-07-08T19:13:43Z</time>
      </trkpt>
      <trkpt lat="48.03538" lon="-3.18572">
        <ele>148.18041992188</ele>
        <time>2011-07-08T19:13:49Z</time>
      </trkpt>
      <trkpt lat="48.03532" lon="-3.18538">
        <ele>148.18041992188</ele>
        <time>2011-07-08T19:13:56Z</time>
      </trkpt>
      <trkpt lat="48.03525" lon="-3.18506">
        <ele>152.02575683594</ele>
        <time>2011-07-08T19:14:04Z</time>
      </trkpt>
      <trkpt lat="48.03518" lon="-3.1849">
        <ele>153.94836425781</ele>
        <time>2011-07-08T19:14:09Z</time>
      </trkpt>
      <trkpt lat="48.03511" lon="-3.18475">
        <ele>156.83215332031</ele>
        <time>2011-07-08T19:14:14Z</time>
      </trkpt>
      <trkpt lat="48.03505" lon="-3.18466">
        <ele>160.19689941406</ele>
        <time>2011-07-08T19:14:17Z</time>
      </trkpt>
      <trkpt lat="48.035" lon="-3.18455">
        <ele>160.19689941406</ele>
        <time>2011-07-08T19:14:20Z</time>
      </trkpt>
      <trkpt lat="48.03497" lon="-3.18449">
        <ele>160.19689941406</ele>
        <time>2011-07-08T19:14:22Z</time>
      </trkpt>
      <trkpt lat="48.03485" lon="-3.18423">
        <ele>161.158203125</ele>
        <time>2011-07-08T19:14:29Z</time>
      </trkpt>
      <trkpt lat="48.0348" lon="-3.18403">
        <ele>161.158203125</ele>
        <time>2011-07-08T19:14:34Z</time>
      </trkpt>
      <trkpt lat="48.03476" lon="-3.18377">
        <ele>161.158203125</ele>
        <time>2011-07-08T19:14:40Z</time>
      </trkpt>
      <trkpt lat="48.03473" lon="-3.18351">
        <ele>159.23547363281</ele>
        <time>2011-07-08T19:14:46Z</time>
      </trkpt>
      <trkpt lat="48.03469" lon="-3.18344">
        <ele>160.19689941406</ele>
        <time>2011-07-08T19:14:50Z</time>
      </trkpt>
      <trkpt lat="48.03466" lon="-3.18338">
        <ele>161.63891601562</ele>
        <time>2011-07-08T19:14:56Z</time>
      </trkpt>
      <trkpt lat="48.03466" lon="-3.18339">
        <ele>162.60009765625</ele>
        <time>2011-07-08T19:15:02Z</time>
      </trkpt>
      <trkpt lat="48.03466" lon="-3.18339">
        <ele>161.63891601562</ele>
        <time>2011-07-08T19:15:07Z</time>
      </trkpt>
      <trkpt lat="48.03466" lon="-3.18339">
        <ele>162.11950683594</ele>
        <time>2011-07-08T19:15:10Z</time>
      </trkpt>
      <trkpt lat="48.03465" lon="-3.18339">
        <ele>163.08081054688</ele>
        <time>2011-07-08T19:15:18Z</time>
      </trkpt>
      <trkpt lat="48.03464" lon="-3.18338">
        <ele>165.00341796875</ele>
        <time>2011-07-08T19:15:26Z</time>
      </trkpt>
      <trkpt lat="48.03463" lon="-3.18337">
        <ele>166.4453125</ele>
        <time>2011-07-08T19:15:29Z</time>
      </trkpt>
      <trkpt lat="48.03462" lon="-3.18337">
        <ele>166.4453125</ele>
        <time>2011-07-08T19:15:35Z</time>
      </trkpt>
      <trkpt lat="48.03461" lon="-3.18338">
        <ele>167.40673828125</ele>
        <time>2011-07-08T19:15:45Z</time>
      </trkpt>
      <trkpt lat="48.03461" lon="-3.18337">
        <ele>166.92602539062</ele>
        <time>2011-07-08T19:15:55Z</time>
      </trkpt>
      <trkpt lat="48.03462" lon="-3.18337">
        <ele>168.84875488281</ele>
        <time>2011-07-08T19:16:03Z</time>
      </trkpt>
      <trkpt lat="48.03464" lon="-3.18338">
        <ele>168.84875488281</ele>
        <time>2011-07-08T19:16:12Z</time>
      </trkpt>
      <trkpt lat="48.03464" lon="-3.1834">
        <ele>169.81005859375</ele>
        <time>2011-07-08T19:16:18Z</time>
      </trkpt>
      <trkpt lat="48.03466" lon="-3.18341">
        <ele>165.48413085938</ele>
        <time>2011-07-08T19:16:23Z</time>
      </trkpt>
      <trkpt lat="48.03467" lon="-3.18344">
        <ele>160.67749023438</ele>
        <time>2011-07-08T19:16:34Z</time>
      </trkpt>
      <trkpt lat="48.03466" lon="-3.18345">
        <ele>161.158203125</ele>
        <time>2011-07-08T19:16:41Z</time>
      </trkpt>
      <trkpt lat="48.03465" lon="-3.18344">
        <ele>161.158203125</ele>
        <time>2011-07-08T19:16:43Z</time>
      </trkpt>
      <trkpt lat="48.03465" lon="-3.18343">
        <ele>160.19689941406</ele>
        <time>2011-07-08T19:16:51Z</time>
      </trkpt>
      <trkpt lat="48.03464" lon="-3.18342">
        <ele>161.158203125</ele>
        <time>2011-07-08T19:16:59Z</time>
      </trkpt>
      <trkpt lat="48.03463" lon="-3.1834">
        <ele>163.5615234375</ele>
        <time>2011-07-08T19:17:17Z</time>
      </trkpt>
      <trkpt lat="48.03461" lon="-3.18341">
        <ele>165.96472167969</ele>
        <time>2011-07-08T19:17:26Z</time>
      </trkpt>
      <trkpt lat="48.03463" lon="-3.18341">
        <ele>162.60009765625</ele>
        <time>2011-07-08T19:17:35Z</time>
      </trkpt>
      <trkpt lat="48.03464" lon="-3.18342">
        <ele>162.60009765625</ele>
        <time>2011-07-08T19:17:41Z</time>
      </trkpt>
      <trkpt lat="48.03462" lon="-3.18341">
        <ele>165.00341796875</ele>
        <time>2011-07-08T19:17:48Z</time>
      </trkpt>
      <trkpt lat="48.03461" lon="-3.18339">
        <ele>166.4453125</ele>
        <time>2011-07-08T19:17:52Z</time>
      </trkpt>
      <trkpt lat="48.03463" lon="-3.1834">
        <ele>165.48413085938</ele>
        <time>2011-07-08T19:17:56Z</time>
      </trkpt>
      <trkpt lat="48.03463" lon="-3.1834">
        <ele>165.00341796875</ele>
        <time>2011-07-08T19:17:59Z</time>
      </trkpt>
      <trkpt lat="48.03461" lon="-3.18337">
        <ele>167.88732910156</ele>
        <time>2011-07-08T19:18:04Z</time>
      </trkpt>
      <trkpt lat="48.0346" lon="-3.18339">
        <ele>168.36804199219</ele>
        <time>2011-07-08T19:18:09Z</time>
      </trkpt>
      <trkpt lat="48.03461" lon="-3.18337">
        <ele>166.4453125</ele>
        <time>2011-07-08T19:18:21Z</time>
      </trkpt>
      <trkpt lat="48.03463" lon="-3.18338">
        <ele>164.04211425781</ele>
        <time>2011-07-08T19:18:25Z</time>
      </trkpt>
      <trkpt lat="48.03465" lon="-3.18337">
        <ele>163.5615234375</ele>
        <time>2011-07-08T19:18:29Z</time>
      </trkpt>
      <trkpt lat="48.03466" lon="-3.1834">
        <ele>163.08081054688</ele>
        <time>2011-07-08T19:18:34Z</time>
      </trkpt>
      <trkpt lat="48.03466" lon="-3.1834">
        <ele>163.08081054688</ele>
        <time>2011-07-08T19:18:42Z</time>
      </trkpt>
      <trkpt lat="48.03466" lon="-3.18341">
        <ele>163.5615234375</ele>
        <time>2011-07-08T19:18:54Z</time>
      </trkpt>
      <trkpt lat="48.03477" lon="-3.1835">
        <ele>160.67749023438</ele>
        <time>2011-07-08T19:19:01Z</time>
      </trkpt>
      <trkpt lat="48.03489" lon="-3.18347">
        <ele>158.75476074219</ele>
        <time>2011-07-08T19:19:05Z</time>
      </trkpt>
      <trkpt lat="48.03492" lon="-3.18345">
        <ele>158.75476074219</ele>
        <time>2011-07-08T19:19:06Z</time>
      </trkpt>
      <trkpt lat="48.03496" lon="-3.18343">
        <ele>158.75476074219</ele>
        <time>2011-07-08T19:19:07Z</time>
      </trkpt>
      <trkpt lat="48.03524" lon="-3.18337">
        <ele>157.79357910156</ele>
        <time>2011-07-08T19:19:14Z</time>
      </trkpt>
      <trkpt lat="48.03552" lon="-3.1834">
        <ele>158.75476074219</ele>
        <time>2011-07-08T19:19:21Z</time>
      </trkpt>
      <trkpt lat="48.03564" lon="-3.18338">
        <ele>159.71618652344</ele>
        <time>2011-07-08T19:19:24Z</time>
      </trkpt>
      <trkpt lat="48.03585" lon="-3.18328">
        <ele>161.158203125</ele>
        <time>2011-07-08T19:19:28Z</time>
      </trkpt>
      <trkpt lat="48.03593" lon="-3.18319">
        <ele>161.63891601562</ele>
        <time>2011-07-08T19:19:30Z</time>
      </trkpt>
      <trkpt lat="48.03603" lon="-3.18306">
        <ele>162.11950683594</ele>
        <time>2011-07-08T19:19:33Z</time>
      </trkpt>
      <trkpt lat="48.03614" lon="-3.18293">
        <ele>162.60009765625</ele>
        <time>2011-07-08T19:19:36Z</time>
      </trkpt>
      <trkpt lat="48.03643" lon="-3.18262">
        <ele>161.63891601562</ele>
        <time>2011-07-08T19:19:44Z</time>
      </trkpt>
      <trkpt lat="48.0367" lon="-3.18232">
        <ele>158.75476074219</ele>
        <time>2011-07-08T19:19:50Z</time>
      </trkpt>
      <trkpt lat="48.03698" lon="-3.18197">
        <ele>155.39025878906</ele>
        <time>2011-07-08T19:19:56Z</time>
      </trkpt>
      <trkpt lat="48.03703" lon="-3.18191">
        <ele>154.42895507812</ele>
        <time>2011-07-08T19:19:57Z</time>
      </trkpt>
      <trkpt lat="48.03726" lon="-3.18183">
        <ele>152.98693847656</ele>
        <time>2011-07-08T19:20:01Z</time>
      </trkpt>
      <trkpt lat="48.03732" lon="-3.18186">
        <ele>152.02575683594</ele>
        <time>2011-07-08T19:20:02Z</time>
      </trkpt>
      <trkpt lat="48.03742" lon="-3.18191">
        <ele>151.06420898438</ele>
        <time>2011-07-08T19:20:04Z</time>
      </trkpt>
      <trkpt lat="48.03759" lon="-3.18198">
        <ele>151.544921875</ele>
        <time>2011-07-08T19:20:09Z</time>
      </trkpt>
      <trkpt lat="48.03764" lon="-3.18197">
        <ele>151.06420898438</ele>
        <time>2011-07-08T19:20:11Z</time>
      </trkpt>
      <trkpt lat="48.03773" lon="-3.18184">
        <ele>149.62231445312</ele>
        <time>2011-07-08T19:20:17Z</time>
      </trkpt>
      <trkpt lat="48.03774" lon="-3.18183">
        <ele>149.1416015625</ele>
        <time>2011-07-08T19:20:18Z</time>
      </trkpt>
      <trkpt lat="48.03781" lon="-3.18175">
        <ele>151.544921875</ele>
        <time>2011-07-08T19:20:24Z</time>
      </trkpt>
      <trkpt lat="48.0379" lon="-3.18162">
        <ele>152.98693847656</ele>
        <time>2011-07-08T19:20:28Z</time>
      </trkpt>
      <trkpt lat="48.03793" lon="-3.18159">
        <ele>153.94836425781</ele>
        <time>2011-07-08T19:20:29Z</time>
      </trkpt>
      <trkpt lat="48.03818" lon="-3.18139">
        <ele>154.90954589844</ele>
        <time>2011-07-08T19:20:36Z</time>
      </trkpt>
      <trkpt lat="48.03822" lon="-3.18137">
        <ele>155.39025878906</ele>
        <time>2011-07-08T19:20:37Z</time>
      </trkpt>
      <trkpt lat="48.03833" lon="-3.18132">
        <ele>153.94836425781</ele>
        <time>2011-07-08T19:20:39Z</time>
      </trkpt>
      <trkpt lat="48.03854" lon="-3.18129">
        <ele>153.94836425781</ele>
        <time>2011-07-08T19:20:43Z</time>
      </trkpt>
      <trkpt lat="48.03866" lon="-3.18129">
        <ele>152.50634765625</ele>
        <time>2011-07-08T19:20:47Z</time>
      </trkpt>
      <trkpt lat="48.0388" lon="-3.18136">
        <ele>151.544921875</ele>
        <time>2011-07-08T19:20:51Z</time>
      </trkpt>
      <trkpt lat="48.03887" lon="-3.18145">
        <ele>149.62231445312</ele>
        <time>2011-07-08T19:20:54Z</time>
      </trkpt>
      <trkpt lat="48.03892" lon="-3.18148">
        <ele>149.1416015625</ele>
        <time>2011-07-08T19:20:56Z</time>
      </trkpt>
      <trkpt lat="48.03896" lon="-3.1815">
        <ele>150.58361816406</ele>
        <time>2011-07-08T19:21:01Z</time>
      </trkpt>
      <trkpt lat="48.03899" lon="-3.18153">
        <ele>151.544921875</ele>
        <time>2011-07-08T19:21:05Z</time>
      </trkpt>
      <trkpt lat="48.03898" lon="-3.18156">
        <ele>151.544921875</ele>
        <time>2011-07-08T19:21:08Z</time>
      </trkpt>
      <trkpt lat="48.03898" lon="-3.18158">
        <ele>152.02575683594</ele>
        <time>2011-07-08T19:21:10Z</time>
      </trkpt>
      <trkpt lat="48.03899" lon="-3.18159">
        <ele>151.544921875</ele>
        <time>2011-07-08T19:21:11Z</time>
      </trkpt>
      <trkpt lat="48.03899" lon="-3.18161">
        <ele>151.06420898438</ele>
        <time>2011-07-08T19:21:12Z</time>
      </trkpt>
      <trkpt lat="48.03905" lon="-3.18178">
        <ele>147.21899414062</ele>
        <time>2011-07-08T19:21:17Z</time>
      </trkpt>
      <trkpt lat="48.03908" lon="-3.18199">
        <ele>143.37365722656</ele>
        <time>2011-07-08T19:21:21Z</time>
      </trkpt>
      <trkpt lat="48.03909" lon="-3.18204">
        <ele>142.89306640625</ele>
        <time>2011-07-08T19:21:22Z</time>
      </trkpt>
      <trkpt lat="48.03918" lon="-3.18229">
        <ele>140.97045898438</ele>
        <time>2011-07-08T19:21:27Z</time>
      </trkpt>
      <trkpt lat="48.03917" lon="-3.18254">
        <ele>139.52844238281</ele>
        <time>2011-07-08T19:21:32Z</time>
      </trkpt>
      <trkpt lat="48.03915" lon="-3.18259">
        <ele>139.0478515625</ele>
        <time>2011-07-08T19:21:33Z</time>
      </trkpt>
      <trkpt lat="48.03914" lon="-3.18268">
        <ele>139.52844238281</ele>
        <time>2011-07-08T19:21:35Z</time>
      </trkpt>
      <trkpt lat="48.03913" lon="-3.18274">
        <ele>140.00915527344</ele>
        <time>2011-07-08T19:21:36Z</time>
      </trkpt>
      <trkpt lat="48.03912" lon="-3.18278">
        <ele>140.00915527344</ele>
        <time>2011-07-08T19:21:37Z</time>
      </trkpt>
      <trkpt lat="48.03912" lon="-3.18292">
        <ele>143.37365722656</ele>
        <time>2011-07-08T19:21:41Z</time>
      </trkpt>
      <trkpt lat="48.0392" lon="-3.18307">
        <ele>143.85437011719</ele>
        <time>2011-07-08T19:21:44Z</time>
      </trkpt>
      <trkpt lat="48.0392" lon="-3.18311">
        <ele>146.2578125</ele>
        <time>2011-07-08T19:21:45Z</time>
      </trkpt>
      <trkpt lat="48.03923" lon="-3.18314">
        <ele>145.77709960938</ele>
        <time>2011-07-08T19:21:46Z</time>
      </trkpt>
      <trkpt lat="48.03923" lon="-3.18317">
        <ele>147.69970703125</ele>
        <time>2011-07-08T19:21:47Z</time>
      </trkpt>
      <trkpt lat="48.03927" lon="-3.18328">
        <ele>150.10302734375</ele>
        <time>2011-07-08T19:21:51Z</time>
      </trkpt>
      <trkpt lat="48.03933" lon="-3.18342">
        <ele>153.94836425781</ele>
        <time>2011-07-08T19:21:56Z</time>
      </trkpt>
      <trkpt lat="48.03939" lon="-3.18359">
        <ele>150.10302734375</ele>
        <time>2011-07-08T19:22:00Z</time>
      </trkpt>
      <trkpt lat="48.03942" lon="-3.18363">
        <ele>149.62231445312</ele>
        <time>2011-07-08T19:22:01Z</time>
      </trkpt>
      <trkpt lat="48.03957" lon="-3.18385">
        <ele>153.46765136719</ele>
        <time>2011-07-08T19:22:06Z</time>
      </trkpt>
      <trkpt lat="48.03965" lon="-3.18394">
        <ele>153.46765136719</ele>
        <time>2011-07-08T19:22:08Z</time>
      </trkpt>
      <trkpt lat="48.03983" lon="-3.18412">
        <ele>151.544921875</ele>
        <time>2011-07-08T19:22:11Z</time>
      </trkpt>
      <trkpt lat="48.03988" lon="-3.18437">
        <ele>148.66101074219</ele>
        <time>2011-07-08T19:22:16Z</time>
      </trkpt>
      <trkpt lat="48.03988" lon="-3.18452">
        <ele>145.77709960938</ele>
        <time>2011-07-08T19:22:20Z</time>
      </trkpt>
      <trkpt lat="48.03989" lon="-3.18478">
        <ele>132.31860351562</ele>
        <time>2011-07-08T19:22:25Z</time>
      </trkpt>
      <trkpt lat="48.03988" lon="-3.18503">
        <ele>134.2412109375</ele>
        <time>2011-07-08T19:22:29Z</time>
      </trkpt>
      <trkpt lat="48.04001" lon="-3.18509">
        <ele>134.2412109375</ele>
        <time>2011-07-08T19:22:33Z</time>
      </trkpt>
      <trkpt lat="48.04008" lon="-3.1851">
        <ele>136.16394042969</ele>
        <time>2011-07-08T19:22:36Z</time>
      </trkpt>
      <trkpt lat="48.04015" lon="-3.18504">
        <ele>140.97045898438</ele>
        <time>2011-07-08T19:22:40Z</time>
      </trkpt>
      <trkpt lat="48.04015" lon="-3.18487">
        <ele>148.66101074219</ele>
        <time>2011-07-08T19:22:45Z</time>
      </trkpt>
      <trkpt lat="48.04014" lon="-3.18483">
        <ele>149.62231445312</ele>
        <time>2011-07-08T19:22:46Z</time>
      </trkpt>
      <trkpt lat="48.04008" lon="-3.18473">
        <ele>152.50634765625</ele>
        <time>2011-07-08T19:22:51Z</time>
      </trkpt>
      <trkpt lat="48.04009" lon="-3.18473">
        <ele>151.06420898438</ele>
        <time>2011-07-08T19:22:55Z</time>
      </trkpt>
      <trkpt lat="48.04013" lon="-3.18457">
        <ele>139.52844238281</ele>
        <time>2011-07-08T19:23:12Z</time>
      </trkpt>
      <trkpt lat="48.04004" lon="-3.18448">
        <ele>139.52844238281</ele>
        <time>2011-07-08T19:23:18Z</time>
      </trkpt>
      <trkpt lat="48.04004" lon="-3.18445">
        <ele>139.52844238281</ele>
        <time>2011-07-08T19:23:19Z</time>
      </trkpt>
      <trkpt lat="48.04004" lon="-3.18435">
        <ele>140.00915527344</ele>
        <time>2011-07-08T19:23:24Z</time>
      </trkpt>
      <trkpt lat="48.04003" lon="-3.18431">
        <ele>140.48986816406</ele>
        <time>2011-07-08T19:23:26Z</time>
      </trkpt>
      <trkpt lat="48.04005" lon="-3.18417">
        <ele>144.33520507812</ele>
        <time>2011-07-08T19:23:31Z</time>
      </trkpt>
      <trkpt lat="48.04004" lon="-3.18409">
        <ele>145.77709960938</ele>
        <time>2011-07-08T19:23:33Z</time>
      </trkpt>
      <trkpt lat="48.04002" lon="-3.18393">
        <ele>146.73840332031</ele>
        <time>2011-07-08T19:23:39Z</time>
      </trkpt>
      <trkpt lat="48.04005" lon="-3.1838">
        <ele>147.21899414062</ele>
        <time>2011-07-08T19:23:46Z</time>
      </trkpt>
      <trkpt lat="48.04012" lon="-3.18377">
        <ele>147.69970703125</ele>
        <time>2011-07-08T19:23:51Z</time>
      </trkpt>
      <trkpt lat="48.04017" lon="-3.18373">
        <ele>147.69970703125</ele>
        <time>2011-07-08T19:23:55Z</time>
      </trkpt>
      <trkpt lat="48.04024" lon="-3.18361">
        <ele>151.06420898438</ele>
        <time>2011-07-08T19:24:01Z</time>
      </trkpt>
      <trkpt lat="48.04019" lon="-3.18343">
        <ele>156.83215332031</ele>
        <time>2011-07-08T19:24:09Z</time>
      </trkpt>
      <trkpt lat="48.04014" lon="-3.18325">
        <ele>160.19689941406</ele>
        <time>2011-07-08T19:24:16Z</time>
      </trkpt>
      <trkpt lat="48.04016" lon="-3.18307">
        <ele>162.60009765625</ele>
        <time>2011-07-08T19:24:22Z</time>
      </trkpt>
      <trkpt lat="48.0402" lon="-3.18292">
        <ele>164.04211425781</ele>
        <time>2011-07-08T19:24:28Z</time>
      </trkpt>
      <trkpt lat="48.04021" lon="-3.1829">
        <ele>164.04211425781</ele>
        <time>2011-07-08T19:24:29Z</time>
      </trkpt>
      <trkpt lat="48.04029" lon="-3.18278">
        <ele>165.00341796875</ele>
        <time>2011-07-08T19:24:36Z</time>
      </trkpt>
      <trkpt lat="48.04033" lon="-3.18273">
        <ele>165.00341796875</ele>
        <time>2011-07-08T19:24:39Z</time>
      </trkpt>
      <trkpt lat="48.04044" lon="-3.18259">
        <ele>163.5615234375</ele>
        <time>2011-07-08T19:24:46Z</time>
      </trkpt>
      <trkpt lat="48.04057" lon="-3.18245">
        <ele>160.19689941406</ele>
        <time>2011-07-08T19:24:54Z</time>
      </trkpt>
      <trkpt lat="48.04058" lon="-3.18244">
        <ele>159.71618652344</ele>
        <time>2011-07-08T19:24:55Z</time>
      </trkpt>
      <trkpt lat="48.04065" lon="-3.18239">
        <ele>160.67749023438</ele>
        <time>2011-07-08T19:25:02Z</time>
      </trkpt>
      <trkpt lat="48.04066" lon="-3.18238">
        <ele>161.158203125</ele>
        <time>2011-07-08T19:25:03Z</time>
      </trkpt>
      <trkpt lat="48.04071" lon="-3.18235">
        <ele>162.11950683594</ele>
        <time>2011-07-08T19:25:07Z</time>
      </trkpt>
      <trkpt lat="48.04077" lon="-3.18223">
        <ele>161.63891601562</ele>
        <time>2011-07-08T19:25:13Z</time>
      </trkpt>
      <trkpt lat="48.04079" lon="-3.18218">
        <ele>161.63891601562</ele>
        <time>2011-07-08T19:25:15Z</time>
      </trkpt>
      <trkpt lat="48.04081" lon="-3.18213">
        <ele>161.63891601562</ele>
        <time>2011-07-08T19:25:17Z</time>
      </trkpt>
      <trkpt lat="48.04088" lon="-3.1821">
        <ele>162.60009765625</ele>
        <time>2011-07-08T19:25:22Z</time>
      </trkpt>
      <trkpt lat="48.04098" lon="-3.18215">
        <ele>163.5615234375</ele>
        <time>2011-07-08T19:25:28Z</time>
      </trkpt>
      <trkpt lat="48.04106" lon="-3.18219">
        <ele>163.5615234375</ele>
        <time>2011-07-08T19:25:34Z</time>
      </trkpt>
      <trkpt lat="48.04116" lon="-3.18225">
        <ele>163.08081054688</ele>
        <time>2011-07-08T19:25:39Z</time>
      </trkpt>
      <trkpt lat="48.04129" lon="-3.18233">
        <ele>162.11950683594</ele>
        <time>2011-07-08T19:25:45Z</time>
      </trkpt>
      <trkpt lat="48.04141" lon="-3.18237">
        <ele>161.158203125</ele>
        <time>2011-07-08T19:25:50Z</time>
      </trkpt>
      <trkpt lat="48.04154" lon="-3.18243">
        <ele>160.67749023438</ele>
        <time>2011-07-08T19:25:56Z</time>
      </trkpt>
      <trkpt lat="48.04163" lon="-3.18244">
        <ele>161.158203125</ele>
        <time>2011-07-08T19:26:00Z</time>
      </trkpt>
      <trkpt lat="48.04185" lon="-3.18241">
        <ele>162.11950683594</ele>
        <time>2011-07-08T19:26:09Z</time>
      </trkpt>
      <trkpt lat="48.04203" lon="-3.18234">
        <ele>162.60009765625</ele>
        <time>2011-07-08T19:26:17Z</time>
      </trkpt>
      <trkpt lat="48.04214" lon="-3.1823">
        <ele>163.08081054688</ele>
        <time>2011-07-08T19:26:22Z</time>
      </trkpt>
      <trkpt lat="48.04229" lon="-3.18228">
        <ele>162.11950683594</ele>
        <time>2011-07-08T19:26:28Z</time>
      </trkpt>
      <trkpt lat="48.04239" lon="-3.18228">
        <ele>161.158203125</ele>
        <time>2011-07-08T19:26:32Z</time>
      </trkpt>
      <trkpt lat="48.04256" lon="-3.18225">
        <ele>161.158203125</ele>
        <time>2011-07-08T19:26:39Z</time>
      </trkpt>
      <trkpt lat="48.04272" lon="-3.18221">
        <ele>160.67749023438</ele>
        <time>2011-07-08T19:26:44Z</time>
      </trkpt>
      <trkpt lat="48.04283" lon="-3.1822">
        <ele>160.67749023438</ele>
        <time>2011-07-08T19:26:48Z</time>
      </trkpt>
      <trkpt lat="48.04295" lon="-3.18218">
        <ele>161.63891601562</ele>
        <time>2011-07-08T19:26:52Z</time>
      </trkpt>
      <trkpt lat="48.04307" lon="-3.18218">
        <ele>161.63891601562</ele>
        <time>2011-07-08T19:26:57Z</time>
      </trkpt>
      <trkpt lat="48.04309" lon="-3.18217">
        <ele>161.63891601562</ele>
        <time>2011-07-08T19:26:58Z</time>
      </trkpt>
      <trkpt lat="48.04319" lon="-3.18228">
        <ele>158.75476074219</ele>
        <time>2011-07-08T19:27:05Z</time>
      </trkpt>
      <trkpt lat="48.04321" lon="-3.18236">
        <ele>158.27416992188</ele>
        <time>2011-07-08T19:27:07Z</time>
      </trkpt>
      <trkpt lat="48.04327" lon="-3.1825">
        <ele>156.83215332031</ele>
        <time>2011-07-08T19:27:12Z</time>
      </trkpt>
      <trkpt lat="48.04336" lon="-3.18263">
        <ele>155.87097167969</ele>
        <time>2011-07-08T19:27:17Z</time>
      </trkpt>
      <trkpt lat="48.0434" lon="-3.18274">
        <ele>155.39025878906</ele>
        <time>2011-07-08T19:27:21Z</time>
      </trkpt>
      <trkpt lat="48.04341" lon="-3.18277">
        <ele>154.90954589844</ele>
        <time>2011-07-08T19:27:22Z</time>
      </trkpt>
      <trkpt lat="48.04347" lon="-3.18293">
        <ele>152.50634765625</ele>
        <time>2011-07-08T19:27:27Z</time>
      </trkpt>
      <trkpt lat="48.04356" lon="-3.18321">
        <ele>142.89306640625</ele>
        <time>2011-07-08T19:27:33Z</time>
      </trkpt>
      <trkpt lat="48.04363" lon="-3.18343">
        <ele>136.16394042969</ele>
        <time>2011-07-08T19:27:38Z</time>
      </trkpt>
      <trkpt lat="48.04371" lon="-3.18348">
        <ele>132.31860351562</ele>
        <time>2011-07-08T19:27:41Z</time>
      </trkpt>
      <trkpt lat="48.04396" lon="-3.18369">
        <ele>127.03137207031</ele>
        <time>2011-07-08T19:27:45Z</time>
      </trkpt>
      <trkpt lat="48.0442" lon="-3.18386">
        <ele>124.62805175781</ele>
        <time>2011-07-08T19:27:47Z</time>
      </trkpt>
      <trkpt lat="48.04483" lon="-3.18422">
        <ele>121.26354980469</ele>
        <time>2011-07-08T19:27:51Z</time>
      </trkpt>
      <trkpt lat="48.04574" lon="-3.18443">
        <ele>121.744140625</ele>
        <time>2011-07-08T19:27:56Z</time>
      </trkpt>
      <trkpt lat="48.04623" lon="-3.18451">
        <ele>121.26354980469</ele>
        <time>2011-07-08T19:28:00Z</time>
      </trkpt>
      <trkpt lat="48.04634" lon="-3.18455">
        <ele>119.82141113281</ele>
        <time>2011-07-08T19:28:02Z</time>
      </trkpt>
      <trkpt lat="48.04646" lon="-3.18473">
        <ele>120.78283691406</ele>
        <time>2011-07-08T19:28:06Z</time>
      </trkpt>
      <trkpt lat="48.04649" lon="-3.18479">
        <ele>121.744140625</ele>
        <time>2011-07-08T19:28:08Z</time>
      </trkpt>
      <trkpt lat="48.04659" lon="-3.18486">
        <ele>119.82141113281</ele>
        <time>2011-07-08T19:28:10Z</time>
      </trkpt>
      <trkpt lat="48.04671" lon="-3.18496">
        <ele>120.30212402344</ele>
        <time>2011-07-08T19:28:14Z</time>
      </trkpt>
      <trkpt lat="48.04683" lon="-3.18513">
        <ele>120.30212402344</ele>
        <time>2011-07-08T19:28:20Z</time>
      </trkpt>
      <trkpt lat="48.04703" lon="-3.18528">
        <ele>121.744140625</ele>
        <time>2011-07-08T19:28:26Z</time>
      </trkpt>
      <trkpt lat="48.04721" lon="-3.18544">
        <ele>121.744140625</ele>
        <time>2011-07-08T19:28:31Z</time>
      </trkpt>
      <trkpt lat="48.04733" lon="-3.18557">
        <ele>122.70544433594</ele>
        <time>2011-07-08T19:28:35Z</time>
      </trkpt>
      <trkpt lat="48.04743" lon="-3.18569">
        <ele>126.55065917969</ele>
        <time>2011-07-08T19:28:40Z</time>
      </trkpt>
      <trkpt lat="48.04746" lon="-3.18571">
        <ele>127.51196289062</ele>
        <time>2011-07-08T19:28:41Z</time>
      </trkpt>
      <trkpt lat="48.04754" lon="-3.18579">
        <ele>129.91528320312</ele>
        <time>2011-07-08T19:28:45Z</time>
      </trkpt>
      <trkpt lat="48.04762" lon="-3.18589">
        <ele>130.39599609375</ele>
        <time>2011-07-08T19:28:50Z</time>
      </trkpt>
      <trkpt lat="48.0477" lon="-3.18595">
        <ele>131.35729980469</ele>
        <time>2011-07-08T19:28:53Z</time>
      </trkpt>
      <trkpt lat="48.04778" lon="-3.18598">
        <ele>130.39599609375</ele>
        <time>2011-07-08T19:28:56Z</time>
      </trkpt>
      <trkpt lat="48.04785" lon="-3.18604">
        <ele>130.87670898438</ele>
        <time>2011-07-08T19:28:59Z</time>
      </trkpt>
      <trkpt lat="48.04797" lon="-3.18611">
        <ele>129.91528320312</ele>
        <time>2011-07-08T19:29:04Z</time>
      </trkpt>
      <trkpt lat="48.04799" lon="-3.18612">
        <ele>130.39599609375</ele>
        <time>2011-07-08T19:29:05Z</time>
      </trkpt>
      <trkpt lat="48.04805" lon="-3.18624">
        <ele>130.87670898438</ele>
        <time>2011-07-08T19:29:11Z</time>
      </trkpt>
      <trkpt lat="48.04811" lon="-3.18632">
        <ele>130.87670898438</ele>
        <time>2011-07-08T19:29:15Z</time>
      </trkpt>
      <trkpt lat="48.04813" lon="-3.18634">
        <ele>132.31860351562</ele>
        <time>2011-07-08T19:29:17Z</time>
      </trkpt>
      <trkpt lat="48.04815" lon="-3.1864">
        <ele>132.79931640625</ele>
        <time>2011-07-08T19:29:21Z</time>
      </trkpt>
      <trkpt lat="48.04817" lon="-3.18647">
        <ele>132.31860351562</ele>
        <time>2011-07-08T19:29:24Z</time>
      </trkpt>
      <trkpt lat="48.04817" lon="-3.18651">
        <ele>132.79931640625</ele>
        <time>2011-07-08T19:29:27Z</time>
      </trkpt>
      <trkpt lat="48.04824" lon="-3.18662">
        <ele>132.31860351562</ele>
        <time>2011-07-08T19:29:33Z</time>
      </trkpt>
      <trkpt lat="48.04829" lon="-3.18671">
        <ele>134.72192382812</ele>
        <time>2011-07-08T19:29:38Z</time>
      </trkpt>
      <trkpt lat="48.04861" lon="-3.18686">
        <ele>136.64465332031</ele>
        <time>2011-07-08T19:29:46Z</time>
      </trkpt>
      <trkpt lat="48.04901" lon="-3.18709">
        <ele>136.64465332031</ele>
        <time>2011-07-08T19:29:52Z</time>
      </trkpt>
      <trkpt lat="48.04937" lon="-3.18734">
        <ele>135.20251464844</ele>
        <time>2011-07-08T19:29:58Z</time>
      </trkpt>
      <trkpt lat="48.04972" lon="-3.18761">
        <ele>134.2412109375</ele>
        <time>2011-07-08T19:30:04Z</time>
      </trkpt>
      <trkpt lat="48.04998" lon="-3.18779">
        <ele>134.2412109375</ele>
        <time>2011-07-08T19:30:09Z</time>
      </trkpt>
      <trkpt lat="48.05002" lon="-3.18782">
        <ele>134.72192382812</ele>
        <time>2011-07-08T19:30:10Z</time>
      </trkpt>
      <trkpt lat="48.0501" lon="-3.18788">
        <ele>134.72192382812</ele>
        <time>2011-07-08T19:30:12Z</time>
      </trkpt>
      <trkpt lat="48.0503" lon="-3.18806">
        <ele>135.20251464844</ele>
        <time>2011-07-08T19:30:17Z</time>
      </trkpt>
      <trkpt lat="48.05057" lon="-3.18832">
        <ele>136.64465332031</ele>
        <time>2011-07-08T19:30:26Z</time>
      </trkpt>
      <trkpt lat="48.05076" lon="-3.1885">
        <ele>138.08654785156</ele>
        <time>2011-07-08T19:30:33Z</time>
      </trkpt>
      <trkpt lat="48.05093" lon="-3.18867">
        <ele>140.00915527344</ele>
        <time>2011-07-08T19:30:40Z</time>
      </trkpt>
      <trkpt lat="48.05107" lon="-3.18881">
        <ele>141.45104980469</ele>
        <time>2011-07-08T19:30:46Z</time>
      </trkpt>
      <trkpt lat="48.05124" lon="-3.18898">
        <ele>143.37365722656</ele>
        <time>2011-07-08T19:30:53Z</time>
      </trkpt>
      <trkpt lat="48.05146" lon="-3.1892">
        <ele>145.77709960938</ele>
        <time>2011-07-08T19:31:02Z</time>
      </trkpt>
      <trkpt lat="48.05167" lon="-3.18939">
        <ele>147.21899414062</ele>
        <time>2011-07-08T19:31:10Z</time>
      </trkpt>
      <trkpt lat="48.0518" lon="-3.18951">
        <ele>147.69970703125</ele>
        <time>2011-07-08T19:31:15Z</time>
      </trkpt>
      <trkpt lat="48.05201" lon="-3.18971">
        <ele>147.69970703125</ele>
        <time>2011-07-08T19:31:22Z</time>
      </trkpt>
      <trkpt lat="48.05212" lon="-3.18982">
        <ele>147.21899414062</ele>
        <time>2011-07-08T19:31:25Z</time>
      </trkpt>
      <trkpt lat="48.05229" lon="-3.18998">
        <ele>146.2578125</ele>
        <time>2011-07-08T19:31:29Z</time>
      </trkpt>
      <trkpt lat="48.05233" lon="-3.19003">
        <ele>146.2578125</ele>
        <time>2011-07-08T19:31:30Z</time>
      </trkpt>
      <trkpt lat="48.05251" lon="-3.1902">
        <ele>145.77709960938</ele>
        <time>2011-07-08T19:31:34Z</time>
      </trkpt>
      <trkpt lat="48.05267" lon="-3.19036">
        <ele>145.77709960938</ele>
        <time>2011-07-08T19:31:38Z</time>
      </trkpt>
      <trkpt lat="48.05278" lon="-3.1904">
        <ele>145.77709960938</ele>
        <time>2011-07-08T19:31:42Z</time>
      </trkpt>
      <trkpt lat="48.05286" lon="-3.19035">
        <ele>145.77709960938</ele>
        <time>2011-07-08T19:31:46Z</time>
      </trkpt>
      <trkpt lat="48.05293" lon="-3.19029">
        <ele>145.29638671875</ele>
        <time>2011-07-08T19:31:49Z</time>
      </trkpt>
      <trkpt lat="48.05297" lon="-3.19024">
        <ele>145.29638671875</ele>
        <time>2011-07-08T19:31:51Z</time>
      </trkpt>
      <trkpt lat="48.05309" lon="-3.1901">
        <ele>145.77709960938</ele>
        <time>2011-07-08T19:31:58Z</time>
      </trkpt>
      <trkpt lat="48.0532" lon="-3.18995">
        <ele>146.2578125</ele>
        <time>2011-07-08T19:32:05Z</time>
      </trkpt>
      <trkpt lat="48.0533" lon="-3.1898">
        <ele>148.18041992188</ele>
        <time>2011-07-08T19:32:11Z</time>
      </trkpt>
      <trkpt lat="48.05344" lon="-3.18967">
        <ele>148.66101074219</ele>
        <time>2011-07-08T19:32:17Z</time>
      </trkpt>
      <trkpt lat="48.05359" lon="-3.18952">
        <ele>151.544921875</ele>
        <time>2011-07-08T19:32:23Z</time>
      </trkpt>
      <trkpt lat="48.05371" lon="-3.18934">
        <ele>152.02575683594</ele>
        <time>2011-07-08T19:32:28Z</time>
      </trkpt>
      <trkpt lat="48.0538" lon="-3.18921">
        <ele>151.06420898438</ele>
        <time>2011-07-08T19:32:33Z</time>
      </trkpt>
      <trkpt lat="48.05384" lon="-3.18912">
        <ele>148.18041992188</ele>
        <time>2011-07-08T19:32:37Z</time>
      </trkpt>
      <trkpt lat="48.05388" lon="-3.18894">
        <ele>148.18041992188</ele>
        <time>2011-07-08T19:32:42Z</time>
      </trkpt>
      <trkpt lat="48.05391" lon="-3.1889">
        <ele>147.69970703125</ele>
        <time>2011-07-08T19:32:45Z</time>
      </trkpt>
      <trkpt lat="48.05395" lon="-3.18889">
        <ele>148.18041992188</ele>
        <time>2011-07-08T19:32:48Z</time>
      </trkpt>
      <trkpt lat="48.05404" lon="-3.18886">
        <ele>145.29638671875</ele>
        <time>2011-07-08T19:32:51Z</time>
      </trkpt>
      <trkpt lat="48.05424" lon="-3.18903">
        <ele>142.41247558594</ele>
        <time>2011-07-08T19:32:56Z</time>
      </trkpt>
      <trkpt lat="48.05439" lon="-3.18913">
        <ele>140.00915527344</ele>
        <time>2011-07-08T19:33:00Z</time>
      </trkpt>
      <trkpt lat="48.05447" lon="-3.18918">
        <ele>140.97045898438</ele>
        <time>2011-07-08T19:33:03Z</time>
      </trkpt>
      <trkpt lat="48.05456" lon="-3.18932">
        <ele>140.97045898438</ele>
        <time>2011-07-08T19:33:08Z</time>
      </trkpt>
      <trkpt lat="48.0546" lon="-3.18936">
        <ele>140.48986816406</ele>
        <time>2011-07-08T19:33:10Z</time>
      </trkpt>
      <trkpt lat="48.05481" lon="-3.1895">
        <ele>140.48986816406</ele>
        <time>2011-07-08T19:33:18Z</time>
      </trkpt>
      <trkpt lat="48.05494" lon="-3.1896">
        <ele>140.97045898438</ele>
        <time>2011-07-08T19:33:24Z</time>
      </trkpt>
      <trkpt lat="48.0551" lon="-3.18973">
        <ele>141.93176269531</ele>
        <time>2011-07-08T19:33:31Z</time>
      </trkpt>
      <trkpt lat="48.05524" lon="-3.18984">
        <ele>142.41247558594</ele>
        <time>2011-07-08T19:33:37Z</time>
      </trkpt>
      <trkpt lat="48.05544" lon="-3.19">
        <ele>141.93176269531</ele>
        <time>2011-07-08T19:33:44Z</time>
      </trkpt>
      <trkpt lat="48.05569" lon="-3.19021">
        <ele>140.97045898438</ele>
        <time>2011-07-08T19:33:52Z</time>
      </trkpt>
      <trkpt lat="48.05587" lon="-3.19036">
        <ele>139.0478515625</ele>
        <time>2011-07-08T19:33:58Z</time>
      </trkpt>
      <trkpt lat="48.05591" lon="-3.19041">
        <ele>138.08654785156</ele>
        <time>2011-07-08T19:34:00Z</time>
      </trkpt>
      <trkpt lat="48.05603" lon="-3.19034">
        <ele>135.68310546875</ele>
        <time>2011-07-08T19:34:05Z</time>
      </trkpt>
      <trkpt lat="48.05612" lon="-3.19012">
        <ele>132.31860351562</ele>
        <time>2011-07-08T19:34:10Z</time>
      </trkpt>
      <trkpt lat="48.0562" lon="-3.18994">
        <ele>129.43469238281</ele>
        <time>2011-07-08T19:34:14Z</time>
      </trkpt>
      <trkpt lat="48.05628" lon="-3.18974">
        <ele>129.91528320312</ele>
        <time>2011-07-08T19:34:19Z</time>
      </trkpt>
      <trkpt lat="48.05638" lon="-3.18953">
        <ele>127.99255371094</ele>
        <time>2011-07-08T19:34:24Z</time>
      </trkpt>
      <trkpt lat="48.05648" lon="-3.18932">
        <ele>125.58935546875</ele>
        <time>2011-07-08T19:34:29Z</time>
      </trkpt>
      <trkpt lat="48.05661" lon="-3.18912">
        <ele>122.70544433594</ele>
        <time>2011-07-08T19:34:34Z</time>
      </trkpt>
      <trkpt lat="48.05666" lon="-3.189">
        <ele>122.70544433594</ele>
        <time>2011-07-08T19:34:38Z</time>
      </trkpt>
      <trkpt lat="48.05672" lon="-3.18901">
        <ele>130.39599609375</ele>
        <time>2011-07-08T19:34:43Z</time>
      </trkpt>
      <trkpt lat="48.05693" lon="-3.18916">
        <ele>134.72192382812</ele>
        <time>2011-07-08T19:34:52Z</time>
      </trkpt>
      <trkpt lat="48.05711" lon="-3.18929">
        <ele>134.72192382812</ele>
        <time>2011-07-08T19:34:59Z</time>
      </trkpt>
      <trkpt lat="48.05729" lon="-3.18944">
        <ele>135.68310546875</ele>
        <time>2011-07-08T19:35:07Z</time>
      </trkpt>
      <trkpt lat="48.0575" lon="-3.18961">
        <ele>137.12524414062</ele>
        <time>2011-07-08T19:35:15Z</time>
      </trkpt>
      <trkpt lat="48.05769" lon="-3.18976">
        <ele>138.08654785156</ele>
        <time>2011-07-08T19:35:23Z</time>
      </trkpt>
      <trkpt lat="48.05783" lon="-3.18985">
        <ele>138.56726074219</ele>
        <time>2011-07-08T19:35:29Z</time>
      </trkpt>
      <trkpt lat="48.05794" lon="-3.18985">
        <ele>138.56726074219</ele>
        <time>2011-07-08T19:35:34Z</time>
      </trkpt>
      <trkpt lat="48.05796" lon="-3.1896">
        <ele>139.0478515625</ele>
        <time>2011-07-08T19:35:40Z</time>
      </trkpt>
      <trkpt lat="48.05796" lon="-3.18934">
        <ele>140.00915527344</ele>
        <time>2011-07-08T19:35:45Z</time>
      </trkpt>
      <trkpt lat="48.05796" lon="-3.18914">
        <ele>140.00915527344</ele>
        <time>2011-07-08T19:35:49Z</time>
      </trkpt>
      <trkpt lat="48.05794" lon="-3.18895">
        <ele>140.00915527344</ele>
        <time>2011-07-08T19:35:52Z</time>
      </trkpt>
      <trkpt lat="48.05783" lon="-3.18849">
        <ele>138.56726074219</ele>
        <time>2011-07-08T19:35:59Z</time>
      </trkpt>
      <trkpt lat="48.05779" lon="-3.18835">
        <ele>140.00915527344</ele>
        <time>2011-07-08T19:36:01Z</time>
      </trkpt>
      <trkpt lat="48.05776" lon="-3.18808">
        <ele>141.93176269531</ele>
        <time>2011-07-08T19:36:05Z</time>
      </trkpt>
      <trkpt lat="48.05785" lon="-3.188">
        <ele>142.89306640625</ele>
        <time>2011-07-08T19:36:08Z</time>
      </trkpt>
      <trkpt lat="48.05804" lon="-3.18798">
        <ele>144.81579589844</ele>
        <time>2011-07-08T19:36:14Z</time>
      </trkpt>
      <trkpt lat="48.05807" lon="-3.18798">
        <ele>144.81579589844</ele>
        <time>2011-07-08T19:36:15Z</time>
      </trkpt>
      <trkpt lat="48.05829" lon="-3.18796">
        <ele>146.73840332031</ele>
        <time>2011-07-08T19:36:22Z</time>
      </trkpt>
      <trkpt lat="48.05844" lon="-3.18794">
        <ele>147.21899414062</ele>
        <time>2011-07-08T19:36:27Z</time>
      </trkpt>
      <trkpt lat="48.0585" lon="-3.18793">
        <ele>148.18041992188</ele>
        <time>2011-07-08T19:36:29Z</time>
      </trkpt>
      <trkpt lat="48.05872" lon="-3.1879">
        <ele>147.69970703125</ele>
        <time>2011-07-08T19:36:36Z</time>
      </trkpt>
      <trkpt lat="48.05884" lon="-3.18788">
        <ele>148.18041992188</ele>
        <time>2011-07-08T19:36:40Z</time>
      </trkpt>
      <trkpt lat="48.05898" lon="-3.18786">
        <ele>150.10302734375</ele>
        <time>2011-07-08T19:36:45Z</time>
      </trkpt>
      <trkpt lat="48.05917" lon="-3.18783">
        <ele>151.06420898438</ele>
        <time>2011-07-08T19:36:51Z</time>
      </trkpt>
      <trkpt lat="48.05939" lon="-3.18779">
        <ele>152.50634765625</ele>
        <time>2011-07-08T19:36:58Z</time>
      </trkpt>
      <trkpt lat="48.05969" lon="-3.18782">
        <ele>151.544921875</ele>
        <time>2011-07-08T19:37:07Z</time>
      </trkpt>
      <trkpt lat="48.05991" lon="-3.18785">
        <ele>152.02575683594</ele>
        <time>2011-07-08T19:37:13Z</time>
      </trkpt>
      <trkpt lat="48.06004" lon="-3.1879">
        <ele>154.42895507812</ele>
        <time>2011-07-08T19:37:18Z</time>
      </trkpt>
      <trkpt lat="48.06015" lon="-3.18796">
        <ele>153.46765136719</ele>
        <time>2011-07-08T19:37:22Z</time>
      </trkpt>
      <trkpt lat="48.06028" lon="-3.1881">
        <ele>152.50634765625</ele>
        <time>2011-07-08T19:37:27Z</time>
      </trkpt>
      <trkpt lat="48.06047" lon="-3.18833">
        <ele>153.94836425781</ele>
        <time>2011-07-08T19:37:34Z</time>
      </trkpt>
      <trkpt lat="48.06062" lon="-3.18855">
        <ele>155.39025878906</ele>
        <time>2011-07-08T19:37:40Z</time>
      </trkpt>
      <trkpt lat="48.06068" lon="-3.18871">
        <ele>156.3515625</ele>
        <time>2011-07-08T19:37:44Z</time>
      </trkpt>
      <trkpt lat="48.06077" lon="-3.1889">
        <ele>158.27416992188</ele>
        <time>2011-07-08T19:37:49Z</time>
      </trkpt>
      <trkpt lat="48.06079" lon="-3.18894">
        <ele>158.27416992188</ele>
        <time>2011-07-08T19:37:50Z</time>
      </trkpt>
      <trkpt lat="48.06085" lon="-3.18919">
        <ele>158.27416992188</ele>
        <time>2011-07-08T19:37:56Z</time>
      </trkpt>
      <trkpt lat="48.06092" lon="-3.18943">
        <ele>159.23547363281</ele>
        <time>2011-07-08T19:38:02Z</time>
      </trkpt>
      <trkpt lat="48.06104" lon="-3.18964">
        <ele>160.67749023438</ele>
        <time>2011-07-08T19:38:08Z</time>
      </trkpt>
      <trkpt lat="48.06115" lon="-3.18984">
        <ele>162.60009765625</ele>
        <time>2011-07-08T19:38:14Z</time>
      </trkpt>
      <trkpt lat="48.06132" lon="-3.19015">
        <ele>164.52270507812</ele>
        <time>2011-07-08T19:38:22Z</time>
      </trkpt>
      <trkpt lat="48.06146" lon="-3.19043">
        <ele>164.52270507812</ele>
        <time>2011-07-08T19:38:29Z</time>
      </trkpt>
      <trkpt lat="48.0616" lon="-3.19077">
        <ele>164.04211425781</ele>
        <time>2011-07-08T19:38:37Z</time>
      </trkpt>
      <trkpt lat="48.06168" lon="-3.19101">
        <ele>165.00341796875</ele>
        <time>2011-07-08T19:38:42Z</time>
      </trkpt>
      <trkpt lat="48.0618" lon="-3.19121">
        <ele>167.40673828125</ele>
        <time>2011-07-08T19:38:47Z</time>
      </trkpt>
      <trkpt lat="48.06197" lon="-3.19135">
        <ele>166.4453125</ele>
        <time>2011-07-08T19:38:52Z</time>
      </trkpt>
      <trkpt lat="48.06217" lon="-3.19149">
        <ele>162.60009765625</ele>
        <time>2011-07-08T19:38:57Z</time>
      </trkpt>
      <trkpt lat="48.06221" lon="-3.19165">
        <ele>160.67749023438</ele>
        <time>2011-07-08T19:39:01Z</time>
      </trkpt>
      <trkpt lat="48.06217" lon="-3.19171">
        <ele>160.19689941406</ele>
        <time>2011-07-08T19:39:03Z</time>
      </trkpt>
      <trkpt lat="48.06197" lon="-3.19188">
        <ele>159.71618652344</ele>
        <time>2011-07-08T19:39:09Z</time>
      </trkpt>
      <trkpt lat="48.06185" lon="-3.19202">
        <ele>158.75476074219</ele>
        <time>2011-07-08T19:39:12Z</time>
      </trkpt>
      <trkpt lat="48.06168" lon="-3.1923">
        <ele>158.27416992188</ele>
        <time>2011-07-08T19:39:17Z</time>
      </trkpt>
      <trkpt lat="48.06156" lon="-3.19254">
        <ele>158.27416992188</ele>
        <time>2011-07-08T19:39:21Z</time>
      </trkpt>
      <trkpt lat="48.06147" lon="-3.19262">
        <ele>158.27416992188</ele>
        <time>2011-07-08T19:39:23Z</time>
      </trkpt>
      <trkpt lat="48.06135" lon="-3.19271">
        <ele>158.27416992188</ele>
        <time>2011-07-08T19:39:26Z</time>
      </trkpt>
      <trkpt lat="48.06115" lon="-3.19285">
        <ele>157.79357910156</ele>
        <time>2011-07-08T19:39:31Z</time>
      </trkpt>
      <trkpt lat="48.06094" lon="-3.19298">
        <ele>157.79357910156</ele>
        <time>2011-07-08T19:39:36Z</time>
      </trkpt>
      <trkpt lat="48.06075" lon="-3.19314">
        <ele>159.71618652344</ele>
        <time>2011-07-08T19:39:41Z</time>
      </trkpt>
      <trkpt lat="48.06067" lon="-3.19321">
        <ele>161.158203125</ele>
        <time>2011-07-08T19:39:43Z</time>
      </trkpt>
      <trkpt lat="48.06041" lon="-3.19346">
        <ele>161.63891601562</ele>
        <time>2011-07-08T19:39:49Z</time>
      </trkpt>
      <trkpt lat="48.06022" lon="-3.19362">
        <ele>161.63891601562</ele>
        <time>2011-07-08T19:39:53Z</time>
      </trkpt>
      <trkpt lat="48.06004" lon="-3.19377">
        <ele>162.11950683594</ele>
        <time>2011-07-08T19:39:57Z</time>
      </trkpt>
      <trkpt lat="48.05982" lon="-3.19399">
        <ele>161.63891601562</ele>
        <time>2011-07-08T19:40:02Z</time>
      </trkpt>
      <trkpt lat="48.05967" lon="-3.19432">
        <ele>159.71618652344</ele>
        <time>2011-07-08T19:40:07Z</time>
      </trkpt>
      <trkpt lat="48.05934" lon="-3.19464">
        <ele>158.27416992188</ele>
        <time>2011-07-08T19:40:14Z</time>
      </trkpt>
      <trkpt lat="48.05902" lon="-3.19498">
        <ele>157.31286621094</ele>
        <time>2011-07-08T19:40:21Z</time>
      </trkpt>
      <trkpt lat="48.05892" lon="-3.1951">
        <ele>156.83215332031</ele>
        <time>2011-07-08T19:40:23Z</time>
      </trkpt>
      <trkpt lat="48.05878" lon="-3.19527">
        <ele>156.3515625</ele>
        <time>2011-07-08T19:40:26Z</time>
      </trkpt>
      <trkpt lat="48.05869" lon="-3.19542">
        <ele>155.39025878906</ele>
        <time>2011-07-08T19:40:29Z</time>
      </trkpt>
      <trkpt lat="48.05861" lon="-3.19552">
        <ele>154.90954589844</ele>
        <time>2011-07-08T19:40:31Z</time>
      </trkpt>
      <trkpt lat="48.05834" lon="-3.19567">
        <ele>154.42895507812</ele>
        <time>2011-07-08T19:40:37Z</time>
      </trkpt>
      <trkpt lat="48.058" lon="-3.19585">
        <ele>152.02575683594</ele>
        <time>2011-07-08T19:40:44Z</time>
      </trkpt>
      <trkpt lat="48.05785" lon="-3.19596">
        <ele>152.02575683594</ele>
        <time>2011-07-08T19:40:47Z</time>
      </trkpt>
      <trkpt lat="48.05779" lon="-3.19612">
        <ele>152.02575683594</ele>
        <time>2011-07-08T19:40:51Z</time>
      </trkpt>
      <trkpt lat="48.05789" lon="-3.19635">
        <ele>150.58361816406</ele>
        <time>2011-07-08T19:40:57Z</time>
      </trkpt>
      <trkpt lat="48.0579" lon="-3.19639">
        <ele>150.10302734375</ele>
        <time>2011-07-08T19:40:58Z</time>
      </trkpt>
      <trkpt lat="48.05797" lon="-3.19654">
        <ele>152.02575683594</ele>
        <time>2011-07-08T19:41:01Z</time>
      </trkpt>
      <trkpt lat="48.05817" lon="-3.19676">
        <ele>152.50634765625</ele>
        <time>2011-07-08T19:41:06Z</time>
      </trkpt>
      <trkpt lat="48.05828" lon="-3.19687">
        <ele>152.50634765625</ele>
        <time>2011-07-08T19:41:09Z</time>
      </trkpt>
      <trkpt lat="48.05846" lon="-3.19699">
        <ele>151.544921875</ele>
        <time>2011-07-08T19:41:13Z</time>
      </trkpt>
      <trkpt lat="48.05878" lon="-3.19709">
        <ele>152.02575683594</ele>
        <time>2011-07-08T19:41:20Z</time>
      </trkpt>
      <trkpt lat="48.05888" lon="-3.1971">
        <ele>152.50634765625</ele>
        <time>2011-07-08T19:41:22Z</time>
      </trkpt>
      <trkpt lat="48.05912" lon="-3.19708">
        <ele>151.544921875</ele>
        <time>2011-07-08T19:41:27Z</time>
      </trkpt>
      <trkpt lat="48.05921" lon="-3.19709">
        <ele>152.02575683594</ele>
        <time>2011-07-08T19:41:29Z</time>
      </trkpt>
      <trkpt lat="48.05952" lon="-3.1971">
        <ele>151.06420898438</ele>
        <time>2011-07-08T19:41:36Z</time>
      </trkpt>
      <trkpt lat="48.05986" lon="-3.19709">
        <ele>151.06420898438</ele>
        <time>2011-07-08T19:41:43Z</time>
      </trkpt>
      <trkpt lat="48.06016" lon="-3.19708">
        <ele>149.62231445312</ele>
        <time>2011-07-08T19:41:49Z</time>
      </trkpt>
      <trkpt lat="48.06034" lon="-3.19707">
        <ele>149.62231445312</ele>
        <time>2011-07-08T19:41:53Z</time>
      </trkpt>
      <trkpt lat="48.0605" lon="-3.19719">
        <ele>148.18041992188</ele>
        <time>2011-07-08T19:41:57Z</time>
      </trkpt>
      <trkpt lat="48.06065" lon="-3.19753">
        <ele>147.21899414062</ele>
        <time>2011-07-08T19:42:02Z</time>
      </trkpt>
      <trkpt lat="48.06071" lon="-3.19778">
        <ele>147.69970703125</ele>
        <time>2011-07-08T19:42:06Z</time>
      </trkpt>
      <trkpt lat="48.0607" lon="-3.19801">
        <ele>147.69970703125</ele>
        <time>2011-07-08T19:42:10Z</time>
      </trkpt>
      <trkpt lat="48.06067" lon="-3.19819">
        <ele>147.69970703125</ele>
        <time>2011-07-08T19:42:13Z</time>
      </trkpt>
      <trkpt lat="48.0606" lon="-3.1984">
        <ele>145.29638671875</ele>
        <time>2011-07-08T19:42:17Z</time>
      </trkpt>
      <trkpt lat="48.06053" lon="-3.19862">
        <ele>141.45104980469</ele>
        <time>2011-07-08T19:42:23Z</time>
      </trkpt>
      <trkpt lat="48.06054" lon="-3.19871">
        <ele>141.45104980469</ele>
        <time>2011-07-08T19:42:26Z</time>
      </trkpt>
      <trkpt lat="48.06055" lon="-3.19879">
        <ele>141.45104980469</ele>
        <time>2011-07-08T19:42:29Z</time>
      </trkpt>
      <trkpt lat="48.06053" lon="-3.19887">
        <ele>140.97045898438</ele>
        <time>2011-07-08T19:42:34Z</time>
      </trkpt>
      <trkpt lat="48.06052" lon="-3.19891">
        <ele>140.00915527344</ele>
        <time>2011-07-08T19:42:36Z</time>
      </trkpt>
      <trkpt lat="48.06052" lon="-3.19901">
        <ele>140.00915527344</ele>
        <time>2011-07-08T19:42:41Z</time>
      </trkpt>
      <trkpt lat="48.06055" lon="-3.19908">
        <ele>146.73840332031</ele>
        <time>2011-07-08T19:42:52Z</time>
      </trkpt>
      <trkpt lat="48.06054" lon="-3.19909">
        <ele>148.18041992188</ele>
        <time>2011-07-08T19:43:01Z</time>
      </trkpt>
      <trkpt lat="48.06054" lon="-3.19909">
        <ele>147.69970703125</ele>
        <time>2011-07-08T19:43:03Z</time>
      </trkpt>
      <trkpt lat="48.06054" lon="-3.19911">
        <ele>149.62231445312</ele>
        <time>2011-07-08T19:43:10Z</time>
      </trkpt>
      <trkpt lat="48.06055" lon="-3.19914">
        <ele>149.1416015625</ele>
        <time>2011-07-08T19:43:14Z</time>
      </trkpt>
      <trkpt lat="48.06055" lon="-3.19931">
        <ele>147.21899414062</ele>
        <time>2011-07-08T19:43:19Z</time>
      </trkpt>
      <trkpt lat="48.06056" lon="-3.19943">
        <ele>146.73840332031</ele>
        <time>2011-07-08T19:43:22Z</time>
      </trkpt>
      <trkpt lat="48.06066" lon="-3.19957">
        <ele>145.29638671875</ele>
        <time>2011-07-08T19:43:28Z</time>
      </trkpt>
      <trkpt lat="48.06077" lon="-3.19976">
        <ele>144.33520507812</ele>
        <time>2011-07-08T19:43:33Z</time>
      </trkpt>
      <trkpt lat="48.06081" lon="-3.1999">
        <ele>144.33520507812</ele>
        <time>2011-07-08T19:43:37Z</time>
      </trkpt>
      <trkpt lat="48.06091" lon="-3.20008">
        <ele>143.85437011719</ele>
        <time>2011-07-08T19:43:43Z</time>
      </trkpt>
      <trkpt lat="48.06099" lon="-3.20018">
        <ele>141.93176269531</ele>
        <time>2011-07-08T19:43:46Z</time>
      </trkpt>
      <trkpt lat="48.06117" lon="-3.20038">
        <ele>145.29638671875</ele>
        <time>2011-07-08T19:43:51Z</time>
      </trkpt>
      <trkpt lat="48.06127" lon="-3.20051">
        <ele>149.62231445312</ele>
        <time>2011-07-08T19:43:54Z</time>
      </trkpt>
      <trkpt lat="48.06135" lon="-3.20057">
        <ele>151.544921875</ele>
        <time>2011-07-08T19:43:56Z</time>
      </trkpt>
      <trkpt lat="48.06157" lon="-3.20062">
        <ele>150.10302734375</ele>
        <time>2011-07-08T19:44:01Z</time>
      </trkpt>
      <trkpt lat="48.06166" lon="-3.2006">
        <ele>151.544921875</ele>
        <time>2011-07-08T19:44:03Z</time>
      </trkpt>
      <trkpt lat="48.06173" lon="-3.20059">
        <ele>151.544921875</ele>
        <time>2011-07-08T19:44:05Z</time>
      </trkpt>
      <trkpt lat="48.06179" lon="-3.20068">
        <ele>148.66101074219</ele>
        <time>2011-07-08T19:44:09Z</time>
      </trkpt>
      <trkpt lat="48.0617" lon="-3.2008">
        <ele>144.81579589844</ele>
        <time>2011-07-08T19:44:13Z</time>
      </trkpt>
      <trkpt lat="48.06156" lon="-3.2009">
        <ele>143.85437011719</ele>
        <time>2011-07-08T19:44:18Z</time>
      </trkpt>
      <trkpt lat="48.06148" lon="-3.20099">
        <ele>143.37365722656</ele>
        <time>2011-07-08T19:44:22Z</time>
      </trkpt>
      <trkpt lat="48.06142" lon="-3.20115">
        <ele>142.89306640625</ele>
        <time>2011-07-08T19:44:26Z</time>
      </trkpt>
      <trkpt lat="48.06142" lon="-3.20128">
        <ele>141.93176269531</ele>
        <time>2011-07-08T19:44:29Z</time>
      </trkpt>
      <trkpt lat="48.06144" lon="-3.20135">
        <ele>141.45104980469</ele>
        <time>2011-07-08T19:44:31Z</time>
      </trkpt>
      <trkpt lat="48.06146" lon="-3.20136">
        <ele>141.45104980469</ele>
        <time>2011-07-08T19:44:36Z</time>
      </trkpt>
      <trkpt lat="48.06146" lon="-3.20138">
        <ele>141.45104980469</ele>
        <time>2011-07-08T19:44:45Z</time>
      </trkpt>
      <trkpt lat="48.06147" lon="-3.2014">
        <ele>140.97045898438</ele>
        <time>2011-07-08T19:44:52Z</time>
      </trkpt>
      <trkpt lat="48.06151" lon="-3.20153">
        <ele>139.52844238281</ele>
        <time>2011-07-08T19:44:57Z</time>
      </trkpt>
      <trkpt lat="48.06139" lon="-3.20173">
        <ele>138.56726074219</ele>
        <time>2011-07-08T19:45:03Z</time>
      </trkpt>
      <trkpt lat="48.06125" lon="-3.20198">
        <ele>140.48986816406</ele>
        <time>2011-07-08T19:45:09Z</time>
      </trkpt>
      <trkpt lat="48.06127" lon="-3.20212">
        <ele>139.52844238281</ele>
        <time>2011-07-08T19:45:13Z</time>
      </trkpt>
      <trkpt lat="48.06133" lon="-3.20222">
        <ele>138.56726074219</ele>
        <time>2011-07-08T19:45:16Z</time>
      </trkpt>
      <trkpt lat="48.06128" lon="-3.20244">
        <ele>137.12524414062</ele>
        <time>2011-07-08T19:45:21Z</time>
      </trkpt>
      <trkpt lat="48.06128" lon="-3.20265">
        <ele>137.12524414062</ele>
        <time>2011-07-08T19:45:25Z</time>
      </trkpt>
      <trkpt lat="48.06141" lon="-3.20282">
        <ele>136.16394042969</ele>
        <time>2011-07-08T19:45:30Z</time>
      </trkpt>
      <trkpt lat="48.0615" lon="-3.20284">
        <ele>136.16394042969</ele>
        <time>2011-07-08T19:45:33Z</time>
      </trkpt>
      <trkpt lat="48.06159" lon="-3.20295">
        <ele>136.16394042969</ele>
        <time>2011-07-08T19:45:37Z</time>
      </trkpt>
      <trkpt lat="48.06165" lon="-3.2032">
        <ele>136.16394042969</ele>
        <time>2011-07-08T19:45:42Z</time>
      </trkpt>
      <trkpt lat="48.06168" lon="-3.20324">
        <ele>136.16394042969</ele>
        <time>2011-07-08T19:45:43Z</time>
      </trkpt>
      <trkpt lat="48.06175" lon="-3.20319">
        <ele>136.16394042969</ele>
        <time>2011-07-08T19:45:47Z</time>
      </trkpt>
      <trkpt lat="48.06174" lon="-3.20311">
        <ele>136.64465332031</ele>
        <time>2011-07-08T19:45:51Z</time>
      </trkpt>
      <trkpt lat="48.06175" lon="-3.20323">
        <ele>135.20251464844</ele>
        <time>2011-07-08T19:45:55Z</time>
      </trkpt>
      <trkpt lat="48.06181" lon="-3.20331">
        <ele>135.20251464844</ele>
        <time>2011-07-08T19:45:57Z</time>
      </trkpt>
      <trkpt lat="48.06203" lon="-3.20342">
        <ele>135.20251464844</ele>
        <time>2011-07-08T19:46:03Z</time>
      </trkpt>
      <trkpt lat="48.06211" lon="-3.20338">
        <ele>134.72192382812</ele>
        <time>2011-07-08T19:46:05Z</time>
      </trkpt>
      <trkpt lat="48.06228" lon="-3.2034">
        <ele>135.20251464844</ele>
        <time>2011-07-08T19:46:09Z</time>
      </trkpt>
      <trkpt lat="48.06242" lon="-3.20355">
        <ele>134.2412109375</ele>
        <time>2011-07-08T19:46:14Z</time>
      </trkpt>
      <trkpt lat="48.06243" lon="-3.20379">
        <ele>133.76049804688</ele>
        <time>2011-07-08T19:46:19Z</time>
      </trkpt>
      <trkpt lat="48.06236" lon="-3.20407">
        <ele>133.27990722656</ele>
        <time>2011-07-08T19:46:25Z</time>
      </trkpt>
      <trkpt lat="48.06232" lon="-3.20431">
        <ele>132.79931640625</ele>
        <time>2011-07-08T19:46:28Z</time>
      </trkpt>
      <trkpt lat="48.06233" lon="-3.20457">
        <ele>132.79931640625</ele>
        <time>2011-07-08T19:46:32Z</time>
      </trkpt>
      <trkpt lat="48.06246" lon="-3.20481">
        <ele>133.76049804688</ele>
        <time>2011-07-08T19:46:37Z</time>
      </trkpt>
      <trkpt lat="48.06252" lon="-3.20486">
        <ele>134.2412109375</ele>
        <time>2011-07-08T19:46:39Z</time>
      </trkpt>
      <trkpt lat="48.06264" lon="-3.20493">
        <ele>134.2412109375</ele>
        <time>2011-07-08T19:46:42Z</time>
      </trkpt>
      <trkpt lat="48.06292" lon="-3.20505">
        <ele>135.20251464844</ele>
        <time>2011-07-08T19:46:49Z</time>
      </trkpt>
      <trkpt lat="48.06302" lon="-3.20509">
        <ele>134.2412109375</ele>
        <time>2011-07-08T19:46:53Z</time>
      </trkpt>
      <trkpt lat="48.06301" lon="-3.20511">
        <ele>134.72192382812</ele>
        <time>2011-07-08T19:46:57Z</time>
      </trkpt>
      <trkpt lat="48.06301" lon="-3.20525">
        <ele>134.72192382812</ele>
        <time>2011-07-08T19:47:01Z</time>
      </trkpt>
      <trkpt lat="48.06314" lon="-3.20543">
        <ele>135.68310546875</ele>
        <time>2011-07-08T19:47:06Z</time>
      </trkpt>
      <trkpt lat="48.06328" lon="-3.20558">
        <ele>136.16394042969</ele>
        <time>2011-07-08T19:47:10Z</time>
      </trkpt>
      <trkpt lat="48.06343" lon="-3.20583">
        <ele>136.64465332031</ele>
        <time>2011-07-08T19:47:15Z</time>
      </trkpt>
      <trkpt lat="48.06363" lon="-3.20616">
        <ele>137.12524414062</ele>
        <time>2011-07-08T19:47:21Z</time>
      </trkpt>
      <trkpt lat="48.06366" lon="-3.20622">
        <ele>137.12524414062</ele>
        <time>2011-07-08T19:47:22Z</time>
      </trkpt>
      <trkpt lat="48.06372" lon="-3.20633">
        <ele>136.64465332031</ele>
        <time>2011-07-08T19:47:24Z</time>
      </trkpt>
      <trkpt lat="48.06378" lon="-3.20643">
        <ele>136.64465332031</ele>
        <time>2011-07-08T19:47:26Z</time>
      </trkpt>
      <trkpt lat="48.06387" lon="-3.20656">
        <ele>136.64465332031</ele>
        <time>2011-07-08T19:47:29Z</time>
      </trkpt>
      <trkpt lat="48.06398" lon="-3.20669">
        <ele>136.16394042969</ele>
        <time>2011-07-08T19:47:32Z</time>
      </trkpt>
      <trkpt lat="48.06415" lon="-3.20693">
        <ele>134.2412109375</ele>
        <time>2011-07-08T19:47:37Z</time>
      </trkpt>
      <trkpt lat="48.06424" lon="-3.20702">
        <ele>134.2412109375</ele>
        <time>2011-07-08T19:47:39Z</time>
      </trkpt>
      <trkpt lat="48.06437" lon="-3.20725">
        <ele>133.76049804688</ele>
        <time>2011-07-08T19:47:43Z</time>
      </trkpt>
      <trkpt lat="48.06441" lon="-3.2073">
        <ele>133.76049804688</ele>
        <time>2011-07-08T19:47:44Z</time>
      </trkpt>
      <trkpt lat="48.0645" lon="-3.20739">
        <ele>133.27990722656</ele>
        <time>2011-07-08T19:47:46Z</time>
      </trkpt>
      <trkpt lat="48.06485" lon="-3.20777">
        <ele>131.837890625</ele>
        <time>2011-07-08T19:47:54Z</time>
      </trkpt>
      <trkpt lat="48.0649" lon="-3.20782">
        <ele>131.837890625</ele>
        <time>2011-07-08T19:47:55Z</time>
      </trkpt>
      <trkpt lat="48.06506" lon="-3.20801">
        <ele>130.87670898438</ele>
        <time>2011-07-08T19:47:59Z</time>
      </trkpt>
      <trkpt lat="48.06506" lon="-3.20825">
        <ele>130.39599609375</ele>
        <time>2011-07-08T19:48:02Z</time>
      </trkpt>
      <trkpt lat="48.06504" lon="-3.20833">
        <ele>129.91528320312</ele>
        <time>2011-07-08T19:48:03Z</time>
      </trkpt>
      <trkpt lat="48.065" lon="-3.20852">
        <ele>129.43469238281</ele>
        <time>2011-07-08T19:48:05Z</time>
      </trkpt>
      <trkpt lat="48.0649" lon="-3.20931">
        <ele>127.51196289062</ele>
        <time>2011-07-08T19:48:12Z</time>
      </trkpt>
      <trkpt lat="48.06487" lon="-3.20964">
        <ele>126.55065917969</ele>
        <time>2011-07-08T19:48:15Z</time>
      </trkpt>
      <trkpt lat="48.06484" lon="-3.20985">
        <ele>125.58935546875</ele>
        <time>2011-07-08T19:48:17Z</time>
      </trkpt>
      <trkpt lat="48.06479" lon="-3.21012">
        <ele>126.06994628906</ele>
        <time>2011-07-08T19:48:20Z</time>
      </trkpt>
      <trkpt lat="48.0647" lon="-3.2104">
        <ele>125.58935546875</ele>
        <time>2011-07-08T19:48:23Z</time>
      </trkpt>
      <trkpt lat="48.06454" lon="-3.21054">
        <ele>126.55065917969</ele>
        <time>2011-07-08T19:48:26Z</time>
      </trkpt>
      <trkpt lat="48.06437" lon="-3.21051">
        <ele>127.03137207031</ele>
        <time>2011-07-08T19:48:29Z</time>
      </trkpt>
      <trkpt lat="48.06423" lon="-3.21062">
        <ele>125.58935546875</ele>
        <time>2011-07-08T19:48:32Z</time>
      </trkpt>
      <trkpt lat="48.06421" lon="-3.21083">
        <ele>125.10876464844</ele>
        <time>2011-07-08T19:48:35Z</time>
      </trkpt>
      <trkpt lat="48.0643" lon="-3.211">
        <ele>123.66674804688</ele>
        <time>2011-07-08T19:48:38Z</time>
      </trkpt>
      <trkpt lat="48.0645" lon="-3.2111">
        <ele>124.14733886719</ele>
        <time>2011-07-08T19:48:42Z</time>
      </trkpt>
      <trkpt lat="48.06454" lon="-3.21121">
        <ele>124.14733886719</ele>
        <time>2011-07-08T19:48:44Z</time>
      </trkpt>
      <trkpt lat="48.06454" lon="-3.21135">
        <ele>123.66674804688</ele>
        <time>2011-07-08T19:48:46Z</time>
      </trkpt>
      <trkpt lat="48.06454" lon="-3.21167">
        <ele>122.70544433594</ele>
        <time>2011-07-08T19:48:50Z</time>
      </trkpt>
      <trkpt lat="48.06457" lon="-3.21183">
        <ele>122.70544433594</ele>
        <time>2011-07-08T19:48:52Z</time>
      </trkpt>
      <trkpt lat="48.06464" lon="-3.21213">
        <ele>123.18615722656</ele>
        <time>2011-07-08T19:48:58Z</time>
      </trkpt>
      <trkpt lat="48.06469" lon="-3.21242">
        <ele>122.22473144531</ele>
        <time>2011-07-08T19:49:03Z</time>
      </trkpt>
      <trkpt lat="48.06461" lon="-3.2127">
        <ele>121.744140625</ele>
        <time>2011-07-08T19:49:08Z</time>
      </trkpt>
      <trkpt lat="48.0646" lon="-3.21291">
        <ele>121.26354980469</ele>
        <time>2011-07-08T19:49:11Z</time>
      </trkpt>
      <trkpt lat="48.06458" lon="-3.21305">
        <ele>120.78283691406</ele>
        <time>2011-07-08T19:49:13Z</time>
      </trkpt>
      <trkpt lat="48.06459" lon="-3.21336">
        <ele>118.86010742188</ele>
        <time>2011-07-08T19:49:18Z</time>
      </trkpt>
      <trkpt lat="48.06456" lon="-3.21353">
        <ele>118.86010742188</ele>
        <time>2011-07-08T19:49:21Z</time>
      </trkpt>
      <trkpt lat="48.06451" lon="-3.21388">
        <ele>117.89880371094</ele>
        <time>2011-07-08T19:49:27Z</time>
      </trkpt>
      <trkpt lat="48.06447" lon="-3.21412">
        <ele>118.37939453125</ele>
        <time>2011-07-08T19:49:30Z</time>
      </trkpt>
      <trkpt lat="48.06441" lon="-3.21439">
        <ele>116.45678710938</ele>
        <time>2011-07-08T19:49:35Z</time>
      </trkpt>
      <trkpt lat="48.06442" lon="-3.21448">
        <ele>116.9375</ele>
        <time>2011-07-08T19:49:37Z</time>
      </trkpt>
      <trkpt lat="48.06456" lon="-3.2145">
        <ele>120.78283691406</ele>
        <time>2011-07-08T19:49:43Z</time>
      </trkpt>
      <trkpt lat="48.0647" lon="-3.21448">
        <ele>122.70544433594</ele>
        <time>2011-07-08T19:49:48Z</time>
      </trkpt>
      <trkpt lat="48.06474" lon="-3.21449">
        <ele>122.70544433594</ele>
        <time>2011-07-08T19:49:49Z</time>
      </trkpt>
      <trkpt lat="48.0649" lon="-3.21463">
        <ele>123.66674804688</ele>
        <time>2011-07-08T19:49:54Z</time>
      </trkpt>
      <trkpt lat="48.06497" lon="-3.21469">
        <ele>126.06994628906</ele>
        <time>2011-07-08T19:49:56Z</time>
      </trkpt>
      <trkpt lat="48.06512" lon="-3.21457">
        <ele>124.62805175781</ele>
        <time>2011-07-08T19:50:01Z</time>
      </trkpt>
      <trkpt lat="48.06519" lon="-3.21449">
        <ele>125.10876464844</ele>
        <time>2011-07-08T19:50:03Z</time>
      </trkpt>
      <trkpt lat="48.06539" lon="-3.21437">
        <ele>126.06994628906</ele>
        <time>2011-07-08T19:50:09Z</time>
      </trkpt>
      <trkpt lat="48.06551" lon="-3.21436">
        <ele>126.06994628906</ele>
        <time>2011-07-08T19:50:12Z</time>
      </trkpt>
      <trkpt lat="48.06563" lon="-3.21413">
        <ele>124.62805175781</ele>
        <time>2011-07-08T19:50:17Z</time>
      </trkpt>
      <trkpt lat="48.06571" lon="-3.21392">
        <ele>123.66674804688</ele>
        <time>2011-07-08T19:50:22Z</time>
      </trkpt>
      <trkpt lat="48.06583" lon="-3.21381">
        <ele>122.22473144531</ele>
        <time>2011-07-08T19:50:27Z</time>
      </trkpt>
      <trkpt lat="48.06597" lon="-3.21375">
        <ele>121.744140625</ele>
        <time>2011-07-08T19:50:31Z</time>
      </trkpt>
      <trkpt lat="48.06621" lon="-3.21362">
        <ele>121.26354980469</ele>
        <time>2011-07-08T19:50:38Z</time>
      </trkpt>
      <trkpt lat="48.06631" lon="-3.21348">
        <ele>119.82141113281</ele>
        <time>2011-07-08T19:50:42Z</time>
      </trkpt>
      <trkpt lat="48.06638" lon="-3.21334">
        <ele>119.82141113281</ele>
        <time>2011-07-08T19:50:45Z</time>
      </trkpt>
      <trkpt lat="48.06649" lon="-3.2133">
        <ele>121.26354980469</ele>
        <time>2011-07-08T19:50:49Z</time>
      </trkpt>
      <trkpt lat="48.06651" lon="-3.2134">
        <ele>120.30212402344</ele>
        <time>2011-07-08T19:50:52Z</time>
      </trkpt>
      <trkpt lat="48.06651" lon="-3.2135">
        <ele>118.86010742188</ele>
        <time>2011-07-08T19:50:54Z</time>
      </trkpt>
      <trkpt lat="48.06651" lon="-3.2138">
        <ele>120.78283691406</ele>
        <time>2011-07-08T19:51:00Z</time>
      </trkpt>
      <trkpt lat="48.06652" lon="-3.21414">
        <ele>120.78283691406</ele>
        <time>2011-07-08T19:51:05Z</time>
      </trkpt>
      <trkpt lat="48.06652" lon="-3.21427">
        <ele>121.744140625</ele>
        <time>2011-07-08T19:51:07Z</time>
      </trkpt>
      <trkpt lat="48.06653" lon="-3.21441">
        <ele>122.22473144531</ele>
        <time>2011-07-08T19:51:09Z</time>
      </trkpt>
      <trkpt lat="48.06658" lon="-3.21482">
        <ele>121.744140625</ele>
        <time>2011-07-08T19:51:15Z</time>
      </trkpt>
      <trkpt lat="48.0666" lon="-3.215">
        <ele>121.26354980469</ele>
        <time>2011-07-08T19:51:18Z</time>
      </trkpt>
      <trkpt lat="48.06664" lon="-3.21525">
        <ele>123.66674804688</ele>
        <time>2011-07-08T19:51:22Z</time>
      </trkpt>
      <trkpt lat="48.06665" lon="-3.21544">
        <ele>124.14733886719</ele>
        <time>2011-07-08T19:51:25Z</time>
      </trkpt>
      <trkpt lat="48.06667" lon="-3.2158">
        <ele>126.06994628906</ele>
        <time>2011-07-08T19:51:31Z</time>
      </trkpt>
      <trkpt lat="48.06671" lon="-3.21614">
        <ele>127.03137207031</ele>
        <time>2011-07-08T19:51:37Z</time>
      </trkpt>
      <trkpt lat="48.06672" lon="-3.21646">
        <ele>127.99255371094</ele>
        <time>2011-07-08T19:51:42Z</time>
      </trkpt>
      <trkpt lat="48.06673" lon="-3.21658">
        <ele>129.43469238281</ele>
        <time>2011-07-08T19:51:44Z</time>
      </trkpt>
      <trkpt lat="48.06673" lon="-3.21683">
        <ele>134.2412109375</ele>
        <time>2011-07-08T19:51:50Z</time>
      </trkpt>
      <trkpt lat="48.06672" lon="-3.21702">
        <ele>137.12524414062</ele>
        <time>2011-07-08T19:51:54Z</time>
      </trkpt>
      <trkpt lat="48.06672" lon="-3.21706">
        <ele>138.56726074219</ele>
        <time>2011-07-08T19:51:55Z</time>
      </trkpt>
      <trkpt lat="48.06675" lon="-3.21721">
        <ele>142.89306640625</ele>
        <time>2011-07-08T19:52:00Z</time>
      </trkpt>
      <trkpt lat="48.06676" lon="-3.21749">
        <ele>141.93176269531</ele>
        <time>2011-07-08T19:52:08Z</time>
      </trkpt>
      <trkpt lat="48.06675" lon="-3.21757">
        <ele>141.93176269531</ele>
        <time>2011-07-08T19:52:10Z</time>
      </trkpt>
      <trkpt lat="48.06674" lon="-3.21763">
        <ele>142.41247558594</ele>
        <time>2011-07-08T19:52:12Z</time>
      </trkpt>
      <trkpt lat="48.06672" lon="-3.21781">
        <ele>143.37365722656</ele>
        <time>2011-07-08T19:52:18Z</time>
      </trkpt>
      <trkpt lat="48.06665" lon="-3.21801">
        <ele>143.37365722656</ele>
        <time>2011-07-08T19:52:23Z</time>
      </trkpt>
      <trkpt lat="48.06662" lon="-3.21811">
        <ele>143.85437011719</ele>
        <time>2011-07-08T19:52:26Z</time>
      </trkpt>
      <trkpt lat="48.06661" lon="-3.2182">
        <ele>146.2578125</ele>
        <time>2011-07-08T19:52:29Z</time>
      </trkpt>
      <trkpt lat="48.06657" lon="-3.21836">
        <ele>151.06420898438</ele>
        <time>2011-07-08T19:52:35Z</time>
      </trkpt>
      <trkpt lat="48.06654" lon="-3.21852">
        <ele>153.94836425781</ele>
        <time>2011-07-08T19:52:41Z</time>
      </trkpt>
      <trkpt lat="48.06651" lon="-3.21873">
        <ele>154.42895507812</ele>
        <time>2011-07-08T19:52:48Z</time>
      </trkpt>
      <trkpt lat="48.06649" lon="-3.21882">
        <ele>153.46765136719</ele>
        <time>2011-07-08T19:52:51Z</time>
      </trkpt>
      <trkpt lat="48.06648" lon="-3.21895">
        <ele>152.50634765625</ele>
        <time>2011-07-08T19:52:55Z</time>
      </trkpt>
      <trkpt lat="48.06644" lon="-3.21919">
        <ele>152.50634765625</ele>
        <time>2011-07-08T19:53:03Z</time>
      </trkpt>
      <trkpt lat="48.06641" lon="-3.21937">
        <ele>152.98693847656</ele>
        <time>2011-07-08T19:53:09Z</time>
      </trkpt>
      <trkpt lat="48.06637" lon="-3.21954">
        <ele>154.42895507812</ele>
        <time>2011-07-08T19:53:15Z</time>
      </trkpt>
      <trkpt lat="48.06635" lon="-3.21968">
        <ele>155.39025878906</ele>
        <time>2011-07-08T19:53:20Z</time>
      </trkpt>
      <trkpt lat="48.06637" lon="-3.21986">
        <ele>155.39025878906</ele>
        <time>2011-07-08T19:53:26Z</time>
      </trkpt>
      <trkpt lat="48.06645" lon="-3.22003">
        <ele>154.42895507812</ele>
        <time>2011-07-08T19:53:33Z</time>
      </trkpt>
      <trkpt lat="48.06649" lon="-3.22021">
        <ele>155.39025878906</ele>
        <time>2011-07-08T19:53:39Z</time>
      </trkpt>
      <trkpt lat="48.06651" lon="-3.22041">
        <ele>156.3515625</ele>
        <time>2011-07-08T19:53:45Z</time>
      </trkpt>
      <trkpt lat="48.06654" lon="-3.2206">
        <ele>156.3515625</ele>
        <time>2011-07-08T19:53:51Z</time>
      </trkpt>
      <trkpt lat="48.06654" lon="-3.22077">
        <ele>156.83215332031</ele>
        <time>2011-07-08T19:53:57Z</time>
      </trkpt>
      <trkpt lat="48.06653" lon="-3.22088">
        <ele>156.83215332031</ele>
        <time>2011-07-08T19:54:02Z</time>
      </trkpt>
      <trkpt lat="48.06651" lon="-3.22092">
        <ele>156.3515625</ele>
        <time>2011-07-08T19:54:04Z</time>
      </trkpt>
      <trkpt lat="48.0665" lon="-3.22107">
        <ele>156.3515625</ele>
        <time>2011-07-08T19:54:09Z</time>
      </trkpt>
      <trkpt lat="48.0665" lon="-3.22117">
        <ele>156.3515625</ele>
        <time>2011-07-08T19:54:12Z</time>
      </trkpt>
      <trkpt lat="48.06651" lon="-3.2213">
        <ele>156.3515625</ele>
        <time>2011-07-08T19:54:16Z</time>
      </trkpt>
      <trkpt lat="48.06649" lon="-3.22157">
        <ele>156.83215332031</ele>
        <time>2011-07-08T19:54:23Z</time>
      </trkpt>
      <trkpt lat="48.06651" lon="-3.22163">
        <ele>157.79357910156</ele>
        <time>2011-07-08T19:54:25Z</time>
      </trkpt>
      <trkpt lat="48.06656" lon="-3.22161">
        <ele>156.83215332031</ele>
        <time>2011-07-08T19:54:29Z</time>
      </trkpt>
      <trkpt lat="48.06671" lon="-3.22154">
        <ele>157.79357910156</ele>
        <time>2011-07-08T19:54:37Z</time>
      </trkpt>
      <trkpt lat="48.06679" lon="-3.22149">
        <ele>159.23547363281</ele>
        <time>2011-07-08T19:54:42Z</time>
      </trkpt>
      <trkpt lat="48.06688" lon="-3.22145">
        <ele>157.79357910156</ele>
        <time>2011-07-08T19:54:47Z</time>
      </trkpt>
      <trkpt lat="48.06699" lon="-3.22136">
        <ele>160.19689941406</ele>
        <time>2011-07-08T19:54:53Z</time>
      </trkpt>
      <trkpt lat="48.06704" lon="-3.22132">
        <ele>159.23547363281</ele>
        <time>2011-07-08T19:54:57Z</time>
      </trkpt>
      <trkpt lat="48.06716" lon="-3.22127">
        <ele>160.67749023438</ele>
        <time>2011-07-08T19:55:04Z</time>
      </trkpt>
      <trkpt lat="48.06726" lon="-3.22115">
        <ele>160.19689941406</ele>
        <time>2011-07-08T19:55:10Z</time>
      </trkpt>
      <trkpt lat="48.06731" lon="-3.22097">
        <ele>159.23547363281</ele>
        <time>2011-07-08T19:55:14Z</time>
      </trkpt>
      <trkpt lat="48.06733" lon="-3.2209">
        <ele>158.75476074219</ele>
        <time>2011-07-08T19:55:18Z</time>
      </trkpt>
      <trkpt lat="48.06735" lon="-3.22083">
        <ele>158.27416992188</ele>
        <time>2011-07-08T19:55:23Z</time>
      </trkpt>
      <trkpt lat="48.06736" lon="-3.22078">
        <ele>158.27416992188</ele>
        <time>2011-07-08T19:55:28Z</time>
      </trkpt>
      <trkpt lat="48.06738" lon="-3.22063">
        <ele>157.31286621094</ele>
        <time>2011-07-08T19:55:32Z</time>
      </trkpt>
      <trkpt lat="48.06741" lon="-3.22039">
        <ele>156.83215332031</ele>
        <time>2011-07-08T19:55:37Z</time>
      </trkpt>
      <trkpt lat="48.0675" lon="-3.22006">
        <ele>155.39025878906</ele>
        <time>2011-07-08T19:55:42Z</time>
      </trkpt>
      <trkpt lat="48.06767" lon="-3.21968">
        <ele>152.02575683594</ele>
        <time>2011-07-08T19:55:47Z</time>
      </trkpt>
      <trkpt lat="48.06783" lon="-3.21953">
        <ele>154.42895507812</ele>
        <time>2011-07-08T19:55:51Z</time>
      </trkpt>
      <trkpt lat="48.06786" lon="-3.21953">
        <ele>155.39025878906</ele>
        <time>2011-07-08T19:55:52Z</time>
      </trkpt>
      <trkpt lat="48.06792" lon="-3.21954">
        <ele>156.3515625</ele>
        <time>2011-07-08T19:55:54Z</time>
      </trkpt>
      <trkpt lat="48.06801" lon="-3.21955">
        <ele>155.87097167969</ele>
        <time>2011-07-08T19:55:57Z</time>
      </trkpt>
      <trkpt lat="48.06819" lon="-3.21958">
        <ele>157.31286621094</ele>
        <time>2011-07-08T19:56:03Z</time>
      </trkpt>
      <trkpt lat="48.06833" lon="-3.21958">
        <ele>157.79357910156</ele>
        <time>2011-07-08T19:56:07Z</time>
      </trkpt>
      <trkpt lat="48.0685" lon="-3.21958">
        <ele>160.19689941406</ele>
        <time>2011-07-08T19:56:12Z</time>
      </trkpt>
      <trkpt lat="48.06873" lon="-3.21957">
        <ele>162.60009765625</ele>
        <time>2011-07-08T19:56:19Z</time>
      </trkpt>
      <trkpt lat="48.06889" lon="-3.21957">
        <ele>165.00341796875</ele>
        <time>2011-07-08T19:56:24Z</time>
      </trkpt>
      <trkpt lat="48.06903" lon="-3.21956">
        <ele>167.88732910156</ele>
        <time>2011-07-08T19:56:29Z</time>
      </trkpt>
      <trkpt lat="48.06917" lon="-3.21953">
        <ele>169.32946777344</ele>
        <time>2011-07-08T19:56:34Z</time>
      </trkpt>
      <trkpt lat="48.06937" lon="-3.21949">
        <ele>173.17468261719</ele>
        <time>2011-07-08T19:56:42Z</time>
      </trkpt>
      <trkpt lat="48.06959" lon="-3.21958">
        <ele>174.61657714844</ele>
        <time>2011-07-08T19:56:51Z</time>
      </trkpt>
      <trkpt lat="48.06973" lon="-3.21965">
        <ele>176.05859375</ele>
        <time>2011-07-08T19:56:57Z</time>
      </trkpt>
      <trkpt lat="48.06984" lon="-3.21967">
        <ele>177.50061035156</ele>
        <time>2011-07-08T19:57:02Z</time>
      </trkpt>
      <trkpt lat="48.06993" lon="-3.21972">
        <ele>177.98120117188</ele>
        <time>2011-07-08T19:57:07Z</time>
      </trkpt>
      <trkpt lat="48.07011" lon="-3.21976">
        <ele>177.98120117188</ele>
        <time>2011-07-08T19:57:15Z</time>
      </trkpt>
      <trkpt lat="48.07035" lon="-3.21981">
        <ele>178.94262695312</ele>
        <time>2011-07-08T19:57:24Z</time>
      </trkpt>
      <trkpt lat="48.07047" lon="-3.21986">
        <ele>179.90380859375</ele>
        <time>2011-07-08T19:57:29Z</time>
      </trkpt>
      <trkpt lat="48.07062" lon="-3.21987">
        <ele>180.38452148438</ele>
        <time>2011-07-08T19:57:35Z</time>
      </trkpt>
      <trkpt lat="48.07067" lon="-3.21974">
        <ele>180.38452148438</ele>
        <time>2011-07-08T19:57:39Z</time>
      </trkpt>
      <trkpt lat="48.0707" lon="-3.21952">
        <ele>178.94262695312</ele>
        <time>2011-07-08T19:57:44Z</time>
      </trkpt>
      <trkpt lat="48.07072" lon="-3.21931">
        <ele>178.4619140625</ele>
        <time>2011-07-08T19:57:48Z</time>
      </trkpt>
      <trkpt lat="48.07074" lon="-3.21914">
        <ele>177.98120117188</ele>
        <time>2011-07-08T19:57:52Z</time>
      </trkpt>
      <trkpt lat="48.07077" lon="-3.21898">
        <ele>177.98120117188</ele>
        <time>2011-07-08T19:57:56Z</time>
      </trkpt>
      <trkpt lat="48.0708" lon="-3.21877">
        <ele>177.02001953125</ele>
        <time>2011-07-08T19:58:01Z</time>
      </trkpt>
      <trkpt lat="48.07083" lon="-3.21846">
        <ele>175.57788085938</ele>
        <time>2011-07-08T19:58:08Z</time>
      </trkpt>
      <trkpt lat="48.07086" lon="-3.21812">
        <ele>175.57788085938</ele>
        <time>2011-07-08T19:58:15Z</time>
      </trkpt>
      <trkpt lat="48.07092" lon="-3.21768">
        <ele>174.61657714844</ele>
        <time>2011-07-08T19:58:23Z</time>
      </trkpt>
      <trkpt lat="48.07093" lon="-3.21739">
        <ele>174.13586425781</ele>
        <time>2011-07-08T19:58:28Z</time>
      </trkpt>
      <trkpt lat="48.07096" lon="-3.21712">
        <ele>173.6552734375</ele>
        <time>2011-07-08T19:58:33Z</time>
      </trkpt>
      <trkpt lat="48.07109" lon="-3.21704">
        <ele>173.17468261719</ele>
        <time>2011-07-08T19:58:37Z</time>
      </trkpt>
      <trkpt lat="48.07149" lon="-3.21706">
        <ele>169.81005859375</ele>
        <time>2011-07-08T19:58:42Z</time>
      </trkpt>
      <trkpt lat="48.07188" lon="-3.21706">
        <ele>163.08081054688</ele>
        <time>2011-07-08T19:58:46Z</time>
      </trkpt>
      <trkpt lat="48.07205" lon="-3.21702">
        <ele>160.19689941406</ele>
        <time>2011-07-08T19:58:49Z</time>
      </trkpt>
      <trkpt lat="48.07209" lon="-3.21702">
        <ele>159.71618652344</ele>
        <time>2011-07-08T19:58:50Z</time>
      </trkpt>
      <trkpt lat="48.07213" lon="-3.21705">
        <ele>158.27416992188</ele>
        <time>2011-07-08T19:58:52Z</time>
      </trkpt>
      <trkpt lat="48.07218" lon="-3.21724">
        <ele>153.94836425781</ele>
        <time>2011-07-08T19:58:56Z</time>
      </trkpt>
      <trkpt lat="48.07221" lon="-3.21739">
        <ele>153.46765136719</ele>
        <time>2011-07-08T19:58:59Z</time>
      </trkpt>
      <trkpt lat="48.07222" lon="-3.21764">
        <ele>151.06420898438</ele>
        <time>2011-07-08T19:59:04Z</time>
      </trkpt>
      <trkpt lat="48.07228" lon="-3.21794">
        <ele>152.50634765625</ele>
        <time>2011-07-08T19:59:10Z</time>
      </trkpt>
      <trkpt lat="48.07243" lon="-3.21821">
        <ele>159.23547363281</ele>
        <time>2011-07-08T19:59:16Z</time>
      </trkpt>
      <trkpt lat="48.07261" lon="-3.21845">
        <ele>164.52270507812</ele>
        <time>2011-07-08T19:59:22Z</time>
      </trkpt>
      <trkpt lat="48.07263" lon="-3.2185">
        <ele>164.52270507812</ele>
        <time>2011-07-08T19:59:23Z</time>
      </trkpt>
      <trkpt lat="48.07279" lon="-3.21883">
        <ele>157.79357910156</ele>
        <time>2011-07-08T19:59:29Z</time>
      </trkpt>
      <trkpt lat="48.07294" lon="-3.21915">
        <ele>154.90954589844</ele>
        <time>2011-07-08T19:59:35Z</time>
      </trkpt>
      <trkpt lat="48.07304" lon="-3.21935">
        <ele>153.94836425781</ele>
        <time>2011-07-08T19:59:39Z</time>
      </trkpt>
      <trkpt lat="48.0732" lon="-3.2196">
        <ele>155.39025878906</ele>
        <time>2011-07-08T19:59:45Z</time>
      </trkpt>
      <trkpt lat="48.07336" lon="-3.21981">
        <ele>160.19689941406</ele>
        <time>2011-07-08T19:59:51Z</time>
      </trkpt>
      <trkpt lat="48.07352" lon="-3.22">
        <ele>163.08081054688</ele>
        <time>2011-07-08T19:59:57Z</time>
      </trkpt>
      <trkpt lat="48.07368" lon="-3.2202">
        <ele>165.00341796875</ele>
        <time>2011-07-08T20:00:03Z</time>
      </trkpt>
      <trkpt lat="48.07381" lon="-3.22038">
        <ele>167.88732910156</ele>
        <time>2011-07-08T20:00:08Z</time>
      </trkpt>
      <trkpt lat="48.07386" lon="-3.22053">
        <ele>168.36804199219</ele>
        <time>2011-07-08T20:00:12Z</time>
      </trkpt>
      <trkpt lat="48.07394" lon="-3.22077">
        <ele>170.77136230469</ele>
        <time>2011-07-08T20:00:18Z</time>
      </trkpt>
      <trkpt lat="48.07402" lon="-3.22095">
        <ele>174.61657714844</ele>
        <time>2011-07-08T20:00:23Z</time>
      </trkpt>
      <trkpt lat="48.07407" lon="-3.22106">
        <ele>173.17468261719</ele>
        <time>2011-07-08T20:00:26Z</time>
      </trkpt>
      <trkpt lat="48.07417" lon="-3.22121">
        <ele>171.73266601562</ele>
        <time>2011-07-08T20:00:31Z</time>
      </trkpt>
      <trkpt lat="48.07428" lon="-3.22137">
        <ele>170.29064941406</ele>
        <time>2011-07-08T20:00:36Z</time>
      </trkpt>
      <trkpt lat="48.07429" lon="-3.22141">
        <ele>170.77136230469</ele>
        <time>2011-07-08T20:00:37Z</time>
      </trkpt>
      <trkpt lat="48.07438" lon="-3.22163">
        <ele>171.73266601562</ele>
        <time>2011-07-08T20:00:44Z</time>
      </trkpt>
      <trkpt lat="48.07449" lon="-3.22184">
        <ele>169.81005859375</ele>
        <time>2011-07-08T20:00:51Z</time>
      </trkpt>
      <trkpt lat="48.07455" lon="-3.22204">
        <ele>171.73266601562</ele>
        <time>2011-07-08T20:00:56Z</time>
      </trkpt>
      <trkpt lat="48.07463" lon="-3.22223">
        <ele>169.81005859375</ele>
        <time>2011-07-08T20:01:01Z</time>
      </trkpt>
      <trkpt lat="48.07469" lon="-3.22242">
        <ele>169.32946777344</ele>
        <time>2011-07-08T20:01:06Z</time>
      </trkpt>
      <trkpt lat="48.07477" lon="-3.22263">
        <ele>170.29064941406</ele>
        <time>2011-07-08T20:01:12Z</time>
      </trkpt>
      <trkpt lat="48.07478" lon="-3.22266">
        <ele>170.29064941406</ele>
        <time>2011-07-08T20:01:13Z</time>
      </trkpt>
      <trkpt lat="48.07487" lon="-3.22265">
        <ele>170.77136230469</ele>
        <time>2011-07-08T20:01:18Z</time>
      </trkpt>
      <trkpt lat="48.07489" lon="-3.22263">
        <ele>171.25207519531</ele>
        <time>2011-07-08T20:01:19Z</time>
      </trkpt>
      <trkpt lat="48.07502" lon="-3.22254">
        <ele>171.25207519531</ele>
        <time>2011-07-08T20:01:26Z</time>
      </trkpt>
      <trkpt lat="48.07512" lon="-3.22248">
        <ele>171.25207519531</ele>
        <time>2011-07-08T20:01:32Z</time>
      </trkpt>
      <trkpt lat="48.07526" lon="-3.22242">
        <ele>171.25207519531</ele>
        <time>2011-07-08T20:01:39Z</time>
      </trkpt>
      <trkpt lat="48.07539" lon="-3.22238">
        <ele>172.69396972656</ele>
        <time>2011-07-08T20:01:46Z</time>
      </trkpt>
      <trkpt lat="48.07554" lon="-3.22235">
        <ele>175.57788085938</ele>
        <time>2011-07-08T20:01:53Z</time>
      </trkpt>
      <trkpt lat="48.07567" lon="-3.22234">
        <ele>178.4619140625</ele>
        <time>2011-07-08T20:01:59Z</time>
      </trkpt>
      <trkpt lat="48.07579" lon="-3.22226">
        <ele>183.26843261719</ele>
        <time>2011-07-08T20:02:05Z</time>
      </trkpt>
      <trkpt lat="48.07589" lon="-3.22224">
        <ele>185.67175292969</ele>
        <time>2011-07-08T20:02:09Z</time>
      </trkpt>
      <trkpt lat="48.07595" lon="-3.22224">
        <ele>185.67175292969</ele>
        <time>2011-07-08T20:02:12Z</time>
      </trkpt>
      <trkpt lat="48.0761" lon="-3.22227">
        <ele>185.67175292969</ele>
        <time>2011-07-08T20:02:18Z</time>
      </trkpt>
      <trkpt lat="48.07621" lon="-3.22233">
        <ele>185.67175292969</ele>
        <time>2011-07-08T20:02:23Z</time>
      </trkpt>
      <trkpt lat="48.07635" lon="-3.22241">
        <ele>184.22985839844</ele>
        <time>2011-07-08T20:02:28Z</time>
      </trkpt>
      <trkpt lat="48.07648" lon="-3.22246">
        <ele>186.15246582031</ele>
        <time>2011-07-08T20:02:33Z</time>
      </trkpt>
      <trkpt lat="48.07661" lon="-3.22253">
        <ele>189.03637695312</ele>
        <time>2011-07-08T20:02:38Z</time>
      </trkpt>
      <trkpt lat="48.07672" lon="-3.22257">
        <ele>192.40112304688</ele>
        <time>2011-07-08T20:02:43Z</time>
      </trkpt>
      <trkpt lat="48.07691" lon="-3.22265">
        <ele>196.72692871094</ele>
        <time>2011-07-08T20:02:49Z</time>
      </trkpt>
      <trkpt lat="48.07705" lon="-3.22272">
        <ele>202.01428222656</ele>
        <time>2011-07-08T20:02:54Z</time>
      </trkpt>
      <trkpt lat="48.07721" lon="-3.22278">
        <ele>202.97546386719</ele>
        <time>2011-07-08T20:02:59Z</time>
      </trkpt>
      <trkpt lat="48.07742" lon="-3.22287">
        <ele>198.64953613281</ele>
        <time>2011-07-08T20:03:06Z</time>
      </trkpt>
      <trkpt lat="48.07763" lon="-3.2229">
        <ele>195.28491210938</ele>
        <time>2011-07-08T20:03:13Z</time>
      </trkpt>
      <trkpt lat="48.0778" lon="-3.22291">
        <ele>194.80432128906</ele>
        <time>2011-07-08T20:03:18Z</time>
      </trkpt>
      <trkpt lat="48.07797" lon="-3.22296">
        <ele>193.84301757812</ele>
        <time>2011-07-08T20:03:23Z</time>
      </trkpt>
      <trkpt lat="48.07813" lon="-3.22303">
        <ele>193.84301757812</ele>
        <time>2011-07-08T20:03:28Z</time>
      </trkpt>
      <trkpt lat="48.07827" lon="-3.22308">
        <ele>195.765625</ele>
        <time>2011-07-08T20:03:33Z</time>
      </trkpt>
      <trkpt lat="48.07841" lon="-3.2231">
        <ele>198.1689453125</ele>
        <time>2011-07-08T20:03:38Z</time>
      </trkpt>
      <trkpt lat="48.07858" lon="-3.22314">
        <ele>203.45617675781</ele>
        <time>2011-07-08T20:03:43Z</time>
      </trkpt>
      <trkpt lat="48.07874" lon="-3.22328">
        <ele>204.41748046875</ele>
        <time>2011-07-08T20:03:48Z</time>
      </trkpt>
      <trkpt lat="48.07883" lon="-3.22337">
        <ele>205.37878417969</ele>
        <time>2011-07-08T20:03:52Z</time>
      </trkpt>
      <trkpt lat="48.07908" lon="-3.22352">
        <ele>207.30139160156</ele>
        <time>2011-07-08T20:03:58Z</time>
      </trkpt>
      <trkpt lat="48.0793" lon="-3.22367">
        <ele>210.666015625</ele>
        <time>2011-07-08T20:04:04Z</time>
      </trkpt>
      <trkpt lat="48.07938" lon="-3.22372">
        <ele>212.58862304688</ele>
        <time>2011-07-08T20:04:06Z</time>
      </trkpt>
      <trkpt lat="48.07954" lon="-3.22386">
        <ele>212.10803222656</ele>
        <time>2011-07-08T20:04:11Z</time>
      </trkpt>
      <trkpt lat="48.07969" lon="-3.22398">
        <ele>212.58862304688</ele>
        <time>2011-07-08T20:04:16Z</time>
      </trkpt>
      <trkpt lat="48.07984" lon="-3.22416">
        <ele>210.18542480469</ele>
        <time>2011-07-08T20:04:21Z</time>
      </trkpt>
      <trkpt lat="48.07994" lon="-3.2244">
        <ele>207.30139160156</ele>
        <time>2011-07-08T20:04:26Z</time>
      </trkpt>
      <trkpt lat="48.08" lon="-3.22457">
        <ele>208.74340820312</ele>
        <time>2011-07-08T20:04:29Z</time>
      </trkpt>
      <trkpt lat="48.08011" lon="-3.22478">
        <ele>208.74340820312</ele>
        <time>2011-07-08T20:04:34Z</time>
      </trkpt>
      <trkpt lat="48.08013" lon="-3.22482">
        <ele>208.74340820312</ele>
        <time>2011-07-08T20:04:35Z</time>
      </trkpt>
      <trkpt lat="48.08014" lon="-3.22495">
        <ele>210.18542480469</ele>
        <time>2011-07-08T20:04:40Z</time>
      </trkpt>
      <trkpt lat="48.0801" lon="-3.225">
        <ele>209.70483398438</ele>
        <time>2011-07-08T20:04:45Z</time>
      </trkpt>
      <trkpt lat="48.08009" lon="-3.22502">
        <ele>206.82067871094</ele>
        <time>2011-07-08T20:04:54Z</time>
      </trkpt>
      <trkpt lat="48.08009" lon="-3.22502">
        <ele>205.85949707031</ele>
        <time>2011-07-08T20:04:59Z</time>
      </trkpt>
      <trkpt lat="48.08009" lon="-3.22502">
        <ele>206.34008789062</ele>
        <time>2011-07-08T20:05:03Z</time>
      </trkpt>
      <trkpt lat="48.0801" lon="-3.22503">
        <ele>206.34008789062</ele>
        <time>2011-07-08T20:05:05Z</time>
      </trkpt>
      <trkpt lat="48.0801" lon="-3.225">
        <ele>206.34008789062</ele>
        <time>2011-07-08T20:05:10Z</time>
      </trkpt>
      <trkpt lat="48.0801" lon="-3.22499">
        <ele>209.70483398438</ele>
        <time>2011-07-08T20:05:13Z</time>
      </trkpt>
      <trkpt lat="48.0801" lon="-3.22497">
        <ele>210.666015625</ele>
        <time>2011-07-08T20:05:22Z</time>
      </trkpt>
      <trkpt lat="48.08007" lon="-3.22502">
        <ele>208.26281738281</ele>
        <time>2011-07-08T20:05:31Z</time>
      </trkpt>
      <trkpt lat="48.08005" lon="-3.22504">
        <ele>209.22412109375</ele>
        <time>2011-07-08T20:05:34Z</time>
      </trkpt>
      <trkpt lat="48.08001" lon="-3.22507">
        <ele>210.666015625</ele>
        <time>2011-07-08T20:05:39Z</time>
      </trkpt>
      <trkpt lat="48.07994" lon="-3.22523">
        <ele>210.666015625</ele>
        <time>2011-07-08T20:05:43Z</time>
      </trkpt>
      <trkpt lat="48.0799" lon="-3.22533">
        <ele>209.22412109375</ele>
        <time>2011-07-08T20:05:46Z</time>
      </trkpt>
      <trkpt lat="48.07989" lon="-3.22536">
        <ele>209.22412109375</ele>
        <time>2011-07-08T20:05:47Z</time>
      </trkpt>
      <trkpt lat="48.07988" lon="-3.22538">
        <ele>209.70483398438</ele>
        <time>2011-07-08T20:05:48Z</time>
      </trkpt>
      <trkpt lat="48.07982" lon="-3.22547">
        <ele>208.74340820312</ele>
        <time>2011-07-08T20:05:51Z</time>
      </trkpt>
      <trkpt lat="48.0798" lon="-3.2255">
        <ele>208.74340820312</ele>
        <time>2011-07-08T20:05:52Z</time>
      </trkpt>
      <trkpt lat="48.07973" lon="-3.22561">
        <ele>208.74340820312</ele>
        <time>2011-07-08T20:05:56Z</time>
      </trkpt>
      <trkpt lat="48.0797" lon="-3.2257">
        <ele>211.14672851562</ele>
        <time>2011-07-08T20:05:59Z</time>
      </trkpt>
      <trkpt lat="48.07966" lon="-3.22577">
        <ele>211.14672851562</ele>
        <time>2011-07-08T20:06:01Z</time>
      </trkpt>
      <trkpt lat="48.07957" lon="-3.22595">
        <ele>211.14672851562</ele>
        <time>2011-07-08T20:06:06Z</time>
      </trkpt>
      <trkpt lat="48.07956" lon="-3.22598">
        <ele>211.62744140625</ele>
        <time>2011-07-08T20:06:07Z</time>
      </trkpt>
      <trkpt lat="48.07958" lon="-3.22613">
        <ele>215.95324707031</ele>
        <time>2011-07-08T20:06:12Z</time>
      </trkpt>
      <trkpt lat="48.07963" lon="-3.22627">
        <ele>218.83728027344</ele>
        <time>2011-07-08T20:06:16Z</time>
      </trkpt>
      <trkpt lat="48.07959" lon="-3.22639">
        <ele>220.27917480469</ele>
        <time>2011-07-08T20:06:20Z</time>
      </trkpt>
      <trkpt lat="48.07956" lon="-3.22647">
        <ele>219.31799316406</ele>
        <time>2011-07-08T20:06:22Z</time>
      </trkpt>
      <trkpt lat="48.07951" lon="-3.22669">
        <ele>218.83728027344</ele>
        <time>2011-07-08T20:06:28Z</time>
      </trkpt>
      <trkpt lat="48.07945" lon="-3.22684">
        <ele>223.64379882812</ele>
        <time>2011-07-08T20:06:34Z</time>
      </trkpt>
      <trkpt lat="48.07939" lon="-3.22702">
        <ele>221.72119140625</ele>
        <time>2011-07-08T20:06:38Z</time>
      </trkpt>
      <trkpt lat="48.07933" lon="-3.22709">
        <ele>221.72119140625</ele>
        <time>2011-07-08T20:06:41Z</time>
      </trkpt>
      <trkpt lat="48.0793" lon="-3.22719">
        <ele>220.27917480469</ele>
        <time>2011-07-08T20:06:45Z</time>
      </trkpt>
      <trkpt lat="48.07929" lon="-3.22722">
        <ele>219.79858398438</ele>
        <time>2011-07-08T20:06:46Z</time>
      </trkpt>
      <trkpt lat="48.0792" lon="-3.22739">
        <ele>213.55004882812</ele>
        <time>2011-07-08T20:06:51Z</time>
      </trkpt>
      <trkpt lat="48.07919" lon="-3.22741">
        <ele>212.10803222656</ele>
        <time>2011-07-08T20:06:52Z</time>
      </trkpt>
      <trkpt lat="48.07906" lon="-3.22742">
        <ele>212.10803222656</ele>
        <time>2011-07-08T20:06:57Z</time>
      </trkpt>
      <trkpt lat="48.07893" lon="-3.22755">
        <ele>215.47265625</ele>
        <time>2011-07-08T20:07:02Z</time>
      </trkpt>
      <trkpt lat="48.07872" lon="-3.22775">
        <ele>214.51123046875</ele>
        <time>2011-07-08T20:07:06Z</time>
      </trkpt>
      <trkpt lat="48.07866" lon="-3.2278">
        <ele>214.51123046875</ele>
        <time>2011-07-08T20:07:08Z</time>
      </trkpt>
      <trkpt lat="48.07861" lon="-3.22795">
        <ele>216.43395996094</ele>
        <time>2011-07-08T20:07:13Z</time>
      </trkpt>
      <trkpt lat="48.07852" lon="-3.22809">
        <ele>214.03063964844</ele>
        <time>2011-07-08T20:07:18Z</time>
      </trkpt>
      <trkpt lat="48.07851" lon="-3.22825">
        <ele>214.99194335938</ele>
        <time>2011-07-08T20:07:21Z</time>
      </trkpt>
      <trkpt lat="48.07855" lon="-3.22838">
        <ele>214.99194335938</ele>
        <time>2011-07-08T20:07:26Z</time>
      </trkpt>
      <trkpt lat="48.07856" lon="-3.2284">
        <ele>215.95324707031</ele>
        <time>2011-07-08T20:07:27Z</time>
      </trkpt>
      <trkpt lat="48.07857" lon="-3.22853">
        <ele>212.58862304688</ele>
        <time>2011-07-08T20:07:31Z</time>
      </trkpt>
      <trkpt lat="48.07858" lon="-3.22864">
        <ele>209.70483398438</ele>
        <time>2011-07-08T20:07:34Z</time>
      </trkpt>
      <trkpt lat="48.07858" lon="-3.22878">
        <ele>210.18542480469</ele>
        <time>2011-07-08T20:07:39Z</time>
      </trkpt>
      <trkpt lat="48.07853" lon="-3.22897">
        <ele>211.62744140625</ele>
        <time>2011-07-08T20:07:43Z</time>
      </trkpt>
      <trkpt lat="48.07846" lon="-3.22916">
        <ele>208.74340820312</ele>
        <time>2011-07-08T20:07:48Z</time>
      </trkpt>
      <trkpt lat="48.07832" lon="-3.22922">
        <ele>207.78210449219</ele>
        <time>2011-07-08T20:07:52Z</time>
      </trkpt>
      <trkpt lat="48.07827" lon="-3.22928">
        <ele>207.78210449219</ele>
        <time>2011-07-08T20:07:54Z</time>
      </trkpt>
      <trkpt lat="48.07824" lon="-3.22932">
        <ele>206.82067871094</ele>
        <time>2011-07-08T20:07:55Z</time>
      </trkpt>
      <trkpt lat="48.07822" lon="-3.22937">
        <ele>206.82067871094</ele>
        <time>2011-07-08T20:07:56Z</time>
      </trkpt>
      <trkpt lat="48.07821" lon="-3.22953">
        <ele>206.34008789062</ele>
        <time>2011-07-08T20:08:00Z</time>
      </trkpt>
      <trkpt lat="48.07818" lon="-3.22964">
        <ele>204.41748046875</ele>
        <time>2011-07-08T20:08:03Z</time>
      </trkpt>
      <trkpt lat="48.07808" lon="-3.2299">
        <ele>205.37878417969</ele>
        <time>2011-07-08T20:08:09Z</time>
      </trkpt>
      <trkpt lat="48.07801" lon="-3.23006">
        <ele>205.85949707031</ele>
        <time>2011-07-08T20:08:13Z</time>
      </trkpt>
      <trkpt lat="48.07791" lon="-3.23028">
        <ele>205.37878417969</ele>
        <time>2011-07-08T20:08:18Z</time>
      </trkpt>
      <trkpt lat="48.07789" lon="-3.23033">
        <ele>205.85949707031</ele>
        <time>2011-07-08T20:08:19Z</time>
      </trkpt>
      <trkpt lat="48.07784" lon="-3.23052">
        <ele>209.22412109375</ele>
        <time>2011-07-08T20:08:24Z</time>
      </trkpt>
      <trkpt lat="48.07771" lon="-3.2307">
        <ele>206.34008789062</ele>
        <time>2011-07-08T20:08:28Z</time>
      </trkpt>
      <trkpt lat="48.07763" lon="-3.23092">
        <ele>209.22412109375</ele>
        <time>2011-07-08T20:08:32Z</time>
      </trkpt>
      <trkpt lat="48.07759" lon="-3.23107">
        <ele>210.666015625</ele>
        <time>2011-07-08T20:08:35Z</time>
      </trkpt>
      <trkpt lat="48.07758" lon="-3.23131">
        <ele>210.666015625</ele>
        <time>2011-07-08T20:08:41Z</time>
      </trkpt>
      <trkpt lat="48.0775" lon="-3.23147">
        <ele>208.74340820312</ele>
        <time>2011-07-08T20:08:45Z</time>
      </trkpt>
      <trkpt lat="48.07745" lon="-3.23161">
        <ele>209.22412109375</ele>
        <time>2011-07-08T20:08:49Z</time>
      </trkpt>
      <trkpt lat="48.07743" lon="-3.23162">
        <ele>208.74340820312</ele>
        <time>2011-07-08T20:08:50Z</time>
      </trkpt>
      <trkpt lat="48.07727" lon="-3.23165">
        <ele>207.78210449219</ele>
        <time>2011-07-08T20:08:55Z</time>
      </trkpt>
      <trkpt lat="48.07714" lon="-3.23164">
        <ele>205.85949707031</ele>
        <time>2011-07-08T20:08:58Z</time>
      </trkpt>
      <trkpt lat="48.077" lon="-3.23165">
        <ele>202.49487304688</ele>
        <time>2011-07-08T20:09:03Z</time>
      </trkpt>
      <trkpt lat="48.07685" lon="-3.23178">
        <ele>198.64953613281</ele>
        <time>2011-07-08T20:09:08Z</time>
      </trkpt>
      <trkpt lat="48.07667" lon="-3.23191">
        <ele>193.3623046875</ele>
        <time>2011-07-08T20:09:13Z</time>
      </trkpt>
      <trkpt lat="48.0765" lon="-3.23203">
        <ele>191.92028808594</ele>
        <time>2011-07-08T20:09:19Z</time>
      </trkpt>
      <trkpt lat="48.07646" lon="-3.23203">
        <ele>190.47839355469</ele>
        <time>2011-07-08T20:09:22Z</time>
      </trkpt>
      <trkpt lat="48.07633" lon="-3.23204">
        <ele>187.11376953125</ele>
        <time>2011-07-08T20:09:27Z</time>
      </trkpt>
      <trkpt lat="48.07631" lon="-3.23203">
        <ele>188.07507324219</ele>
        <time>2011-07-08T20:09:28Z</time>
      </trkpt>
      <trkpt lat="48.07622" lon="-3.23204">
        <ele>184.71057128906</ele>
        <time>2011-07-08T20:09:33Z</time>
      </trkpt>
      <trkpt lat="48.07614" lon="-3.23204">
        <ele>184.22985839844</ele>
        <time>2011-07-08T20:09:38Z</time>
      </trkpt>
      <trkpt lat="48.07612" lon="-3.23203">
        <ele>185.19116210938</ele>
        <time>2011-07-08T20:09:40Z</time>
      </trkpt>
      <trkpt lat="48.07601" lon="-3.23203">
        <ele>184.22985839844</ele>
        <time>2011-07-08T20:09:46Z</time>
      </trkpt>
      <trkpt lat="48.07586" lon="-3.2321">
        <ele>178.94262695312</ele>
        <time>2011-07-08T20:09:52Z</time>
      </trkpt>
      <trkpt lat="48.07576" lon="-3.23203">
        <ele>171.25207519531</ele>
        <time>2011-07-08T20:09:57Z</time>
      </trkpt>
      <trkpt lat="48.07572" lon="-3.23198">
        <ele>166.92602539062</ele>
        <time>2011-07-08T20:10:01Z</time>
      </trkpt>
      <trkpt lat="48.0757" lon="-3.23195">
        <ele>162.11950683594</ele>
        <time>2011-07-08T20:10:05Z</time>
      </trkpt>
      <trkpt lat="48.07567" lon="-3.23195">
        <ele>158.27416992188</ele>
        <time>2011-07-08T20:10:07Z</time>
      </trkpt>
      <trkpt lat="48.07566" lon="-3.23194">
        <ele>162.60009765625</ele>
        <time>2011-07-08T20:10:13Z</time>
      </trkpt>
      <trkpt lat="48.07566" lon="-3.23193">
        <ele>164.04211425781</ele>
        <time>2011-07-08T20:10:14Z</time>
      </trkpt>
      <trkpt lat="48.07571" lon="-3.23194">
        <ele>165.00341796875</ele>
        <time>2011-07-08T20:10:27Z</time>
      </trkpt>
      <trkpt lat="48.07571" lon="-3.23194">
        <ele>165.00341796875</ele>
        <time>2011-07-08T20:10:29Z</time>
      </trkpt>
      <trkpt lat="48.07569" lon="-3.23185">
        <ele>173.6552734375</ele>
        <time>2011-07-08T20:10:45Z</time>
      </trkpt>
      <trkpt lat="48.07567" lon="-3.2319">
        <ele>164.04211425781</ele>
        <time>2011-07-08T20:10:58Z</time>
      </trkpt>
      <trkpt lat="48.07567" lon="-3.2319">
        <ele>163.5615234375</ele>
        <time>2011-07-08T20:10:59Z</time>
      </trkpt>
      <trkpt lat="48.07568" lon="-3.23188">
        <ele>165.96472167969</ele>
        <time>2011-07-08T20:11:05Z</time>
      </trkpt>
      <trkpt lat="48.07568" lon="-3.23191">
        <ele>161.158203125</ele>
        <time>2011-07-08T20:11:08Z</time>
      </trkpt>
      <trkpt lat="48.07568" lon="-3.23191">
        <ele>163.5615234375</ele>
        <time>2011-07-08T20:11:14Z</time>
      </trkpt>
      <trkpt lat="48.07567" lon="-3.23186">
        <ele>181.34582519531</ele>
        <time>2011-07-08T20:11:25Z</time>
      </trkpt>
      <trkpt lat="48.0757" lon="-3.2319">
        <ele>181.34582519531</ele>
        <time>2011-07-08T20:11:48Z</time>
      </trkpt>
      <trkpt lat="48.0757" lon="-3.23191">
        <ele>183.26843261719</ele>
        <time>2011-07-08T20:11:56Z</time>
      </trkpt>
      <trkpt lat="48.07566" lon="-3.23197">
        <ele>183.7490234375</ele>
        <time>2011-07-08T20:12:00Z</time>
      </trkpt>
      <trkpt lat="48.07561" lon="-3.23204">
        <ele>181.34582519531</ele>
        <time>2011-07-08T20:12:03Z</time>
      </trkpt>
      <trkpt lat="48.0756" lon="-3.23206">
        <ele>181.34582519531</ele>
        <time>2011-07-08T20:12:04Z</time>
      </trkpt>
      <trkpt lat="48.07552" lon="-3.23216">
        <ele>182.78784179688</ele>
        <time>2011-07-08T20:12:07Z</time>
      </trkpt>
      <trkpt lat="48.0755" lon="-3.23218">
        <ele>184.22985839844</ele>
        <time>2011-07-08T20:12:08Z</time>
      </trkpt>
      <trkpt lat="48.07541" lon="-3.23226">
        <ele>187.59436035156</ele>
        <time>2011-07-08T20:12:11Z</time>
      </trkpt>
      <trkpt lat="48.07529" lon="-3.23238">
        <ele>189.51696777344</ele>
        <time>2011-07-08T20:12:14Z</time>
      </trkpt>
      <trkpt lat="48.07517" lon="-3.23252">
        <ele>190.47839355469</ele>
        <time>2011-07-08T20:12:19Z</time>
      </trkpt>
      <trkpt lat="48.07506" lon="-3.23263">
        <ele>191.92028808594</ele>
        <time>2011-07-08T20:12:23Z</time>
      </trkpt>
      <trkpt lat="48.07494" lon="-3.23278">
        <ele>190.958984375</ele>
        <time>2011-07-08T20:12:28Z</time>
      </trkpt>
      <trkpt lat="48.07484" lon="-3.23289">
        <ele>191.43957519531</ele>
        <time>2011-07-08T20:12:32Z</time>
      </trkpt>
      <trkpt lat="48.07477" lon="-3.23307">
        <ele>177.02001953125</ele>
        <time>2011-07-08T20:12:36Z</time>
      </trkpt>
      <trkpt lat="48.07472" lon="-3.2332">
        <ele>172.69396972656</ele>
        <time>2011-07-08T20:12:39Z</time>
      </trkpt>
      <trkpt lat="48.07463" lon="-3.23336">
        <ele>168.84875488281</ele>
        <time>2011-07-08T20:12:43Z</time>
      </trkpt>
      <trkpt lat="48.07449" lon="-3.23362">
        <ele>171.25207519531</ele>
        <time>2011-07-08T20:12:49Z</time>
      </trkpt>
      <trkpt lat="48.07443" lon="-3.23384">
        <ele>168.84875488281</ele>
        <time>2011-07-08T20:12:54Z</time>
      </trkpt>
      <trkpt lat="48.0744" lon="-3.23403">
        <ele>171.73266601562</ele>
        <time>2011-07-08T20:12:59Z</time>
      </trkpt>
      <trkpt lat="48.07437" lon="-3.23423">
        <ele>174.13586425781</ele>
        <time>2011-07-08T20:13:04Z</time>
      </trkpt>
      <trkpt lat="48.07435" lon="-3.23437">
        <ele>171.73266601562</ele>
        <time>2011-07-08T20:13:07Z</time>
      </trkpt>
      <trkpt lat="48.07433" lon="-3.23456">
        <ele>171.25207519531</ele>
        <time>2011-07-08T20:13:12Z</time>
      </trkpt>
      <trkpt lat="48.07431" lon="-3.23477">
        <ele>170.29064941406</ele>
        <time>2011-07-08T20:13:16Z</time>
      </trkpt>
      <trkpt lat="48.0743" lon="-3.23494">
        <ele>173.17468261719</ele>
        <time>2011-07-08T20:13:20Z</time>
      </trkpt>
      <trkpt lat="48.0743" lon="-3.23525">
        <ele>176.05859375</ele>
        <time>2011-07-08T20:13:26Z</time>
      </trkpt>
      <trkpt lat="48.07434" lon="-3.23558">
        <ele>177.50061035156</ele>
        <time>2011-07-08T20:13:34Z</time>
      </trkpt>
      <trkpt lat="48.0744" lon="-3.23584">
        <ele>178.4619140625</ele>
        <time>2011-07-08T20:13:41Z</time>
      </trkpt>
      <trkpt lat="48.07447" lon="-3.23616">
        <ele>180.38452148438</ele>
        <time>2011-07-08T20:13:50Z</time>
      </trkpt>
      <trkpt lat="48.07457" lon="-3.23633">
        <ele>181.82641601562</ele>
        <time>2011-07-08T20:13:56Z</time>
      </trkpt>
      <trkpt lat="48.07462" lon="-3.23646">
        <ele>182.30712890625</ele>
        <time>2011-07-08T20:14:01Z</time>
      </trkpt>
      <trkpt lat="48.07468" lon="-3.2366">
        <ele>181.82641601562</ele>
        <time>2011-07-08T20:14:07Z</time>
      </trkpt>
      <trkpt lat="48.07471" lon="-3.23655">
        <ele>181.82641601562</ele>
        <time>2011-07-08T20:14:11Z</time>
      </trkpt>
      <trkpt lat="48.07474" lon="-3.23641">
        <ele>183.26843261719</ele>
        <time>2011-07-08T20:14:15Z</time>
      </trkpt>
      <trkpt lat="48.07477" lon="-3.23619">
        <ele>183.7490234375</ele>
        <time>2011-07-08T20:14:21Z</time>
      </trkpt>
      <trkpt lat="48.07479" lon="-3.23607">
        <ele>184.22985839844</ele>
        <time>2011-07-08T20:14:25Z</time>
      </trkpt>
      <trkpt lat="48.07486" lon="-3.23586">
        <ele>182.78784179688</ele>
        <time>2011-07-08T20:14:32Z</time>
      </trkpt>
      <trkpt lat="48.07492" lon="-3.23567">
        <ele>179.90380859375</ele>
        <time>2011-07-08T20:14:38Z</time>
      </trkpt>
      <trkpt lat="48.07497" lon="-3.23545">
        <ele>189.99768066406</ele>
        <time>2011-07-08T20:14:43Z</time>
      </trkpt>
      <trkpt lat="48.07501" lon="-3.23526">
        <ele>193.84301757812</ele>
        <time>2011-07-08T20:14:48Z</time>
      </trkpt>
      <trkpt lat="48.07509" lon="-3.23512">
        <ele>189.51696777344</ele>
        <time>2011-07-08T20:14:53Z</time>
      </trkpt>
      <trkpt lat="48.07517" lon="-3.235">
        <ele>184.22985839844</ele>
        <time>2011-07-08T20:14:58Z</time>
      </trkpt>
      <trkpt lat="48.07524" lon="-3.2349">
        <ele>177.98120117188</ele>
        <time>2011-07-08T20:15:02Z</time>
      </trkpt>
      <trkpt lat="48.07527" lon="-3.23485">
        <ele>176.05859375</ele>
        <time>2011-07-08T20:15:04Z</time>
      </trkpt>
      <trkpt lat="48.07539" lon="-3.23467">
        <ele>170.29064941406</ele>
        <time>2011-07-08T20:15:11Z</time>
      </trkpt>
      <trkpt lat="48.07552" lon="-3.2345">
        <ele>169.32946777344</ele>
        <time>2011-07-08T20:15:16Z</time>
      </trkpt>
      <trkpt lat="48.07564" lon="-3.23435">
        <ele>167.88732910156</ele>
        <time>2011-07-08T20:15:21Z</time>
      </trkpt>
      <trkpt lat="48.07574" lon="-3.23423">
        <ele>165.96472167969</ele>
        <time>2011-07-08T20:15:26Z</time>
      </trkpt>
      <trkpt lat="48.07588" lon="-3.23412">
        <ele>164.04211425781</ele>
        <time>2011-07-08T20:15:31Z</time>
      </trkpt>
      <trkpt lat="48.07602" lon="-3.23396">
        <ele>166.4453125</ele>
        <time>2011-07-08T20:15:37Z</time>
      </trkpt>
      <trkpt lat="48.07613" lon="-3.23377">
        <ele>170.77136230469</ele>
        <time>2011-07-08T20:15:43Z</time>
      </trkpt>
      <trkpt lat="48.07624" lon="-3.23361">
        <ele>172.69396972656</ele>
        <time>2011-07-08T20:15:48Z</time>
      </trkpt>
      <trkpt lat="48.07635" lon="-3.23349">
        <ele>175.09729003906</ele>
        <time>2011-07-08T20:15:53Z</time>
      </trkpt>
      <trkpt lat="48.07646" lon="-3.23337">
        <ele>178.4619140625</ele>
        <time>2011-07-08T20:15:58Z</time>
      </trkpt>
      <trkpt lat="48.07658" lon="-3.23322">
        <ele>178.94262695312</ele>
        <time>2011-07-08T20:16:03Z</time>
      </trkpt>
      <trkpt lat="48.07671" lon="-3.2331">
        <ele>181.82641601562</ele>
        <time>2011-07-08T20:16:08Z</time>
      </trkpt>
      <trkpt lat="48.07685" lon="-3.23298">
        <ele>180.865234375</ele>
        <time>2011-07-08T20:16:13Z</time>
      </trkpt>
      <trkpt lat="48.07697" lon="-3.23288">
        <ele>180.865234375</ele>
        <time>2011-07-08T20:16:17Z</time>
      </trkpt>
      <trkpt lat="48.07699" lon="-3.2328">
        <ele>193.3623046875</ele>
        <time>2011-07-08T20:16:22Z</time>
      </trkpt>
      <trkpt lat="48.07699" lon="-3.23275">
        <ele>204.89807128906</ele>
        <time>2011-07-08T20:16:30Z</time>
      </trkpt>
      <trkpt lat="48.07701" lon="-3.23278">
        <ele>208.26281738281</ele>
        <time>2011-07-08T20:16:37Z</time>
      </trkpt>
      <trkpt lat="48.07708" lon="-3.23272">
        <ele>208.74340820312</ele>
        <time>2011-07-08T20:16:43Z</time>
      </trkpt>
      <trkpt lat="48.07713" lon="-3.23265">
        <ele>208.74340820312</ele>
        <time>2011-07-08T20:16:49Z</time>
      </trkpt>
      <trkpt lat="48.07722" lon="-3.23252">
        <ele>207.78210449219</ele>
        <time>2011-07-08T20:16:56Z</time>
      </trkpt>
      <trkpt lat="48.07729" lon="-3.23238">
        <ele>209.22412109375</ele>
        <time>2011-07-08T20:17:03Z</time>
      </trkpt>
      <trkpt lat="48.0774" lon="-3.23227">
        <ele>211.14672851562</ele>
        <time>2011-07-08T20:17:09Z</time>
      </trkpt>
      <trkpt lat="48.07742" lon="-3.23224">
        <ele>212.10803222656</ele>
        <time>2011-07-08T20:17:10Z</time>
      </trkpt>
      <trkpt lat="48.07747" lon="-3.23215">
        <ele>212.58862304688</ele>
        <time>2011-07-08T20:17:14Z</time>
      </trkpt>
      <trkpt lat="48.07756" lon="-3.23201">
        <ele>209.70483398438</ele>
        <time>2011-07-08T20:17:20Z</time>
      </trkpt>
      <trkpt lat="48.07761" lon="-3.23192">
        <ele>208.26281738281</ele>
        <time>2011-07-08T20:17:24Z</time>
      </trkpt>
      <trkpt lat="48.07763" lon="-3.23191">
        <ele>210.666015625</ele>
        <time>2011-07-08T20:17:28Z</time>
      </trkpt>
      <trkpt lat="48.07768" lon="-3.23191">
        <ele>212.58862304688</ele>
        <time>2011-07-08T20:17:35Z</time>
      </trkpt>
      <trkpt lat="48.07769" lon="-3.23191">
        <ele>214.51123046875</ele>
        <time>2011-07-08T20:17:40Z</time>
      </trkpt>
      <trkpt lat="48.07766" lon="-3.23196">
        <ele>216.91467285156</ele>
        <time>2011-07-08T20:17:46Z</time>
      </trkpt>
      <trkpt lat="48.07767" lon="-3.23193">
        <ele>217.8759765625</ele>
        <time>2011-07-08T20:17:54Z</time>
      </trkpt>
      <trkpt lat="48.07767" lon="-3.23192">
        <ele>218.83728027344</ele>
        <time>2011-07-08T20:17:57Z</time>
      </trkpt>
      <trkpt lat="48.07768" lon="-3.23192">
        <ele>220.27917480469</ele>
        <time>2011-07-08T20:18:02Z</time>
      </trkpt>
      <trkpt lat="48.07769" lon="-3.23192">
        <ele>220.75988769531</ele>
        <time>2011-07-08T20:18:04Z</time>
      </trkpt>
      <trkpt lat="48.07771" lon="-3.23182">
        <ele>217.39538574219</ele>
        <time>2011-07-08T20:18:08Z</time>
      </trkpt>
      <trkpt lat="48.07781" lon="-3.2316">
        <ele>212.10803222656</ele>
        <time>2011-07-08T20:18:14Z</time>
      </trkpt>
      <trkpt lat="48.07789" lon="-3.23152">
        <ele>210.18542480469</ele>
        <time>2011-07-08T20:18:17Z</time>
      </trkpt>
      <trkpt lat="48.07798" lon="-3.23139">
        <ele>212.10803222656</ele>
        <time>2011-07-08T20:18:21Z</time>
      </trkpt>
      <trkpt lat="48.07805" lon="-3.23127">
        <ele>213.55004882812</ele>
        <time>2011-07-08T20:18:24Z</time>
      </trkpt>
      <trkpt lat="48.07817" lon="-3.23111">
        <ele>212.10803222656</ele>
        <time>2011-07-08T20:18:29Z</time>
      </trkpt>
      <trkpt lat="48.07827" lon="-3.231">
        <ele>213.55004882812</ele>
        <time>2011-07-08T20:18:33Z</time>
      </trkpt>
      <trkpt lat="48.07833" lon="-3.23093">
        <ele>214.51123046875</ele>
        <time>2011-07-08T20:18:36Z</time>
      </trkpt>
      <trkpt lat="48.07845" lon="-3.23079">
        <ele>216.43395996094</ele>
        <time>2011-07-08T20:18:42Z</time>
      </trkpt>
      <trkpt lat="48.07862" lon="-3.23069">
        <ele>216.91467285156</ele>
        <time>2011-07-08T20:18:48Z</time>
      </trkpt>
      <trkpt lat="48.07869" lon="-3.23065">
        <ele>217.8759765625</ele>
        <time>2011-07-08T20:18:51Z</time>
      </trkpt>
      <trkpt lat="48.07869" lon="-3.23066">
        <ele>217.39538574219</ele>
        <time>2011-07-08T20:19:03Z</time>
      </trkpt>
      <trkpt lat="48.07869" lon="-3.23068">
        <ele>217.8759765625</ele>
        <time>2011-07-08T20:19:10Z</time>
      </trkpt>
      <trkpt lat="48.07869" lon="-3.23067">
        <ele>216.91467285156</ele>
        <time>2011-07-08T20:19:16Z</time>
      </trkpt>
      <trkpt lat="48.0787" lon="-3.23067">
        <ele>218.35656738281</ele>
        <time>2011-07-08T20:19:20Z</time>
      </trkpt>
      <trkpt lat="48.07872" lon="-3.23065">
        <ele>219.31799316406</ele>
        <time>2011-07-08T20:19:28Z</time>
      </trkpt>
      <trkpt lat="48.07874" lon="-3.23065">
        <ele>219.31799316406</ele>
        <time>2011-07-08T20:19:32Z</time>
      </trkpt>
      <trkpt lat="48.07885" lon="-3.23065">
        <ele>218.83728027344</ele>
        <time>2011-07-08T20:19:38Z</time>
      </trkpt>
      <trkpt lat="48.07896" lon="-3.23064">
        <ele>220.75988769531</ele>
        <time>2011-07-08T20:19:43Z</time>
      </trkpt>
      <trkpt lat="48.0791" lon="-3.23066">
        <ele>221.72119140625</ele>
        <time>2011-07-08T20:19:47Z</time>
      </trkpt>
      <trkpt lat="48.07922" lon="-3.23066">
        <ele>222.20178222656</ele>
        <time>2011-07-08T20:19:51Z</time>
      </trkpt>
      <trkpt lat="48.07939" lon="-3.23066">
        <ele>222.68249511719</ele>
        <time>2011-07-08T20:19:56Z</time>
      </trkpt>
      <trkpt lat="48.07955" lon="-3.23066">
        <ele>223.64379882812</ele>
        <time>2011-07-08T20:20:00Z</time>
      </trkpt>
      <trkpt lat="48.07964" lon="-3.23066">
        <ele>223.64379882812</ele>
        <time>2011-07-08T20:20:03Z</time>
      </trkpt>
      <trkpt lat="48.07976" lon="-3.23065">
        <ele>222.68249511719</ele>
        <time>2011-07-08T20:20:07Z</time>
      </trkpt>
      <trkpt lat="48.07978" lon="-3.23066">
        <ele>222.20178222656</ele>
        <time>2011-07-08T20:20:08Z</time>
      </trkpt>
      <trkpt lat="48.07987" lon="-3.23061">
        <ele>221.72119140625</ele>
        <time>2011-07-08T20:20:12Z</time>
      </trkpt>
      <trkpt lat="48.08" lon="-3.23053">
        <ele>222.20178222656</ele>
        <time>2011-07-08T20:20:16Z</time>
      </trkpt>
      <trkpt lat="48.08022" lon="-3.2304">
        <ele>224.60522460938</ele>
        <time>2011-07-08T20:20:22Z</time>
      </trkpt>
      <trkpt lat="48.08033" lon="-3.23046">
        <ele>226.52783203125</ele>
        <time>2011-07-08T20:20:26Z</time>
      </trkpt>
      <trkpt lat="48.08035" lon="-3.23046">
        <ele>227.00854492188</ele>
        <time>2011-07-08T20:20:28Z</time>
      </trkpt>
      <trkpt lat="48.08037" lon="-3.23044">
        <ele>227.48913574219</ele>
        <time>2011-07-08T20:20:33Z</time>
      </trkpt>
      <trkpt lat="48.08039" lon="-3.23045">
        <ele>227.48913574219</ele>
        <time>2011-07-08T20:20:40Z</time>
      </trkpt>
      <trkpt lat="48.08039" lon="-3.23045">
        <ele>227.00854492188</ele>
        <time>2011-07-08T20:20:41Z</time>
      </trkpt>
      <trkpt lat="48.08039" lon="-3.23045">
        <ele>226.04711914062</ele>
        <time>2011-07-08T20:20:46Z</time>
      </trkpt>
      <trkpt lat="48.08038" lon="-3.23046">
        <ele>226.52783203125</ele>
        <time>2011-07-08T20:20:50Z</time>
      </trkpt>
      <trkpt lat="48.08038" lon="-3.23046">
        <ele>226.52783203125</ele>
        <time>2011-07-08T20:20:55Z</time>
      </trkpt>
      <trkpt lat="48.08038" lon="-3.23046">
        <ele>226.52783203125</ele>
        <time>2011-07-08T20:20:57Z</time>
      </trkpt>
      <trkpt lat="48.08038" lon="-3.23047">
        <ele>226.52783203125</ele>
        <time>2011-07-08T20:21:00Z</time>
      </trkpt>
      <trkpt lat="48.08038" lon="-3.23046">
        <ele>227.00854492188</ele>
        <time>2011-07-08T20:21:05Z</time>
      </trkpt>
      <trkpt lat="48.08039" lon="-3.23046">
        <ele>227.48913574219</ele>
        <time>2011-07-08T20:21:09Z</time>
      </trkpt>
      <trkpt lat="48.08038" lon="-3.23047">
        <ele>230.373046875</ele>
        <time>2011-07-08T20:21:16Z</time>
      </trkpt>
      <trkpt lat="48.08036" lon="-3.23048">
        <ele>233.25708007812</ele>
        <time>2011-07-08T20:21:26Z</time>
      </trkpt>
      <trkpt lat="48.08036" lon="-3.23047">
        <ele>232.77648925781</ele>
        <time>2011-07-08T20:21:31Z</time>
      </trkpt>
      <trkpt lat="48.08036" lon="-3.23046">
        <ele>233.25708007812</ele>
        <time>2011-07-08T20:21:36Z</time>
      </trkpt>
      <trkpt lat="48.08036" lon="-3.23045">
        <ele>233.73767089844</ele>
        <time>2011-07-08T20:21:39Z</time>
      </trkpt>
      <trkpt lat="48.08036" lon="-3.23046">
        <ele>233.73767089844</ele>
        <time>2011-07-08T20:21:44Z</time>
      </trkpt>
      <trkpt lat="48.08038" lon="-3.23046">
        <ele>233.73767089844</ele>
        <time>2011-07-08T20:21:49Z</time>
      </trkpt>
      <trkpt lat="48.08039" lon="-3.23046">
        <ele>233.73767089844</ele>
        <time>2011-07-08T20:21:53Z</time>
      </trkpt>
      <trkpt lat="48.08039" lon="-3.23045">
        <ele>233.25708007812</ele>
        <time>2011-07-08T20:21:57Z</time>
      </trkpt>
      <trkpt lat="48.08038" lon="-3.23045">
        <ele>232.77648925781</ele>
        <time>2011-07-08T20:22:01Z</time>
      </trkpt>
      <trkpt lat="48.08039" lon="-3.23045">
        <ele>232.77648925781</ele>
        <time>2011-07-08T20:22:02Z</time>
      </trkpt>
      <trkpt lat="48.08038" lon="-3.23045">
        <ele>231.33435058594</ele>
        <time>2011-07-08T20:22:12Z</time>
      </trkpt>
      <trkpt lat="48.08038" lon="-3.23045">
        <ele>231.33435058594</ele>
        <time>2011-07-08T20:22:18Z</time>
      </trkpt>
      <trkpt lat="48.08038" lon="-3.23045">
        <ele>231.33435058594</ele>
        <time>2011-07-08T20:22:24Z</time>
      </trkpt>
      <trkpt lat="48.08038" lon="-3.23045">
        <ele>230.85375976562</ele>
        <time>2011-07-08T20:22:28Z</time>
      </trkpt>
      <trkpt lat="48.08037" lon="-3.23046">
        <ele>230.85375976562</ele>
        <time>2011-07-08T20:22:38Z</time>
      </trkpt>
      <trkpt lat="48.08037" lon="-3.23048">
        <ele>230.373046875</ele>
        <time>2011-07-08T20:22:45Z</time>
      </trkpt>
      <trkpt lat="48.08038" lon="-3.23048">
        <ele>228.45043945312</ele>
        <time>2011-07-08T20:23:01Z</time>
      </trkpt>
      <trkpt lat="48.08038" lon="-3.23047">
        <ele>229.41174316406</ele>
        <time>2011-07-08T20:23:07Z</time>
      </trkpt>
      <trkpt lat="48.08038" lon="-3.23048">
        <ele>228.93115234375</ele>
        <time>2011-07-08T20:23:13Z</time>
      </trkpt>
      <trkpt lat="48.08038" lon="-3.23048">
        <ele>228.93115234375</ele>
        <time>2011-07-08T20:23:15Z</time>
      </trkpt>
      <trkpt lat="48.08039" lon="-3.23049">
        <ele>228.93115234375</ele>
        <time>2011-07-08T20:23:22Z</time>
      </trkpt>
      <trkpt lat="48.08041" lon="-3.2305">
        <ele>228.45043945312</ele>
        <time>2011-07-08T20:23:25Z</time>
      </trkpt>
      <trkpt lat="48.08041" lon="-3.23049">
        <ele>228.45043945312</ele>
        <time>2011-07-08T20:23:27Z</time>
      </trkpt>
      <trkpt lat="48.08041" lon="-3.23048">
        <ele>228.45043945312</ele>
        <time>2011-07-08T20:23:28Z</time>
      </trkpt>
      <trkpt lat="48.08041" lon="-3.23049">
        <ele>228.45043945312</ele>
        <time>2011-07-08T20:23:32Z</time>
      </trkpt>
      <trkpt lat="48.0804" lon="-3.23048">
        <ele>228.45043945312</ele>
        <time>2011-07-08T20:23:40Z</time>
      </trkpt>
      <trkpt lat="48.08039" lon="-3.23048">
        <ele>228.93115234375</ele>
        <time>2011-07-08T20:23:49Z</time>
      </trkpt>
      <trkpt lat="48.08041" lon="-3.23049">
        <ele>228.93115234375</ele>
        <time>2011-07-08T20:23:51Z</time>
      </trkpt>
      <trkpt lat="48.0804" lon="-3.23048">
        <ele>229.89233398438</ele>
        <time>2011-07-08T20:24:00Z</time>
      </trkpt>
      <trkpt lat="48.08038" lon="-3.23045">
        <ele>229.89233398438</ele>
        <time>2011-07-08T20:24:05Z</time>
      </trkpt>
      <trkpt lat="48.08036" lon="-3.23046">
        <ele>229.89233398438</ele>
        <time>2011-07-08T20:24:10Z</time>
      </trkpt>
      <trkpt lat="48.08038" lon="-3.23042">
        <ele>228.45043945312</ele>
        <time>2011-07-08T20:24:18Z</time>
      </trkpt>
      <trkpt lat="48.08039" lon="-3.23042">
        <ele>227.48913574219</ele>
        <time>2011-07-08T20:24:22Z</time>
      </trkpt>
      <trkpt lat="48.0804" lon="-3.23041">
        <ele>227.9697265625</ele>
        <time>2011-07-08T20:24:27Z</time>
      </trkpt>
      <trkpt lat="48.08044" lon="-3.23043">
        <ele>227.9697265625</ele>
        <time>2011-07-08T20:24:31Z</time>
      </trkpt>
      <trkpt lat="48.08047" lon="-3.23041">
        <ele>227.48913574219</ele>
        <time>2011-07-08T20:24:34Z</time>
      </trkpt>
      <trkpt lat="48.08047" lon="-3.23039">
        <ele>227.48913574219</ele>
        <time>2011-07-08T20:24:35Z</time>
      </trkpt>
      <trkpt lat="48.08055" lon="-3.23018">
        <ele>226.04711914062</ele>
        <time>2011-07-08T20:24:41Z</time>
      </trkpt>
      <trkpt lat="48.08063" lon="-3.22997">
        <ele>225.0859375</ele>
        <time>2011-07-08T20:24:45Z</time>
      </trkpt>
      <trkpt lat="48.08077" lon="-3.22972">
        <ele>223.16320800781</ele>
        <time>2011-07-08T20:24:50Z</time>
      </trkpt>
      <trkpt lat="48.08101" lon="-3.22959">
        <ele>223.64379882812</ele>
        <time>2011-07-08T20:24:57Z</time>
      </trkpt>
      <trkpt lat="48.0812" lon="-3.22954">
        <ele>225.0859375</ele>
        <time>2011-07-08T20:25:02Z</time>
      </trkpt>
      <trkpt lat="48.0814" lon="-3.22951">
        <ele>228.45043945312</ele>
        <time>2011-07-08T20:25:07Z</time>
      </trkpt>
      <trkpt lat="48.08156" lon="-3.22951">
        <ele>226.52783203125</ele>
        <time>2011-07-08T20:25:12Z</time>
      </trkpt>
      <trkpt lat="48.08175" lon="-3.2296">
        <ele>228.93115234375</ele>
        <time>2011-07-08T20:25:16Z</time>
      </trkpt>
      <trkpt lat="48.08184" lon="-3.22965">
        <ele>228.93115234375</ele>
        <time>2011-07-08T20:25:18Z</time>
      </trkpt>
      <trkpt lat="48.08192" lon="-3.22973">
        <ele>225.56652832031</ele>
        <time>2011-07-08T20:25:21Z</time>
      </trkpt>
      <trkpt lat="48.08213" lon="-3.22987">
        <ele>222.20178222656</ele>
        <time>2011-07-08T20:25:27Z</time>
      </trkpt>
      <trkpt lat="48.08226" lon="-3.22996">
        <ele>221.72119140625</ele>
        <time>2011-07-08T20:25:31Z</time>
      </trkpt>
      <trkpt lat="48.08242" lon="-3.2301">
        <ele>216.91467285156</ele>
        <time>2011-07-08T20:25:36Z</time>
      </trkpt>
      <trkpt lat="48.08252" lon="-3.23019">
        <ele>213.0693359375</ele>
        <time>2011-07-08T20:25:40Z</time>
      </trkpt>
      <trkpt lat="48.08257" lon="-3.23017">
        <ele>208.74340820312</ele>
        <time>2011-07-08T20:25:45Z</time>
      </trkpt>
      <trkpt lat="48.08258" lon="-3.23002">
        <ele>207.30139160156</ele>
        <time>2011-07-08T20:25:49Z</time>
      </trkpt>
      <trkpt lat="48.08251" lon="-3.22971">
        <ele>204.89807128906</ele>
        <time>2011-07-08T20:25:55Z</time>
      </trkpt>
      <trkpt lat="48.08247" lon="-3.22948">
        <ele>203.93688964844</ele>
        <time>2011-07-08T20:25:59Z</time>
      </trkpt>
      <trkpt lat="48.08259" lon="-3.22931">
        <ele>202.97546386719</ele>
        <time>2011-07-08T20:26:03Z</time>
      </trkpt>
      <trkpt lat="48.08265" lon="-3.2293">
        <ele>202.01428222656</ele>
        <time>2011-07-08T20:26:04Z</time>
      </trkpt>
      <trkpt lat="48.08297" lon="-3.22932">
        <ele>199.61083984375</ele>
        <time>2011-07-08T20:26:08Z</time>
      </trkpt>
      <trkpt lat="48.0833" lon="-3.22933">
        <ele>199.61083984375</ele>
        <time>2011-07-08T20:26:12Z</time>
      </trkpt>
      <trkpt lat="48.08358" lon="-3.22929">
        <ele>199.13012695312</ele>
        <time>2011-07-08T20:26:16Z</time>
      </trkpt>
      <trkpt lat="48.08375" lon="-3.22903">
        <ele>195.765625</ele>
        <time>2011-07-08T20:26:20Z</time>
      </trkpt>
      <trkpt lat="48.08375" lon="-3.22878">
        <ele>194.32373046875</ele>
        <time>2011-07-08T20:26:23Z</time>
      </trkpt>
      <trkpt lat="48.08372" lon="-3.22835">
        <ele>195.28491210938</ele>
        <time>2011-07-08T20:26:30Z</time>
      </trkpt>
      <trkpt lat="48.08371" lon="-3.22817">
        <ele>197.68823242188</ele>
        <time>2011-07-08T20:26:33Z</time>
      </trkpt>
      <trkpt lat="48.08371" lon="-3.22801">
        <ele>200.572265625</ele>
        <time>2011-07-08T20:26:36Z</time>
      </trkpt>
      <trkpt lat="48.08371" lon="-3.22796">
        <ele>201.05285644531</ele>
        <time>2011-07-08T20:26:37Z</time>
      </trkpt>
      <trkpt lat="48.08371" lon="-3.22792">
        <ele>202.01428222656</ele>
        <time>2011-07-08T20:26:38Z</time>
      </trkpt>
      <trkpt lat="48.08371" lon="-3.22778">
        <ele>203.93688964844</ele>
        <time>2011-07-08T20:26:41Z</time>
      </trkpt>
      <trkpt lat="48.08376" lon="-3.22763">
        <ele>206.34008789062</ele>
        <time>2011-07-08T20:26:46Z</time>
      </trkpt>
      <trkpt lat="48.08384" lon="-3.22754">
        <ele>208.26281738281</ele>
        <time>2011-07-08T20:26:51Z</time>
      </trkpt>
      <trkpt lat="48.08385" lon="-3.22752">
        <ele>208.74340820312</ele>
        <time>2011-07-08T20:26:52Z</time>
      </trkpt>
      <trkpt lat="48.08397" lon="-3.22748">
        <ele>209.22412109375</ele>
        <time>2011-07-08T20:26:57Z</time>
      </trkpt>
      <trkpt lat="48.08415" lon="-3.22748">
        <ele>210.666015625</ele>
        <time>2011-07-08T20:27:03Z</time>
      </trkpt>
      <trkpt lat="48.08443" lon="-3.22749">
        <ele>212.58862304688</ele>
        <time>2011-07-08T20:27:12Z</time>
      </trkpt>
      <trkpt lat="48.08461" lon="-3.22754">
        <ele>214.99194335938</ele>
        <time>2011-07-08T20:27:18Z</time>
      </trkpt>
      <trkpt lat="48.08468" lon="-3.22755">
        <ele>215.47265625</ele>
        <time>2011-07-08T20:27:20Z</time>
      </trkpt>
      <trkpt lat="48.08478" lon="-3.2274">
        <ele>216.43395996094</ele>
        <time>2011-07-08T20:27:25Z</time>
      </trkpt>
      <trkpt lat="48.08487" lon="-3.22715">
        <ele>218.35656738281</ele>
        <time>2011-07-08T20:27:31Z</time>
      </trkpt>
      <trkpt lat="48.0849" lon="-3.22697">
        <ele>217.39538574219</ele>
        <time>2011-07-08T20:27:35Z</time>
      </trkpt>
      <trkpt lat="48.08493" lon="-3.22679">
        <ele>216.91467285156</ele>
        <time>2011-07-08T20:27:40Z</time>
      </trkpt>
      <trkpt lat="48.08497" lon="-3.22653">
        <ele>214.51123046875</ele>
        <time>2011-07-08T20:27:46Z</time>
      </trkpt>
      <trkpt lat="48.08502" lon="-3.22627">
        <ele>212.58862304688</ele>
        <time>2011-07-08T20:27:52Z</time>
      </trkpt>
      <trkpt lat="48.08505" lon="-3.22604">
        <ele>212.10803222656</ele>
        <time>2011-07-08T20:27:56Z</time>
      </trkpt>
      <trkpt lat="48.08512" lon="-3.22577">
        <ele>210.666015625</ele>
        <time>2011-07-08T20:28:01Z</time>
      </trkpt>
      <trkpt lat="48.08514" lon="-3.22573">
        <ele>209.70483398438</ele>
        <time>2011-07-08T20:28:02Z</time>
      </trkpt>
      <trkpt lat="48.08509" lon="-3.22561">
        <ele>208.26281738281</ele>
        <time>2011-07-08T20:28:07Z</time>
      </trkpt>
      <trkpt lat="48.08496" lon="-3.22544">
        <ele>210.666015625</ele>
        <time>2011-07-08T20:28:12Z</time>
      </trkpt>
      <trkpt lat="48.08479" lon="-3.22524">
        <ele>212.58862304688</ele>
        <time>2011-07-08T20:28:18Z</time>
      </trkpt>
      <trkpt lat="48.08464" lon="-3.22508">
        <ele>214.51123046875</ele>
        <time>2011-07-08T20:28:23Z</time>
      </trkpt>
      <trkpt lat="48.08455" lon="-3.225">
        <ele>213.0693359375</ele>
        <time>2011-07-08T20:28:25Z</time>
      </trkpt>
      <trkpt lat="48.08448" lon="-3.22494">
        <ele>212.58862304688</ele>
        <time>2011-07-08T20:28:27Z</time>
      </trkpt>
      <trkpt lat="48.08426" lon="-3.22473">
        <ele>207.78210449219</ele>
        <time>2011-07-08T20:28:34Z</time>
      </trkpt>
      <trkpt lat="48.08407" lon="-3.22442">
        <ele>209.70483398438</ele>
        <time>2011-07-08T20:28:41Z</time>
      </trkpt>
      <trkpt lat="48.08397" lon="-3.22431">
        <ele>202.49487304688</ele>
        <time>2011-07-08T20:28:44Z</time>
      </trkpt>
      <trkpt lat="48.08381" lon="-3.22412">
        <ele>200.572265625</ele>
        <time>2011-07-08T20:28:48Z</time>
      </trkpt>
      <trkpt lat="48.08373" lon="-3.224">
        <ele>202.49487304688</ele>
        <time>2011-07-08T20:28:50Z</time>
      </trkpt>
      <trkpt lat="48.08365" lon="-3.22387">
        <ele>203.45617675781</ele>
        <time>2011-07-08T20:28:52Z</time>
      </trkpt>
      <trkpt lat="48.08345" lon="-3.22339">
        <ele>203.93688964844</ele>
        <time>2011-07-08T20:28:59Z</time>
      </trkpt>
      <trkpt lat="48.08321" lon="-3.2229">
        <ele>202.49487304688</ele>
        <time>2011-07-08T20:29:06Z</time>
      </trkpt>
      <trkpt lat="48.08318" lon="-3.22283">
        <ele>202.97546386719</ele>
        <time>2011-07-08T20:29:07Z</time>
      </trkpt>
      <trkpt lat="48.08318" lon="-3.22258">
        <ele>202.49487304688</ele>
        <time>2011-07-08T20:29:11Z</time>
      </trkpt>
      <trkpt lat="48.08321" lon="-3.22252">
        <ele>202.01428222656</ele>
        <time>2011-07-08T20:29:12Z</time>
      </trkpt>
      <trkpt lat="48.08336" lon="-3.22217">
        <ele>201.53356933594</ele>
        <time>2011-07-08T20:29:17Z</time>
      </trkpt>
      <trkpt lat="48.08352" lon="-3.22179">
        <ele>200.09167480469</ele>
        <time>2011-07-08T20:29:21Z</time>
      </trkpt>
      <trkpt lat="48.08373" lon="-3.22128">
        <ele>197.68823242188</ele>
        <time>2011-07-08T20:29:26Z</time>
      </trkpt>
      <trkpt lat="48.084" lon="-3.22068">
        <ele>196.72692871094</ele>
        <time>2011-07-08T20:29:32Z</time>
      </trkpt>
      <trkpt lat="48.08411" lon="-3.22037">
        <ele>197.68823242188</ele>
        <time>2011-07-08T20:29:36Z</time>
      </trkpt>
      <trkpt lat="48.08418" lon="-3.22023">
        <ele>197.68823242188</ele>
        <time>2011-07-08T20:29:38Z</time>
      </trkpt>
      <trkpt lat="48.08427" lon="-3.22004">
        <ele>198.1689453125</ele>
        <time>2011-07-08T20:29:41Z</time>
      </trkpt>
      <trkpt lat="48.0843" lon="-3.21998">
        <ele>198.64953613281</ele>
        <time>2011-07-08T20:29:42Z</time>
      </trkpt>
      <trkpt lat="48.08443" lon="-3.21974">
        <ele>200.572265625</ele>
        <time>2011-07-08T20:29:46Z</time>
      </trkpt>
      <trkpt lat="48.08448" lon="-3.2194">
        <ele>201.05285644531</ele>
        <time>2011-07-08T20:29:51Z</time>
      </trkpt>
      <trkpt lat="48.08433" lon="-3.21902">
        <ele>201.53356933594</ele>
        <time>2011-07-08T20:29:56Z</time>
      </trkpt>
      <trkpt lat="48.08411" lon="-3.21854">
        <ele>199.61083984375</ele>
        <time>2011-07-08T20:30:01Z</time>
      </trkpt>
      <trkpt lat="48.08391" lon="-3.2181">
        <ele>196.24633789062</ele>
        <time>2011-07-08T20:30:05Z</time>
      </trkpt>
      <trkpt lat="48.08366" lon="-3.21757">
        <ele>194.32373046875</ele>
        <time>2011-07-08T20:30:10Z</time>
      </trkpt>
      <trkpt lat="48.0835" lon="-3.21731">
        <ele>194.32373046875</ele>
        <time>2011-07-08T20:30:14Z</time>
      </trkpt>
      <trkpt lat="48.08332" lon="-3.21703">
        <ele>195.765625</ele>
        <time>2011-07-08T20:30:20Z</time>
      </trkpt>
      <trkpt lat="48.08321" lon="-3.21678">
        <ele>198.1689453125</ele>
        <time>2011-07-08T20:30:24Z</time>
      </trkpt>
      <trkpt lat="48.08312" lon="-3.21659">
        <ele>199.13012695312</ele>
        <time>2011-07-08T20:30:27Z</time>
      </trkpt>
      <trkpt lat="48.08305" lon="-3.21645">
        <ele>200.09167480469</ele>
        <time>2011-07-08T20:30:29Z</time>
      </trkpt>
      <trkpt lat="48.08296" lon="-3.21625">
        <ele>201.53356933594</ele>
        <time>2011-07-08T20:30:32Z</time>
      </trkpt>
      <trkpt lat="48.08271" lon="-3.21568">
        <ele>204.41748046875</ele>
        <time>2011-07-08T20:30:41Z</time>
      </trkpt>
      <trkpt lat="48.08268" lon="-3.21562">
        <ele>205.37878417969</ele>
        <time>2011-07-08T20:30:42Z</time>
      </trkpt>
      <trkpt lat="48.08261" lon="-3.21533">
        <ele>206.82067871094</ele>
        <time>2011-07-08T20:30:47Z</time>
      </trkpt>
      <trkpt lat="48.08268" lon="-3.21519">
        <ele>208.26281738281</ele>
        <time>2011-07-08T20:30:50Z</time>
      </trkpt>
      <trkpt lat="48.08273" lon="-3.21513">
        <ele>209.22412109375</ele>
        <time>2011-07-08T20:30:52Z</time>
      </trkpt>
      <trkpt lat="48.08294" lon="-3.21489">
        <ele>212.10803222656</ele>
        <time>2011-07-08T20:30:59Z</time>
      </trkpt>
      <trkpt lat="48.08307" lon="-3.21478">
        <ele>213.0693359375</ele>
        <time>2011-07-08T20:31:04Z</time>
      </trkpt>
      <trkpt lat="48.0831" lon="-3.21465">
        <ele>213.0693359375</ele>
        <time>2011-07-08T20:31:08Z</time>
      </trkpt>
      <trkpt lat="48.08308" lon="-3.21459">
        <ele>209.22412109375</ele>
        <time>2011-07-08T20:31:16Z</time>
      </trkpt>
      <trkpt lat="48.08308" lon="-3.21458">
        <ele>209.70483398438</ele>
        <time>2011-07-08T20:31:25Z</time>
      </trkpt>
      <trkpt lat="48.08309" lon="-3.21456">
        <ele>212.10803222656</ele>
        <time>2011-07-08T20:31:30Z</time>
      </trkpt>
      <trkpt lat="48.08311" lon="-3.21454">
        <ele>213.55004882812</ele>
        <time>2011-07-08T20:31:34Z</time>
      </trkpt>
      <trkpt lat="48.08311" lon="-3.21455">
        <ele>216.91467285156</ele>
        <time>2011-07-08T20:31:38Z</time>
      </trkpt>
      <trkpt lat="48.08313" lon="-3.21462">
        <ele>218.35656738281</ele>
        <time>2011-07-08T20:31:42Z</time>
      </trkpt>
      <trkpt lat="48.08314" lon="-3.21474">
        <ele>217.8759765625</ele>
        <time>2011-07-08T20:31:47Z</time>
      </trkpt>
      <trkpt lat="48.08306" lon="-3.2148">
        <ele>217.39538574219</ele>
        <time>2011-07-08T20:31:49Z</time>
      </trkpt>
      <trkpt lat="48.08302" lon="-3.21485">
        <ele>217.39538574219</ele>
        <time>2011-07-08T20:31:50Z</time>
      </trkpt>
      <trkpt lat="48.0829" lon="-3.215">
        <ele>215.47265625</ele>
        <time>2011-07-08T20:31:53Z</time>
      </trkpt>
      <trkpt lat="48.08271" lon="-3.21523">
        <ele>213.55004882812</ele>
        <time>2011-07-08T20:31:58Z</time>
      </trkpt>
      <trkpt lat="48.08265" lon="-3.21529">
        <ele>213.55004882812</ele>
        <time>2011-07-08T20:32:03Z</time>
      </trkpt>
      <trkpt lat="48.08267" lon="-3.21525">
        <ele>213.0693359375</ele>
        <time>2011-07-08T20:32:06Z</time>
      </trkpt>
      <trkpt lat="48.08271" lon="-3.2152">
        <ele>212.58862304688</ele>
        <time>2011-07-08T20:32:08Z</time>
      </trkpt>
      <trkpt lat="48.08286" lon="-3.21502">
        <ele>211.14672851562</ele>
        <time>2011-07-08T20:32:14Z</time>
      </trkpt>
      <trkpt lat="48.08292" lon="-3.21494">
        <ele>212.10803222656</ele>
        <time>2011-07-08T20:32:16Z</time>
      </trkpt>
      <trkpt lat="48.08297" lon="-3.21487">
        <ele>213.55004882812</ele>
        <time>2011-07-08T20:32:18Z</time>
      </trkpt>
      <trkpt lat="48.08306" lon="-3.2148">
        <ele>214.99194335938</ele>
        <time>2011-07-08T20:32:21Z</time>
      </trkpt>
      <trkpt lat="48.08309" lon="-3.21473">
        <ele>216.43395996094</ele>
        <time>2011-07-08T20:32:23Z</time>
      </trkpt>
      <trkpt lat="48.08309" lon="-3.21458">
        <ele>216.91467285156</ele>
        <time>2011-07-08T20:32:27Z</time>
      </trkpt>
      <trkpt lat="48.08295" lon="-3.21429">
        <ele>215.95324707031</ele>
        <time>2011-07-08T20:32:34Z</time>
      </trkpt>
      <trkpt lat="48.08285" lon="-3.21405">
        <ele>215.95324707031</ele>
        <time>2011-07-08T20:32:40Z</time>
      </trkpt>
      <trkpt lat="48.08279" lon="-3.21379">
        <ele>216.43395996094</ele>
        <time>2011-07-08T20:32:46Z</time>
      </trkpt>
      <trkpt lat="48.08268" lon="-3.21359">
        <ele>216.43395996094</ele>
        <time>2011-07-08T20:32:51Z</time>
      </trkpt>
      <trkpt lat="48.08247" lon="-3.21335">
        <ele>215.95324707031</ele>
        <time>2011-07-08T20:32:58Z</time>
      </trkpt>
      <trkpt lat="48.08237" lon="-3.21323">
        <ele>214.99194335938</ele>
        <time>2011-07-08T20:33:01Z</time>
      </trkpt>
      <trkpt lat="48.08217" lon="-3.21315">
        <ele>213.55004882812</ele>
        <time>2011-07-08T20:33:05Z</time>
      </trkpt>
      <trkpt lat="48.08212" lon="-3.21319">
        <ele>212.58862304688</ele>
        <time>2011-07-08T20:33:06Z</time>
      </trkpt>
      <trkpt lat="48.08184" lon="-3.21323">
        <ele>211.14672851562</ele>
        <time>2011-07-08T20:33:11Z</time>
      </trkpt>
      <trkpt lat="48.0817" lon="-3.2132">
        <ele>210.666015625</ele>
        <time>2011-07-08T20:33:13Z</time>
      </trkpt>
      <trkpt lat="48.08149" lon="-3.21319">
        <ele>208.74340820312</ele>
        <time>2011-07-08T20:33:16Z</time>
      </trkpt>
      <trkpt lat="48.08126" lon="-3.21309">
        <ele>206.82067871094</ele>
        <time>2011-07-08T20:33:20Z</time>
      </trkpt>
      <trkpt lat="48.08117" lon="-3.21298">
        <ele>205.37878417969</ele>
        <time>2011-07-08T20:33:22Z</time>
      </trkpt>
      <trkpt lat="48.08099" lon="-3.21267">
        <ele>202.97546386719</ele>
        <time>2011-07-08T20:33:26Z</time>
      </trkpt>
      <trkpt lat="48.0809" lon="-3.21238">
        <ele>201.53356933594</ele>
        <time>2011-07-08T20:33:29Z</time>
      </trkpt>
      <trkpt lat="48.0807" lon="-3.21215">
        <ele>200.572265625</ele>
        <time>2011-07-08T20:33:33Z</time>
      </trkpt>
      <trkpt lat="48.08064" lon="-3.21213">
        <ele>200.09167480469</ele>
        <time>2011-07-08T20:33:34Z</time>
      </trkpt>
      <trkpt lat="48.0803" lon="-3.21196">
        <ele>199.61083984375</ele>
        <time>2011-07-08T20:33:40Z</time>
      </trkpt>
      <trkpt lat="48.08025" lon="-3.21193">
        <ele>199.13012695312</ele>
        <time>2011-07-08T20:33:41Z</time>
      </trkpt>
      <trkpt lat="48.0801" lon="-3.21176">
        <ele>197.68823242188</ele>
        <time>2011-07-08T20:33:44Z</time>
      </trkpt>
      <trkpt lat="48.07995" lon="-3.21165">
        <ele>196.72692871094</ele>
        <time>2011-07-08T20:33:47Z</time>
      </trkpt>
      <trkpt lat="48.07958" lon="-3.21155">
        <ele>195.28491210938</ele>
        <time>2011-07-08T20:33:53Z</time>
      </trkpt>
      <trkpt lat="48.07953" lon="-3.21156">
        <ele>194.80432128906</ele>
        <time>2011-07-08T20:33:54Z</time>
      </trkpt>
      <trkpt lat="48.07917" lon="-3.21172">
        <ele>193.84301757812</ele>
        <time>2011-07-08T20:34:01Z</time>
      </trkpt>
      <trkpt lat="48.07891" lon="-3.21185">
        <ele>192.40112304688</ele>
        <time>2011-07-08T20:34:06Z</time>
      </trkpt>
      <trkpt lat="48.07865" lon="-3.212">
        <ele>190.958984375</ele>
        <time>2011-07-08T20:34:11Z</time>
      </trkpt>
      <trkpt lat="48.07829" lon="-3.2122">
        <ele>188.55578613281</ele>
        <time>2011-07-08T20:34:17Z</time>
      </trkpt>
      <trkpt lat="48.07785" lon="-3.21236">
        <ele>186.15246582031</ele>
        <time>2011-07-08T20:34:23Z</time>
      </trkpt>
      <trkpt lat="48.0775" lon="-3.21245">
        <ele>183.26843261719</ele>
        <time>2011-07-08T20:34:28Z</time>
      </trkpt>
      <trkpt lat="48.07732" lon="-3.21251">
        <ele>181.82641601562</ele>
        <time>2011-07-08T20:34:31Z</time>
      </trkpt>
      <trkpt lat="48.07715" lon="-3.21259">
        <ele>178.94262695312</ele>
        <time>2011-07-08T20:34:34Z</time>
      </trkpt>
      <trkpt lat="48.07705" lon="-3.21264">
        <ele>177.98120117188</ele>
        <time>2011-07-08T20:34:36Z</time>
      </trkpt>
      <trkpt lat="48.07677" lon="-3.21269">
        <ele>175.57788085938</ele>
        <time>2011-07-08T20:34:41Z</time>
      </trkpt>
      <trkpt lat="48.0767" lon="-3.2127">
        <ele>174.61657714844</ele>
        <time>2011-07-08T20:34:42Z</time>
      </trkpt>
      <trkpt lat="48.07658" lon="-3.21271">
        <ele>173.6552734375</ele>
        <time>2011-07-08T20:34:44Z</time>
      </trkpt>
      <trkpt lat="48.07632" lon="-3.21269">
        <ele>169.81005859375</ele>
        <time>2011-07-08T20:34:48Z</time>
      </trkpt>
      <trkpt lat="48.07597" lon="-3.21261">
        <ele>165.96472167969</ele>
        <time>2011-07-08T20:34:54Z</time>
      </trkpt>
      <trkpt lat="48.07563" lon="-3.21254">
        <ele>163.5615234375</ele>
        <time>2011-07-08T20:34:59Z</time>
      </trkpt>
      <trkpt lat="48.07547" lon="-3.21248">
        <ele>162.60009765625</ele>
        <time>2011-07-08T20:35:02Z</time>
      </trkpt>
      <trkpt lat="48.07536" lon="-3.21243">
        <ele>160.67749023438</ele>
        <time>2011-07-08T20:35:04Z</time>
      </trkpt>
      <trkpt lat="48.0752" lon="-3.21231">
        <ele>157.31286621094</ele>
        <time>2011-07-08T20:35:07Z</time>
      </trkpt>
      <trkpt lat="48.07498" lon="-3.21212">
        <ele>155.39025878906</ele>
        <time>2011-07-08T20:35:11Z</time>
      </trkpt>
      <trkpt lat="48.07479" lon="-3.21198">
        <ele>148.66101074219</ele>
        <time>2011-07-08T20:35:15Z</time>
      </trkpt>
      <trkpt lat="48.07467" lon="-3.21174">
        <ele>151.544921875</ele>
        <time>2011-07-08T20:35:18Z</time>
      </trkpt>
      <trkpt lat="48.07466" lon="-3.21139">
        <ele>153.46765136719</ele>
        <time>2011-07-08T20:35:22Z</time>
      </trkpt>
      <trkpt lat="48.0748" lon="-3.21081">
        <ele>143.37365722656</ele>
        <time>2011-07-08T20:35:29Z</time>
      </trkpt>
      <trkpt lat="48.07491" lon="-3.21035">
        <ele>145.29638671875</ele>
        <time>2011-07-08T20:35:34Z</time>
      </trkpt>
      <trkpt lat="48.07495" lon="-3.21008">
        <ele>149.1416015625</ele>
        <time>2011-07-08T20:35:39Z</time>
      </trkpt>
      <trkpt lat="48.07502" lon="-3.20995">
        <ele>154.90954589844</ele>
        <time>2011-07-08T20:35:45Z</time>
      </trkpt>
      <trkpt lat="48.07508" lon="-3.20988">
        <ele>155.87097167969</ele>
        <time>2011-07-08T20:35:48Z</time>
      </trkpt>
      <trkpt lat="48.07512" lon="-3.20984">
        <ele>156.83215332031</ele>
        <time>2011-07-08T20:35:50Z</time>
      </trkpt>
      <trkpt lat="48.07513" lon="-3.20982">
        <ele>157.31286621094</ele>
        <time>2011-07-08T20:35:51Z</time>
      </trkpt>
      <trkpt lat="48.07518" lon="-3.20979">
        <ele>159.23547363281</ele>
        <time>2011-07-08T20:35:54Z</time>
      </trkpt>
      <trkpt lat="48.07523" lon="-3.20978">
        <ele>160.67749023438</ele>
        <time>2011-07-08T20:35:58Z</time>
      </trkpt>
      <trkpt lat="48.07533" lon="-3.20983">
        <ele>162.60009765625</ele>
        <time>2011-07-08T20:36:04Z</time>
      </trkpt>
      <trkpt lat="48.07544" lon="-3.20992">
        <ele>164.52270507812</ele>
        <time>2011-07-08T20:36:10Z</time>
      </trkpt>
      <trkpt lat="48.07556" lon="-3.20998">
        <ele>170.77136230469</ele>
        <time>2011-07-08T20:36:16Z</time>
      </trkpt>
      <trkpt lat="48.07566" lon="-3.21002">
        <ele>176.53930664062</ele>
        <time>2011-07-08T20:36:21Z</time>
      </trkpt>
      <trkpt lat="48.07574" lon="-3.21008">
        <ele>181.34582519531</ele>
        <time>2011-07-08T20:36:27Z</time>
      </trkpt>
      <trkpt lat="48.07586" lon="-3.21013">
        <ele>185.67175292969</ele>
        <time>2011-07-08T20:36:33Z</time>
      </trkpt>
      <trkpt lat="48.07598" lon="-3.21019">
        <ele>189.99768066406</ele>
        <time>2011-07-08T20:36:39Z</time>
      </trkpt>
      <trkpt lat="48.07609" lon="-3.21026">
        <ele>192.40112304688</ele>
        <time>2011-07-08T20:36:44Z</time>
      </trkpt>
      <trkpt lat="48.07614" lon="-3.2103">
        <ele>190.958984375</ele>
        <time>2011-07-08T20:36:47Z</time>
      </trkpt>
      <trkpt lat="48.07625" lon="-3.21032">
        <ele>190.47839355469</ele>
        <time>2011-07-08T20:36:53Z</time>
      </trkpt>
      <trkpt lat="48.07639" lon="-3.21033">
        <ele>190.958984375</ele>
        <time>2011-07-08T20:37:00Z</time>
      </trkpt>
      <trkpt lat="48.07648" lon="-3.21032">
        <ele>190.958984375</ele>
        <time>2011-07-08T20:37:05Z</time>
      </trkpt>
      <trkpt lat="48.07658" lon="-3.21029">
        <ele>190.47839355469</ele>
        <time>2011-07-08T20:37:09Z</time>
      </trkpt>
      <trkpt lat="48.07672" lon="-3.21022">
        <ele>189.51696777344</ele>
        <time>2011-07-08T20:37:15Z</time>
      </trkpt>
      <trkpt lat="48.07687" lon="-3.21013">
        <ele>187.11376953125</ele>
        <time>2011-07-08T20:37:20Z</time>
      </trkpt>
      <trkpt lat="48.07703" lon="-3.21">
        <ele>186.15246582031</ele>
        <time>2011-07-08T20:37:25Z</time>
      </trkpt>
      <trkpt lat="48.07718" lon="-3.20989">
        <ele>185.19116210938</ele>
        <time>2011-07-08T20:37:30Z</time>
      </trkpt>
      <trkpt lat="48.07733" lon="-3.20975">
        <ele>182.78784179688</ele>
        <time>2011-07-08T20:37:35Z</time>
      </trkpt>
      <trkpt lat="48.07751" lon="-3.2096">
        <ele>179.90380859375</ele>
        <time>2011-07-08T20:37:41Z</time>
      </trkpt>
      <trkpt lat="48.07764" lon="-3.2095">
        <ele>179.42321777344</ele>
        <time>2011-07-08T20:37:46Z</time>
      </trkpt>
      <trkpt lat="48.07782" lon="-3.20941">
        <ele>180.865234375</ele>
        <time>2011-07-08T20:37:52Z</time>
      </trkpt>
      <trkpt lat="48.07797" lon="-3.20934">
        <ele>182.30712890625</ele>
        <time>2011-07-08T20:37:57Z</time>
      </trkpt>
      <trkpt lat="48.07816" lon="-3.20931">
        <ele>183.26843261719</ele>
        <time>2011-07-08T20:38:02Z</time>
      </trkpt>
      <trkpt lat="48.07841" lon="-3.20926">
        <ele>185.19116210938</ele>
        <time>2011-07-08T20:38:09Z</time>
      </trkpt>
      <trkpt lat="48.07861" lon="-3.20927">
        <ele>183.26843261719</ele>
        <time>2011-07-08T20:38:15Z</time>
      </trkpt>
      <trkpt lat="48.07881" lon="-3.20945">
        <ele>178.94262695312</ele>
        <time>2011-07-08T20:38:22Z</time>
      </trkpt>
      <trkpt lat="48.07897" lon="-3.20954">
        <ele>178.4619140625</ele>
        <time>2011-07-08T20:38:28Z</time>
      </trkpt>
      <trkpt lat="48.07917" lon="-3.20953">
        <ele>178.4619140625</ele>
        <time>2011-07-08T20:38:34Z</time>
      </trkpt>
      <trkpt lat="48.07945" lon="-3.20949">
        <ele>178.94262695312</ele>
        <time>2011-07-08T20:38:41Z</time>
      </trkpt>
      <trkpt lat="48.07964" lon="-3.20955">
        <ele>179.42321777344</ele>
        <time>2011-07-08T20:38:46Z</time>
      </trkpt>
      <trkpt lat="48.07986" lon="-3.20966">
        <ele>179.42321777344</ele>
        <time>2011-07-08T20:38:52Z</time>
      </trkpt>
      <trkpt lat="48.08004" lon="-3.20974">
        <ele>178.94262695312</ele>
        <time>2011-07-08T20:38:56Z</time>
      </trkpt>
      <trkpt lat="48.08016" lon="-3.20979">
        <ele>179.90380859375</ele>
        <time>2011-07-08T20:38:59Z</time>
      </trkpt>
      <trkpt lat="48.0802" lon="-3.2098">
        <ele>179.90380859375</ele>
        <time>2011-07-08T20:39:00Z</time>
      </trkpt>
      <trkpt lat="48.08039" lon="-3.20984">
        <ele>180.38452148438</ele>
        <time>2011-07-08T20:39:04Z</time>
      </trkpt>
      <trkpt lat="48.08078" lon="-3.20993">
        <ele>183.7490234375</ele>
        <time>2011-07-08T20:39:10Z</time>
      </trkpt>
      <trkpt lat="48.08115" lon="-3.21005">
        <ele>187.59436035156</ele>
        <time>2011-07-08T20:39:16Z</time>
      </trkpt>
      <trkpt lat="48.08126" lon="-3.21011">
        <ele>186.63317871094</ele>
        <time>2011-07-08T20:39:18Z</time>
      </trkpt>
      <trkpt lat="48.08156" lon="-3.21019">
        <ele>189.99768066406</ele>
        <time>2011-07-08T20:39:23Z</time>
      </trkpt>
      <trkpt lat="48.08179" lon="-3.21023">
        <ele>188.07507324219</ele>
        <time>2011-07-08T20:39:27Z</time>
      </trkpt>
      <trkpt lat="48.0821" lon="-3.2102">
        <ele>184.71057128906</ele>
        <time>2011-07-08T20:39:32Z</time>
      </trkpt>
      <trkpt lat="48.08232" lon="-3.21021">
        <ele>182.78784179688</ele>
        <time>2011-07-08T20:39:35Z</time>
      </trkpt>
      <trkpt lat="48.08239" lon="-3.21022">
        <ele>182.30712890625</ele>
        <time>2011-07-08T20:39:36Z</time>
      </trkpt>
      <trkpt lat="48.08276" lon="-3.21023">
        <ele>177.50061035156</ele>
        <time>2011-07-08T20:39:41Z</time>
      </trkpt>
      <trkpt lat="48.08313" lon="-3.2103">
        <ele>169.81005859375</ele>
        <time>2011-07-08T20:39:46Z</time>
      </trkpt>
      <trkpt lat="48.08327" lon="-3.21033">
        <ele>166.92602539062</ele>
        <time>2011-07-08T20:39:48Z</time>
      </trkpt>
      <trkpt lat="48.08344" lon="-3.21039">
        <ele>164.52270507812</ele>
        <time>2011-07-08T20:39:51Z</time>
      </trkpt>
      <trkpt lat="48.08364" lon="-3.2105">
        <ele>164.04211425781</ele>
        <time>2011-07-08T20:39:56Z</time>
      </trkpt>
      <trkpt lat="48.08377" lon="-3.21061">
        <ele>164.52270507812</ele>
        <time>2011-07-08T20:39:59Z</time>
      </trkpt>
      <trkpt lat="48.08382" lon="-3.21064">
        <ele>164.52270507812</ele>
        <time>2011-07-08T20:40:00Z</time>
      </trkpt>
      <trkpt lat="48.08397" lon="-3.21074">
        <ele>165.96472167969</ele>
        <time>2011-07-08T20:40:03Z</time>
      </trkpt>
      <trkpt lat="48.08419" lon="-3.21092">
        <ele>166.92602539062</ele>
        <time>2011-07-08T20:40:08Z</time>
      </trkpt>
      <trkpt lat="48.08432" lon="-3.21103">
        <ele>167.40673828125</ele>
        <time>2011-07-08T20:40:11Z</time>
      </trkpt>
      <trkpt lat="48.08454" lon="-3.21128">
        <ele>167.88732910156</ele>
        <time>2011-07-08T20:40:17Z</time>
      </trkpt>
      <trkpt lat="48.08471" lon="-3.21145">
        <ele>168.36804199219</ele>
        <time>2011-07-08T20:40:23Z</time>
      </trkpt>
      <trkpt lat="48.08485" lon="-3.21158">
        <ele>166.92602539062</ele>
        <time>2011-07-08T20:40:28Z</time>
      </trkpt>
      <trkpt lat="48.085" lon="-3.21166">
        <ele>167.88732910156</ele>
        <time>2011-07-08T20:40:34Z</time>
      </trkpt>
      <trkpt lat="48.08516" lon="-3.21178">
        <ele>164.52270507812</ele>
        <time>2011-07-08T20:40:41Z</time>
      </trkpt>
      <trkpt lat="48.08526" lon="-3.21183">
        <ele>165.00341796875</ele>
        <time>2011-07-08T20:40:46Z</time>
      </trkpt>
      <trkpt lat="48.08541" lon="-3.21191">
        <ele>164.52270507812</ele>
        <time>2011-07-08T20:40:53Z</time>
      </trkpt>
      <trkpt lat="48.08553" lon="-3.21198">
        <ele>165.96472167969</ele>
        <time>2011-07-08T20:40:58Z</time>
      </trkpt>
      <trkpt lat="48.08567" lon="-3.21212">
        <ele>167.40673828125</ele>
        <time>2011-07-08T20:41:04Z</time>
      </trkpt>
      <trkpt lat="48.08577" lon="-3.21222">
        <ele>166.92602539062</ele>
        <time>2011-07-08T20:41:09Z</time>
      </trkpt>
      <trkpt lat="48.0859" lon="-3.21238">
        <ele>166.4453125</ele>
        <time>2011-07-08T20:41:14Z</time>
      </trkpt>
      <trkpt lat="48.08604" lon="-3.21252">
        <ele>169.32946777344</ele>
        <time>2011-07-08T20:41:19Z</time>
      </trkpt>
      <trkpt lat="48.0862" lon="-3.21269">
        <ele>168.84875488281</ele>
        <time>2011-07-08T20:41:24Z</time>
      </trkpt>
      <trkpt lat="48.08632" lon="-3.2128">
        <ele>167.40673828125</ele>
        <time>2011-07-08T20:41:28Z</time>
      </trkpt>
      <trkpt lat="48.08642" lon="-3.21295">
        <ele>164.04211425781</ele>
        <time>2011-07-08T20:41:33Z</time>
      </trkpt>
      <trkpt lat="48.08648" lon="-3.21308">
        <ele>163.5615234375</ele>
        <time>2011-07-08T20:41:38Z</time>
      </trkpt>
      <trkpt lat="48.08651" lon="-3.21322">
        <ele>163.08081054688</ele>
        <time>2011-07-08T20:41:44Z</time>
      </trkpt>
      <trkpt lat="48.08652" lon="-3.21325">
        <ele>163.08081054688</ele>
        <time>2011-07-08T20:41:46Z</time>
      </trkpt>
      <trkpt lat="48.08651" lon="-3.2133">
        <ele>163.08081054688</ele>
        <time>2011-07-08T20:41:52Z</time>
      </trkpt>
      <trkpt lat="48.0865" lon="-3.21336">
        <ele>162.60009765625</ele>
        <time>2011-07-08T20:41:59Z</time>
      </trkpt>
      <trkpt lat="48.08648" lon="-3.21349">
        <ele>164.52270507812</ele>
        <time>2011-07-08T20:42:07Z</time>
      </trkpt>
      <trkpt lat="48.08648" lon="-3.21351">
        <ele>165.48413085938</ele>
        <time>2011-07-08T20:42:09Z</time>
      </trkpt>
      <trkpt lat="48.08647" lon="-3.21357">
        <ele>166.92602539062</ele>
        <time>2011-07-08T20:42:15Z</time>
      </trkpt>
      <trkpt lat="48.08646" lon="-3.2136">
        <ele>167.40673828125</ele>
        <time>2011-07-08T20:42:19Z</time>
      </trkpt>
      <trkpt lat="48.08644" lon="-3.21369">
        <ele>167.40673828125</ele>
        <time>2011-07-08T20:42:28Z</time>
      </trkpt>
      <trkpt lat="48.08643" lon="-3.2138">
        <ele>169.32946777344</ele>
        <time>2011-07-08T20:42:37Z</time>
      </trkpt>
      <trkpt lat="48.08643" lon="-3.21389">
        <ele>170.77136230469</ele>
        <time>2011-07-08T20:42:44Z</time>
      </trkpt>
      <trkpt lat="48.08643" lon="-3.21396">
        <ele>174.13586425781</ele>
        <time>2011-07-08T20:42:50Z</time>
      </trkpt>
      <trkpt lat="48.08644" lon="-3.21407">
        <ele>177.98120117188</ele>
        <time>2011-07-08T20:42:57Z</time>
      </trkpt>
      <trkpt lat="48.08643" lon="-3.21412">
        <ele>179.90380859375</ele>
        <time>2011-07-08T20:43:04Z</time>
      </trkpt>
      <trkpt lat="48.08644" lon="-3.21417">
        <ele>181.82641601562</ele>
        <time>2011-07-08T20:43:09Z</time>
      </trkpt>
      <trkpt lat="48.0865" lon="-3.21434">
        <ele>182.30712890625</ele>
        <time>2011-07-08T20:43:17Z</time>
      </trkpt>
      <trkpt lat="48.08653" lon="-3.21441">
        <ele>182.78784179688</ele>
        <time>2011-07-08T20:43:20Z</time>
      </trkpt>
      <trkpt lat="48.08662" lon="-3.21454">
        <ele>184.22985839844</ele>
        <time>2011-07-08T20:43:26Z</time>
      </trkpt>
      <trkpt lat="48.08664" lon="-3.21456">
        <ele>184.71057128906</ele>
        <time>2011-07-08T20:43:27Z</time>
      </trkpt>
      <trkpt lat="48.0867" lon="-3.21461">
        <ele>186.15246582031</ele>
        <time>2011-07-08T20:43:30Z</time>
      </trkpt>
      <trkpt lat="48.08674" lon="-3.21469">
        <ele>188.55578613281</ele>
        <time>2011-07-08T20:43:34Z</time>
      </trkpt>
      <trkpt lat="48.08675" lon="-3.21479">
        <ele>192.40112304688</ele>
        <time>2011-07-08T20:43:42Z</time>
      </trkpt>
      <trkpt lat="48.08672" lon="-3.21484">
        <ele>191.92028808594</ele>
        <time>2011-07-08T20:43:49Z</time>
      </trkpt>
      <trkpt lat="48.08663" lon="-3.21486">
        <ele>188.07507324219</ele>
        <time>2011-07-08T20:43:56Z</time>
      </trkpt>
      <trkpt lat="48.08658" lon="-3.21484">
        <ele>186.63317871094</ele>
        <time>2011-07-08T20:44:01Z</time>
      </trkpt>
      <trkpt lat="48.0865" lon="-3.21484">
        <ele>183.7490234375</ele>
        <time>2011-07-08T20:44:05Z</time>
      </trkpt>
      <trkpt lat="48.08648" lon="-3.21483">
        <ele>183.7490234375</ele>
        <time>2011-07-08T20:44:07Z</time>
      </trkpt>
      <trkpt lat="48.0864" lon="-3.2148">
        <ele>184.22985839844</ele>
        <time>2011-07-08T20:44:13Z</time>
      </trkpt>
      <trkpt lat="48.08628" lon="-3.21475">
        <ele>182.78784179688</ele>
        <time>2011-07-08T20:44:21Z</time>
      </trkpt>
      <trkpt lat="48.08619" lon="-3.21472">
        <ele>181.34582519531</ele>
        <time>2011-07-08T20:44:27Z</time>
      </trkpt>
      <trkpt lat="48.08611" lon="-3.2147">
        <ele>183.7490234375</ele>
        <time>2011-07-08T20:44:34Z</time>
      </trkpt>
      <trkpt lat="48.08603" lon="-3.21467">
        <ele>184.71057128906</ele>
        <time>2011-07-08T20:44:39Z</time>
      </trkpt>
      <trkpt lat="48.08594" lon="-3.21462">
        <ele>184.71057128906</ele>
        <time>2011-07-08T20:44:46Z</time>
      </trkpt>
      <trkpt lat="48.08588" lon="-3.21458">
        <ele>184.71057128906</ele>
        <time>2011-07-08T20:44:51Z</time>
      </trkpt>
      <trkpt lat="48.08578" lon="-3.21452">
        <ele>183.7490234375</ele>
        <time>2011-07-08T20:44:58Z</time>
      </trkpt>
      <trkpt lat="48.0857" lon="-3.21447">
        <ele>183.7490234375</ele>
        <time>2011-07-08T20:45:04Z</time>
      </trkpt>
      <trkpt lat="48.08568" lon="-3.21446">
        <ele>183.26843261719</ele>
        <time>2011-07-08T20:45:06Z</time>
      </trkpt>
      <trkpt lat="48.08555" lon="-3.21446">
        <ele>184.22985839844</ele>
        <time>2011-07-08T20:45:13Z</time>
      </trkpt>
      <trkpt lat="48.08543" lon="-3.21442">
        <ele>191.92028808594</ele>
        <time>2011-07-08T20:45:20Z</time>
      </trkpt>
      <trkpt lat="48.08535" lon="-3.21439">
        <ele>193.3623046875</ele>
        <time>2011-07-08T20:45:25Z</time>
      </trkpt>
      <trkpt lat="48.08529" lon="-3.21436">
        <ele>194.32373046875</ele>
        <time>2011-07-08T20:45:29Z</time>
      </trkpt>
      <trkpt lat="48.08517" lon="-3.21436">
        <ele>196.24633789062</ele>
        <time>2011-07-08T20:45:35Z</time>
      </trkpt>
      <trkpt lat="48.08512" lon="-3.21436">
        <ele>196.24633789062</ele>
        <time>2011-07-08T20:45:38Z</time>
      </trkpt>
      <trkpt lat="48.08499" lon="-3.2144">
        <ele>198.64953613281</ele>
        <time>2011-07-08T20:45:44Z</time>
      </trkpt>
      <trkpt lat="48.08497" lon="-3.21441">
        <ele>199.13012695312</ele>
        <time>2011-07-08T20:45:45Z</time>
      </trkpt>
      <trkpt lat="48.08495" lon="-3.21442">
        <ele>200.572265625</ele>
        <time>2011-07-08T20:45:47Z</time>
      </trkpt>
      <trkpt lat="48.08479" lon="-3.21445">
        <ele>199.13012695312</ele>
        <time>2011-07-08T20:45:53Z</time>
      </trkpt>
      <trkpt lat="48.08466" lon="-3.21447">
        <ele>196.72692871094</ele>
        <time>2011-07-08T20:45:58Z</time>
      </trkpt>
      <trkpt lat="48.08453" lon="-3.21446">
        <ele>199.13012695312</ele>
        <time>2011-07-08T20:46:04Z</time>
      </trkpt>
      <trkpt lat="48.08437" lon="-3.21442">
        <ele>197.68823242188</ele>
        <time>2011-07-08T20:46:10Z</time>
      </trkpt>
      <trkpt lat="48.08422" lon="-3.21444">
        <ele>200.09167480469</ele>
        <time>2011-07-08T20:46:15Z</time>
      </trkpt>
      <trkpt lat="48.08416" lon="-3.21445">
        <ele>200.572265625</ele>
        <time>2011-07-08T20:46:17Z</time>
      </trkpt>
      <trkpt lat="48.08398" lon="-3.21448">
        <ele>204.89807128906</ele>
        <time>2011-07-08T20:46:24Z</time>
      </trkpt>
      <trkpt lat="48.08391" lon="-3.21451">
        <ele>205.37878417969</ele>
        <time>2011-07-08T20:46:27Z</time>
      </trkpt>
      <trkpt lat="48.08389" lon="-3.21458">
        <ele>206.82067871094</ele>
        <time>2011-07-08T20:46:31Z</time>
      </trkpt>
      <trkpt lat="48.08393" lon="-3.21469">
        <ele>209.70483398438</ele>
        <time>2011-07-08T20:46:35Z</time>
      </trkpt>
      <trkpt lat="48.08403" lon="-3.2149">
        <ele>214.03063964844</ele>
        <time>2011-07-08T20:46:40Z</time>
      </trkpt>
      <trkpt lat="48.08417" lon="-3.2151">
        <ele>218.35656738281</ele>
        <time>2011-07-08T20:46:45Z</time>
      </trkpt>
      <trkpt lat="48.08426" lon="-3.21529">
        <ele>214.99194335938</ele>
        <time>2011-07-08T20:46:49Z</time>
      </trkpt>
      <trkpt lat="48.0844" lon="-3.21539">
        <ele>213.55004882812</ele>
        <time>2011-07-08T20:46:53Z</time>
      </trkpt>
      <trkpt lat="48.08456" lon="-3.2155">
        <ele>208.74340820312</ele>
        <time>2011-07-08T20:46:57Z</time>
      </trkpt>
      <trkpt lat="48.08463" lon="-3.21554">
        <ele>209.22412109375</ele>
        <time>2011-07-08T20:46:59Z</time>
      </trkpt>
      <trkpt lat="48.08483" lon="-3.21575">
        <ele>211.14672851562</ele>
        <time>2011-07-08T20:47:05Z</time>
      </trkpt>
      <trkpt lat="48.0849" lon="-3.21581">
        <ele>211.14672851562</ele>
        <time>2011-07-08T20:47:07Z</time>
      </trkpt>
      <trkpt lat="48.08507" lon="-3.21603">
        <ele>214.51123046875</ele>
        <time>2011-07-08T20:47:13Z</time>
      </trkpt>
      <trkpt lat="48.08514" lon="-3.21611">
        <ele>215.95324707031</ele>
        <time>2011-07-08T20:47:16Z</time>
      </trkpt>
      <trkpt lat="48.08525" lon="-3.21628">
        <ele>217.39538574219</ele>
        <time>2011-07-08T20:47:22Z</time>
      </trkpt>
      <trkpt lat="48.08534" lon="-3.21639">
        <ele>218.83728027344</ele>
        <time>2011-07-08T20:47:26Z</time>
      </trkpt>
      <trkpt lat="48.08546" lon="-3.21649">
        <ele>223.64379882812</ele>
        <time>2011-07-08T20:47:31Z</time>
      </trkpt>
      <trkpt lat="48.08557" lon="-3.21661">
        <ele>223.64379882812</ele>
        <time>2011-07-08T20:47:35Z</time>
      </trkpt>
      <trkpt lat="48.08566" lon="-3.21678">
        <ele>223.16320800781</ele>
        <time>2011-07-08T20:47:39Z</time>
      </trkpt>
      <trkpt lat="48.08575" lon="-3.21699">
        <ele>221.72119140625</ele>
        <time>2011-07-08T20:47:43Z</time>
      </trkpt>
      <trkpt lat="48.08577" lon="-3.21703">
        <ele>220.75988769531</ele>
        <time>2011-07-08T20:47:44Z</time>
      </trkpt>
      <trkpt lat="48.08596" lon="-3.21699">
        <ele>219.79858398438</ele>
        <time>2011-07-08T20:47:50Z</time>
      </trkpt>
      <trkpt lat="48.08611" lon="-3.21694">
        <ele>219.79858398438</ele>
        <time>2011-07-08T20:47:54Z</time>
      </trkpt>
      <trkpt lat="48.08614" lon="-3.21693">
        <ele>220.27917480469</ele>
        <time>2011-07-08T20:47:55Z</time>
      </trkpt>
      <trkpt lat="48.08632" lon="-3.21688">
        <ele>221.24060058594</ele>
        <time>2011-07-08T20:48:01Z</time>
      </trkpt>
      <trkpt lat="48.08646" lon="-3.2168">
        <ele>223.16320800781</ele>
        <time>2011-07-08T20:48:04Z</time>
      </trkpt>
      <trkpt lat="48.08656" lon="-3.21689">
        <ele>224.12451171875</ele>
        <time>2011-07-08T20:48:09Z</time>
      </trkpt>
      <trkpt lat="48.08662" lon="-3.21693">
        <ele>225.56652832031</ele>
        <time>2011-07-08T20:48:11Z</time>
      </trkpt>
      <trkpt lat="48.08672" lon="-3.21704">
        <ele>223.16320800781</ele>
        <time>2011-07-08T20:48:16Z</time>
      </trkpt>
      <trkpt lat="48.0868" lon="-3.21714">
        <ele>223.64379882812</ele>
        <time>2011-07-08T20:48:20Z</time>
      </trkpt>
      <trkpt lat="48.08682" lon="-3.21717">
        <ele>223.64379882812</ele>
        <time>2011-07-08T20:48:21Z</time>
      </trkpt>
      <trkpt lat="48.08695" lon="-3.21727">
        <ele>225.0859375</ele>
        <time>2011-07-08T20:48:25Z</time>
      </trkpt>
      <trkpt lat="48.08708" lon="-3.21727">
        <ele>224.12451171875</ele>
        <time>2011-07-08T20:48:31Z</time>
      </trkpt>
      <trkpt lat="48.08716" lon="-3.2171">
        <ele>222.20178222656</ele>
        <time>2011-07-08T20:48:35Z</time>
      </trkpt>
      <trkpt lat="48.08719" lon="-3.21707">
        <ele>221.72119140625</ele>
        <time>2011-07-08T20:48:36Z</time>
      </trkpt>
      <trkpt lat="48.08725" lon="-3.21684">
        <ele>218.83728027344</ele>
        <time>2011-07-08T20:48:41Z</time>
      </trkpt>
      <trkpt lat="48.08711" lon="-3.21672">
        <ele>213.55004882812</ele>
        <time>2011-07-08T20:48:48Z</time>
      </trkpt>
      <trkpt lat="48.08699" lon="-3.21664">
        <ele>207.78210449219</ele>
        <time>2011-07-08T20:48:53Z</time>
      </trkpt>
      <trkpt lat="48.08694" lon="-3.2166">
        <ele>204.41748046875</ele>
        <time>2011-07-08T20:48:55Z</time>
      </trkpt>
      <trkpt lat="48.08682" lon="-3.21648">
        <ele>200.09167480469</ele>
        <time>2011-07-08T20:48:59Z</time>
      </trkpt>
      <trkpt lat="48.08686" lon="-3.21632">
        <ele>193.84301757812</ele>
        <time>2011-07-08T20:49:04Z</time>
      </trkpt>
      <trkpt lat="48.08691" lon="-3.21631">
        <ele>192.40112304688</ele>
        <time>2011-07-08T20:49:06Z</time>
      </trkpt>
      <trkpt lat="48.08699" lon="-3.21628">
        <ele>192.40112304688</ele>
        <time>2011-07-08T20:49:09Z</time>
      </trkpt>
      <trkpt lat="48.08709" lon="-3.21635">
        <ele>197.20751953125</ele>
        <time>2011-07-08T20:49:15Z</time>
      </trkpt>
      <trkpt lat="48.08711" lon="-3.21635">
        <ele>197.68823242188</ele>
        <time>2011-07-08T20:49:16Z</time>
      </trkpt>
      <trkpt lat="48.08725" lon="-3.21633">
        <ele>201.53356933594</ele>
        <time>2011-07-08T20:49:21Z</time>
      </trkpt>
      <trkpt lat="48.08738" lon="-3.2163">
        <ele>202.97546386719</ele>
        <time>2011-07-08T20:49:27Z</time>
      </trkpt>
      <trkpt lat="48.08743" lon="-3.21629">
        <ele>204.41748046875</ele>
        <time>2011-07-08T20:49:30Z</time>
      </trkpt>
      <trkpt lat="48.08743" lon="-3.2162">
        <ele>202.49487304688</ele>
        <time>2011-07-08T20:49:36Z</time>
      </trkpt>
      <trkpt lat="48.0874" lon="-3.21619">
        <ele>201.53356933594</ele>
        <time>2011-07-08T20:49:42Z</time>
      </trkpt>
      <trkpt lat="48.08735" lon="-3.21621">
        <ele>200.572265625</ele>
        <time>2011-07-08T20:49:48Z</time>
      </trkpt>
      <trkpt lat="48.0872" lon="-3.21611">
        <ele>195.765625</ele>
        <time>2011-07-08T20:49:55Z</time>
      </trkpt>
      <trkpt lat="48.08709" lon="-3.216">
        <ele>191.43957519531</ele>
        <time>2011-07-08T20:49:59Z</time>
      </trkpt>
      <trkpt lat="48.08693" lon="-3.21585">
        <ele>189.99768066406</ele>
        <time>2011-07-08T20:50:05Z</time>
      </trkpt>
      <trkpt lat="48.08681" lon="-3.21571">
        <ele>190.958984375</ele>
        <time>2011-07-08T20:50:09Z</time>
      </trkpt>
      <trkpt lat="48.0868" lon="-3.21567">
        <ele>187.11376953125</ele>
        <time>2011-07-08T20:50:13Z</time>
      </trkpt>
      <trkpt lat="48.08689" lon="-3.21561">
        <ele>183.7490234375</ele>
        <time>2011-07-08T20:50:18Z</time>
      </trkpt>
      <trkpt lat="48.0869" lon="-3.21548">
        <ele>181.34582519531</ele>
        <time>2011-07-08T20:50:23Z</time>
      </trkpt>
      <trkpt lat="48.08699" lon="-3.21535">
        <ele>178.94262695312</ele>
        <time>2011-07-08T20:50:30Z</time>
      </trkpt>
      <trkpt lat="48.087" lon="-3.21532">
        <ele>178.4619140625</ele>
        <time>2011-07-08T20:50:31Z</time>
      </trkpt>
      <trkpt lat="48.08709" lon="-3.21521">
        <ele>178.4619140625</ele>
        <time>2011-07-08T20:50:36Z</time>
      </trkpt>
      <trkpt lat="48.08709" lon="-3.21514">
        <ele>178.94262695312</ele>
        <time>2011-07-08T20:50:40Z</time>
      </trkpt>
      <trkpt lat="48.08706" lon="-3.215">
        <ele>174.61657714844</ele>
        <time>2011-07-08T20:50:45Z</time>
      </trkpt>
      <trkpt lat="48.08714" lon="-3.2148">
        <ele>169.32946777344</ele>
        <time>2011-07-08T20:50:50Z</time>
      </trkpt>
      <trkpt lat="48.08724" lon="-3.21469">
        <ele>166.4453125</ele>
        <time>2011-07-08T20:50:54Z</time>
      </trkpt>
      <trkpt lat="48.08746" lon="-3.21449">
        <ele>162.11950683594</ele>
        <time>2011-07-08T20:50:59Z</time>
      </trkpt>
      <trkpt lat="48.08754" lon="-3.21444">
        <ele>161.158203125</ele>
        <time>2011-07-08T20:51:01Z</time>
      </trkpt>
      <trkpt lat="48.08762" lon="-3.21445">
        <ele>159.71618652344</ele>
        <time>2011-07-08T20:51:06Z</time>
      </trkpt>
      <trkpt lat="48.08766" lon="-3.21449">
        <ele>160.67749023438</ele>
        <time>2011-07-08T20:51:08Z</time>
      </trkpt>
      <trkpt lat="48.08784" lon="-3.21466">
        <ele>164.52270507812</ele>
        <time>2011-07-08T20:51:14Z</time>
      </trkpt>
      <trkpt lat="48.08789" lon="-3.21474">
        <ele>165.00341796875</ele>
        <time>2011-07-08T20:51:16Z</time>
      </trkpt>
      <trkpt lat="48.08796" lon="-3.21483">
        <ele>165.00341796875</ele>
        <time>2011-07-08T20:51:19Z</time>
      </trkpt>
      <trkpt lat="48.08803" lon="-3.2149">
        <ele>166.92602539062</ele>
        <time>2011-07-08T20:51:21Z</time>
      </trkpt>
      <trkpt lat="48.08813" lon="-3.21502">
        <ele>168.36804199219</ele>
        <time>2011-07-08T20:51:25Z</time>
      </trkpt>
      <trkpt lat="48.08825" lon="-3.21514">
        <ele>172.21325683594</ele>
        <time>2011-07-08T20:51:29Z</time>
      </trkpt>
      <trkpt lat="48.08831" lon="-3.2152">
        <ele>174.61657714844</ele>
        <time>2011-07-08T20:51:31Z</time>
      </trkpt>
      <trkpt lat="48.08848" lon="-3.21541">
        <ele>179.42321777344</ele>
        <time>2011-07-08T20:51:37Z</time>
      </trkpt>
      <trkpt lat="48.08859" lon="-3.21556">
        <ele>181.34582519531</ele>
        <time>2011-07-08T20:51:41Z</time>
      </trkpt>
      <trkpt lat="48.08865" lon="-3.21563">
        <ele>181.34582519531</ele>
        <time>2011-07-08T20:51:43Z</time>
      </trkpt>
      <trkpt lat="48.08881" lon="-3.2158">
        <ele>183.7490234375</ele>
        <time>2011-07-08T20:51:48Z</time>
      </trkpt>
      <trkpt lat="48.08892" lon="-3.21591">
        <ele>183.7490234375</ele>
        <time>2011-07-08T20:51:51Z</time>
      </trkpt>
      <trkpt lat="48.08907" lon="-3.21603">
        <ele>182.30712890625</ele>
        <time>2011-07-08T20:51:55Z</time>
      </trkpt>
      <trkpt lat="48.08926" lon="-3.21621">
        <ele>180.38452148438</ele>
        <time>2011-07-08T20:52:00Z</time>
      </trkpt>
      <trkpt lat="48.08943" lon="-3.21636">
        <ele>179.90380859375</ele>
        <time>2011-07-08T20:52:04Z</time>
      </trkpt>
      <trkpt lat="48.08955" lon="-3.21647">
        <ele>179.42321777344</ele>
        <time>2011-07-08T20:52:07Z</time>
      </trkpt>
      <trkpt lat="48.08969" lon="-3.21667">
        <ele>178.4619140625</ele>
        <time>2011-07-08T20:52:13Z</time>
      </trkpt>
      <trkpt lat="48.08971" lon="-3.21674">
        <ele>174.61657714844</ele>
        <time>2011-07-08T20:52:15Z</time>
      </trkpt>
      <trkpt lat="48.08974" lon="-3.21708">
        <ele>172.21325683594</ele>
        <time>2011-07-08T20:52:21Z</time>
      </trkpt>
      <trkpt lat="48.08974" lon="-3.21743">
        <ele>172.21325683594</ele>
        <time>2011-07-08T20:52:27Z</time>
      </trkpt>
      <trkpt lat="48.08982" lon="-3.21759">
        <ele>172.21325683594</ele>
        <time>2011-07-08T20:52:31Z</time>
      </trkpt>
      <trkpt lat="48.08995" lon="-3.21769">
        <ele>171.25207519531</ele>
        <time>2011-07-08T20:52:35Z</time>
      </trkpt>
      <trkpt lat="48.08998" lon="-3.2177">
        <ele>171.25207519531</ele>
        <time>2011-07-08T20:52:36Z</time>
      </trkpt>
      <trkpt lat="48.0901" lon="-3.21762">
        <ele>167.88732910156</ele>
        <time>2011-07-08T20:52:40Z</time>
      </trkpt>
      <trkpt lat="48.09013" lon="-3.21759">
        <ele>166.92602539062</ele>
        <time>2011-07-08T20:52:41Z</time>
      </trkpt>
      <trkpt lat="48.09035" lon="-3.21737">
        <ele>162.60009765625</ele>
        <time>2011-07-08T20:52:47Z</time>
      </trkpt>
      <trkpt lat="48.09039" lon="-3.21733">
        <ele>161.63891601562</ele>
        <time>2011-07-08T20:52:48Z</time>
      </trkpt>
      <trkpt lat="48.09047" lon="-3.21731">
        <ele>161.158203125</ele>
        <time>2011-07-08T20:52:52Z</time>
      </trkpt>
      <trkpt lat="48.09052" lon="-3.21744">
        <ele>160.67749023438</ele>
        <time>2011-07-08T20:52:57Z</time>
      </trkpt>
      <trkpt lat="48.09053" lon="-3.21746">
        <ele>158.75476074219</ele>
        <time>2011-07-08T20:53:01Z</time>
      </trkpt>
      <trkpt lat="48.09053" lon="-3.21746">
        <ele>158.27416992188</ele>
        <time>2011-07-08T20:53:02Z</time>
      </trkpt>
      <trkpt lat="48.09062" lon="-3.21745">
        <ele>157.79357910156</ele>
        <time>2011-07-08T20:53:07Z</time>
      </trkpt>
      <trkpt lat="48.09071" lon="-3.21727">
        <ele>155.39025878906</ele>
        <time>2011-07-08T20:53:10Z</time>
      </trkpt>
      <trkpt lat="48.09076" lon="-3.2172">
        <ele>154.42895507812</ele>
        <time>2011-07-08T20:53:11Z</time>
      </trkpt>
      <trkpt lat="48.091" lon="-3.21692">
        <ele>152.02575683594</ele>
        <time>2011-07-08T20:53:15Z</time>
      </trkpt>
      <trkpt lat="48.09127" lon="-3.21679">
        <ele>150.58361816406</ele>
        <time>2011-07-08T20:53:19Z</time>
      </trkpt>
      <trkpt lat="48.09148" lon="-3.21682">
        <ele>149.62231445312</ele>
        <time>2011-07-08T20:53:22Z</time>
      </trkpt>
      <trkpt lat="48.09177" lon="-3.21672">
        <ele>150.58361816406</ele>
        <time>2011-07-08T20:53:27Z</time>
      </trkpt>
      <trkpt lat="48.092" lon="-3.21621">
        <ele>150.10302734375</ele>
        <time>2011-07-08T20:53:34Z</time>
      </trkpt>
      <trkpt lat="48.09209" lon="-3.21598">
        <ele>150.58361816406</ele>
        <time>2011-07-08T20:53:37Z</time>
      </trkpt>
      <trkpt lat="48.09213" lon="-3.21564">
        <ele>151.544921875</ele>
        <time>2011-07-08T20:53:41Z</time>
      </trkpt>
      <trkpt lat="48.09204" lon="-3.21495">
        <ele>157.31286621094</ele>
        <time>2011-07-08T20:53:48Z</time>
      </trkpt>
      <trkpt lat="48.09184" lon="-3.2145">
        <ele>157.31286621094</ele>
        <time>2011-07-08T20:53:53Z</time>
      </trkpt>
      <trkpt lat="48.09168" lon="-3.21426">
        <ele>156.83215332031</ele>
        <time>2011-07-08T20:53:56Z</time>
      </trkpt>
      <trkpt lat="48.09147" lon="-3.21374">
        <ele>155.39025878906</ele>
        <time>2011-07-08T20:54:02Z</time>
      </trkpt>
      <trkpt lat="48.09137" lon="-3.21334">
        <ele>157.79357910156</ele>
        <time>2011-07-08T20:54:07Z</time>
      </trkpt>
      <trkpt lat="48.09134" lon="-3.21321">
        <ele>158.75476074219</ele>
        <time>2011-07-08T20:54:09Z</time>
      </trkpt>
      <trkpt lat="48.09126" lon="-3.21274">
        <ele>161.63891601562</ele>
        <time>2011-07-08T20:54:15Z</time>
      </trkpt>
      <trkpt lat="48.09117" lon="-3.2122">
        <ele>157.79357910156</ele>
        <time>2011-07-08T20:54:21Z</time>
      </trkpt>
      <trkpt lat="48.09106" lon="-3.21161">
        <ele>157.79357910156</ele>
        <time>2011-07-08T20:54:28Z</time>
      </trkpt>
      <trkpt lat="48.09096" lon="-3.21118">
        <ele>158.75476074219</ele>
        <time>2011-07-08T20:54:34Z</time>
      </trkpt>
      <trkpt lat="48.0909" lon="-3.21091">
        <ele>159.23547363281</ele>
        <time>2011-07-08T20:54:38Z</time>
      </trkpt>
      <trkpt lat="48.09072" lon="-3.21028">
        <ele>161.158203125</ele>
        <time>2011-07-08T20:54:47Z</time>
      </trkpt>
      <trkpt lat="48.09069" lon="-3.21022">
        <ele>161.158203125</ele>
        <time>2011-07-08T20:54:48Z</time>
      </trkpt>
      <trkpt lat="48.09054" lon="-3.20973">
        <ele>162.60009765625</ele>
        <time>2011-07-08T20:54:55Z</time>
      </trkpt>
      <trkpt lat="48.09039" lon="-3.20919">
        <ele>164.52270507812</ele>
        <time>2011-07-08T20:55:03Z</time>
      </trkpt>
      <trkpt lat="48.09023" lon="-3.20872">
        <ele>166.92602539062</ele>
        <time>2011-07-08T20:55:10Z</time>
      </trkpt>
      <trkpt lat="48.09003" lon="-3.20805">
        <ele>168.36804199219</ele>
        <time>2011-07-08T20:55:19Z</time>
      </trkpt>
      <trkpt lat="48.08988" lon="-3.20752">
        <ele>167.40673828125</ele>
        <time>2011-07-08T20:55:26Z</time>
      </trkpt>
      <trkpt lat="48.08967" lon="-3.20722">
        <ele>165.96472167969</ele>
        <time>2011-07-08T20:55:31Z</time>
      </trkpt>
      <trkpt lat="48.08961" lon="-3.2072">
        <ele>165.00341796875</ele>
        <time>2011-07-08T20:55:32Z</time>
      </trkpt>
      <trkpt lat="48.08948" lon="-3.20715">
        <ele>164.04211425781</ele>
        <time>2011-07-08T20:55:34Z</time>
      </trkpt>
      <trkpt lat="48.08924" lon="-3.20706">
        <ele>162.11950683594</ele>
        <time>2011-07-08T20:55:38Z</time>
      </trkpt>
      <trkpt lat="48.0892" lon="-3.20706">
        <ele>161.63891601562</ele>
        <time>2011-07-08T20:55:39Z</time>
      </trkpt>
      <trkpt lat="48.089" lon="-3.20705">
        <ele>159.23547363281</ele>
        <time>2011-07-08T20:55:44Z</time>
      </trkpt>
      <trkpt lat="48.08884" lon="-3.20707">
        <ele>157.31286621094</ele>
        <time>2011-07-08T20:55:48Z</time>
      </trkpt>
      <trkpt lat="48.0887" lon="-3.20705">
        <ele>157.31286621094</ele>
        <time>2011-07-08T20:55:52Z</time>
      </trkpt>
      <trkpt lat="48.08841" lon="-3.20712">
        <ele>158.27416992188</ele>
        <time>2011-07-08T20:55:58Z</time>
      </trkpt>
      <trkpt lat="48.08814" lon="-3.2072">
        <ele>157.79357910156</ele>
        <time>2011-07-08T20:56:03Z</time>
      </trkpt>
      <trkpt lat="48.08787" lon="-3.20725">
        <ele>156.3515625</ele>
        <time>2011-07-08T20:56:08Z</time>
      </trkpt>
      <trkpt lat="48.08783" lon="-3.20727">
        <ele>156.3515625</ele>
        <time>2011-07-08T20:56:09Z</time>
      </trkpt>
      <trkpt lat="48.08759" lon="-3.2073">
        <ele>155.87097167969</ele>
        <time>2011-07-08T20:56:14Z</time>
      </trkpt>
      <trkpt lat="48.08739" lon="-3.2073">
        <ele>155.39025878906</ele>
        <time>2011-07-08T20:56:18Z</time>
      </trkpt>
      <trkpt lat="48.08721" lon="-3.20726">
        <ele>157.79357910156</ele>
        <time>2011-07-08T20:56:22Z</time>
      </trkpt>
      <trkpt lat="48.08707" lon="-3.20719">
        <ele>157.79357910156</ele>
        <time>2011-07-08T20:56:25Z</time>
      </trkpt>
      <trkpt lat="48.08683" lon="-3.20711">
        <ele>157.79357910156</ele>
        <time>2011-07-08T20:56:30Z</time>
      </trkpt>
      <trkpt lat="48.08651" lon="-3.20706">
        <ele>151.06420898438</ele>
        <time>2011-07-08T20:56:35Z</time>
      </trkpt>
      <trkpt lat="48.08637" lon="-3.20703">
        <ele>151.06420898438</ele>
        <time>2011-07-08T20:56:38Z</time>
      </trkpt>
      <trkpt lat="48.08634" lon="-3.20701">
        <ele>151.544921875</ele>
        <time>2011-07-08T20:56:41Z</time>
      </trkpt>
      <trkpt lat="48.08625" lon="-3.20701">
        <ele>152.98693847656</ele>
        <time>2011-07-08T20:56:45Z</time>
      </trkpt>
      <trkpt lat="48.08603" lon="-3.20699">
        <ele>151.06420898438</ele>
        <time>2011-07-08T20:56:50Z</time>
      </trkpt>
      <trkpt lat="48.08581" lon="-3.20692">
        <ele>148.18041992188</ele>
        <time>2011-07-08T20:56:54Z</time>
      </trkpt>
      <trkpt lat="48.08569" lon="-3.20689">
        <ele>147.69970703125</ele>
        <time>2011-07-08T20:56:56Z</time>
      </trkpt>
      <trkpt lat="48.08553" lon="-3.20685">
        <ele>146.73840332031</ele>
        <time>2011-07-08T20:56:59Z</time>
      </trkpt>
      <trkpt lat="48.08536" lon="-3.20666">
        <ele>142.89306640625</ele>
        <time>2011-07-08T20:57:04Z</time>
      </trkpt>
      <trkpt lat="48.08532" lon="-3.20662">
        <ele>141.93176269531</ele>
        <time>2011-07-08T20:57:05Z</time>
      </trkpt>
      <trkpt lat="48.08509" lon="-3.20656">
        <ele>138.56726074219</ele>
        <time>2011-07-08T20:57:11Z</time>
      </trkpt>
      <trkpt lat="48.085" lon="-3.20658">
        <ele>136.16394042969</ele>
        <time>2011-07-08T20:57:13Z</time>
      </trkpt>
      <trkpt lat="48.08479" lon="-3.20667">
        <ele>134.72192382812</ele>
        <time>2011-07-08T20:57:18Z</time>
      </trkpt>
      <trkpt lat="48.08476" lon="-3.20669">
        <ele>135.20251464844</ele>
        <time>2011-07-08T20:57:19Z</time>
      </trkpt>
      <trkpt lat="48.08474" lon="-3.20658">
        <ele>134.72192382812</ele>
        <time>2011-07-08T20:57:25Z</time>
      </trkpt>
      <trkpt lat="48.08488" lon="-3.20642">
        <ele>132.79931640625</ele>
        <time>2011-07-08T20:57:30Z</time>
      </trkpt>
      <trkpt lat="48.08498" lon="-3.20632">
        <ele>132.79931640625</ele>
        <time>2011-07-08T20:57:34Z</time>
      </trkpt>
      <trkpt lat="48.08511" lon="-3.20623">
        <ele>130.87670898438</ele>
        <time>2011-07-08T20:57:38Z</time>
      </trkpt>
      <trkpt lat="48.08529" lon="-3.20616">
        <ele>134.72192382812</ele>
        <time>2011-07-08T20:57:42Z</time>
      </trkpt>
      <trkpt lat="48.08538" lon="-3.20613">
        <ele>135.68310546875</ele>
        <time>2011-07-08T20:57:44Z</time>
      </trkpt>
      <trkpt lat="48.08553" lon="-3.20608">
        <ele>140.48986816406</ele>
        <time>2011-07-08T20:57:48Z</time>
      </trkpt>
      <trkpt lat="48.08565" lon="-3.20603">
        <ele>145.77709960938</ele>
        <time>2011-07-08T20:57:54Z</time>
      </trkpt>
      <trkpt lat="48.08568" lon="-3.20601">
        <ele>146.73840332031</ele>
        <time>2011-07-08T20:57:58Z</time>
      </trkpt>
      <trkpt lat="48.08574" lon="-3.20598">
        <ele>148.18041992188</ele>
        <time>2011-07-08T20:58:04Z</time>
      </trkpt>
      <trkpt lat="48.08577" lon="-3.20596">
        <ele>149.1416015625</ele>
        <time>2011-07-08T20:58:11Z</time>
      </trkpt>
      <trkpt lat="48.08584" lon="-3.2059">
        <ele>149.62231445312</ele>
        <time>2011-07-08T20:58:15Z</time>
      </trkpt>
      <trkpt lat="48.08597" lon="-3.20575">
        <ele>151.544921875</ele>
        <time>2011-07-08T20:58:22Z</time>
      </trkpt>
      <trkpt lat="48.086" lon="-3.20571">
        <ele>152.50634765625</ele>
        <time>2011-07-08T20:58:24Z</time>
      </trkpt>
      <trkpt lat="48.08601" lon="-3.20559">
        <ele>153.46765136719</ele>
        <time>2011-07-08T20:58:30Z</time>
      </trkpt>
      <trkpt lat="48.08599" lon="-3.2055">
        <ele>153.46765136719</ele>
        <time>2011-07-08T20:58:33Z</time>
      </trkpt>
      <trkpt lat="48.08597" lon="-3.20523">
        <ele>150.58361816406</ele>
        <time>2011-07-08T20:58:38Z</time>
      </trkpt>
      <trkpt lat="48.08593" lon="-3.20493">
        <ele>149.62231445312</ele>
        <time>2011-07-08T20:58:43Z</time>
      </trkpt>
      <trkpt lat="48.0859" lon="-3.20468">
        <ele>148.18041992188</ele>
        <time>2011-07-08T20:58:48Z</time>
      </trkpt>
      <trkpt lat="48.08589" lon="-3.20443">
        <ele>145.77709960938</ele>
        <time>2011-07-08T20:58:53Z</time>
      </trkpt>
      <trkpt lat="48.08595" lon="-3.20419">
        <ele>144.81579589844</ele>
        <time>2011-07-08T20:58:58Z</time>
      </trkpt>
      <trkpt lat="48.08598" lon="-3.20404">
        <ele>145.29638671875</ele>
        <time>2011-07-08T20:59:02Z</time>
      </trkpt>
      <trkpt lat="48.08577" lon="-3.20391">
        <ele>142.41247558594</ele>
        <time>2011-07-08T20:59:07Z</time>
      </trkpt>
      <trkpt lat="48.08564" lon="-3.2038">
        <ele>142.41247558594</ele>
        <time>2011-07-08T20:59:10Z</time>
      </trkpt>
      <trkpt lat="48.08558" lon="-3.20381">
        <ele>142.41247558594</ele>
        <time>2011-07-08T20:59:14Z</time>
      </trkpt>
      <trkpt lat="48.08552" lon="-3.20408">
        <ele>143.85437011719</ele>
        <time>2011-07-08T20:59:20Z</time>
      </trkpt>
      <trkpt lat="48.08546" lon="-3.20438">
        <ele>145.77709960938</ele>
        <time>2011-07-08T20:59:26Z</time>
      </trkpt>
      <trkpt lat="48.08546" lon="-3.20464">
        <ele>151.06420898438</ele>
        <time>2011-07-08T20:59:32Z</time>
      </trkpt>
      <trkpt lat="48.08546" lon="-3.20487">
        <ele>155.39025878906</ele>
        <time>2011-07-08T20:59:37Z</time>
      </trkpt>
      <trkpt lat="48.08547" lon="-3.20512">
        <ele>161.63891601562</ele>
        <time>2011-07-08T20:59:42Z</time>
      </trkpt>
      <trkpt lat="48.08545" lon="-3.20534">
        <ele>165.48413085938</ele>
        <time>2011-07-08T20:59:47Z</time>
      </trkpt>
      <trkpt lat="48.08535" lon="-3.20541">
        <ele>162.60009765625</ele>
        <time>2011-07-08T20:59:51Z</time>
      </trkpt>
      <trkpt lat="48.08513" lon="-3.20543">
        <ele>156.83215332031</ele>
        <time>2011-07-08T20:59:57Z</time>
      </trkpt>
      <trkpt lat="48.08498" lon="-3.20541">
        <ele>154.42895507812</ele>
        <time>2011-07-08T21:00:01Z</time>
      </trkpt>
      <trkpt lat="48.08484" lon="-3.20535">
        <ele>148.18041992188</ele>
        <time>2011-07-08T21:00:05Z</time>
      </trkpt>
      <trkpt lat="48.08466" lon="-3.20535">
        <ele>143.85437011719</ele>
        <time>2011-07-08T21:00:09Z</time>
      </trkpt>
      <trkpt lat="48.08449" lon="-3.20543">
        <ele>139.52844238281</ele>
        <time>2011-07-08T21:00:14Z</time>
      </trkpt>
      <trkpt lat="48.08446" lon="-3.20545">
        <ele>139.52844238281</ele>
        <time>2011-07-08T21:00:15Z</time>
      </trkpt>
      <trkpt lat="48.0844" lon="-3.20558">
        <ele>137.12524414062</ele>
        <time>2011-07-08T21:00:19Z</time>
      </trkpt>
      <trkpt lat="48.08432" lon="-3.20584">
        <ele>135.68310546875</ele>
        <time>2011-07-08T21:00:24Z</time>
      </trkpt>
      <trkpt lat="48.08426" lon="-3.20612">
        <ele>136.64465332031</ele>
        <time>2011-07-08T21:00:28Z</time>
      </trkpt>
      <trkpt lat="48.08423" lon="-3.20619">
        <ele>136.64465332031</ele>
        <time>2011-07-08T21:00:32Z</time>
      </trkpt>
      <trkpt lat="48.08422" lon="-3.2062">
        <ele>137.12524414062</ele>
        <time>2011-07-08T21:00:33Z</time>
      </trkpt>
      <trkpt lat="48.08413" lon="-3.2063">
        <ele>135.20251464844</ele>
        <time>2011-07-08T21:00:39Z</time>
      </trkpt>
      <trkpt lat="48.08411" lon="-3.20632">
        <ele>135.20251464844</ele>
        <time>2011-07-08T21:00:40Z</time>
      </trkpt>
      <trkpt lat="48.08397" lon="-3.20638">
        <ele>134.72192382812</ele>
        <time>2011-07-08T21:00:45Z</time>
      </trkpt>
      <trkpt lat="48.08387" lon="-3.20642">
        <ele>134.2412109375</ele>
        <time>2011-07-08T21:00:49Z</time>
      </trkpt>
      <trkpt lat="48.08372" lon="-3.20649">
        <ele>133.27990722656</ele>
        <time>2011-07-08T21:00:54Z</time>
      </trkpt>
      <trkpt lat="48.08355" lon="-3.20644">
        <ele>130.87670898438</ele>
        <time>2011-07-08T21:01:00Z</time>
      </trkpt>
      <trkpt lat="48.08342" lon="-3.20637">
        <ele>127.51196289062</ele>
        <time>2011-07-08T21:01:05Z</time>
      </trkpt>
      <trkpt lat="48.08326" lon="-3.20627">
        <ele>124.62805175781</ele>
        <time>2011-07-08T21:01:09Z</time>
      </trkpt>
      <trkpt lat="48.08312" lon="-3.20616">
        <ele>121.26354980469</ele>
        <time>2011-07-08T21:01:13Z</time>
      </trkpt>
      <trkpt lat="48.08295" lon="-3.20602">
        <ele>118.37939453125</ele>
        <time>2011-07-08T21:01:18Z</time>
      </trkpt>
      <trkpt lat="48.08282" lon="-3.20594">
        <ele>116.45678710938</ele>
        <time>2011-07-08T21:01:22Z</time>
      </trkpt>
      <trkpt lat="48.08268" lon="-3.20585">
        <ele>112.13098144531</ele>
        <time>2011-07-08T21:01:26Z</time>
      </trkpt>
      <trkpt lat="48.08255" lon="-3.20576">
        <ele>111.16955566406</ele>
        <time>2011-07-08T21:01:31Z</time>
      </trkpt>
      <trkpt lat="48.0825" lon="-3.20571">
        <ele>112.61157226562</ele>
        <time>2011-07-08T21:01:34Z</time>
      </trkpt>
      <trkpt lat="48.08245" lon="-3.20568">
        <ele>115.97619628906</ele>
        <time>2011-07-08T21:01:39Z</time>
      </trkpt>
      <trkpt lat="48.08234" lon="-3.20556">
        <ele>124.14733886719</ele>
        <time>2011-07-08T21:01:50Z</time>
      </trkpt>
      <trkpt lat="48.08223" lon="-3.20544">
        <ele>129.91528320312</ele>
        <time>2011-07-08T21:01:54Z</time>
      </trkpt>
      <trkpt lat="48.08221" lon="-3.20542">
        <ele>131.35729980469</ele>
        <time>2011-07-08T21:01:55Z</time>
      </trkpt>
      <trkpt lat="48.0821" lon="-3.20538">
        <ele>133.27990722656</ele>
        <time>2011-07-08T21:02:01Z</time>
      </trkpt>
      <trkpt lat="48.08195" lon="-3.20541">
        <ele>136.64465332031</ele>
        <time>2011-07-08T21:02:07Z</time>
      </trkpt>
      <trkpt lat="48.08182" lon="-3.20541">
        <ele>137.12524414062</ele>
        <time>2011-07-08T21:02:11Z</time>
      </trkpt>
      <trkpt lat="48.08166" lon="-3.20539">
        <ele>134.2412109375</ele>
        <time>2011-07-08T21:02:16Z</time>
      </trkpt>
      <trkpt lat="48.08144" lon="-3.20534">
        <ele>135.68310546875</ele>
        <time>2011-07-08T21:02:22Z</time>
      </trkpt>
      <trkpt lat="48.08131" lon="-3.20531">
        <ele>135.68310546875</ele>
        <time>2011-07-08T21:02:27Z</time>
      </trkpt>
      <trkpt lat="48.08119" lon="-3.20528">
        <ele>135.68310546875</ele>
        <time>2011-07-08T21:02:31Z</time>
      </trkpt>
      <trkpt lat="48.08097" lon="-3.20529">
        <ele>136.16394042969</ele>
        <time>2011-07-08T21:02:36Z</time>
      </trkpt>
      <trkpt lat="48.08084" lon="-3.20528">
        <ele>137.12524414062</ele>
        <time>2011-07-08T21:02:39Z</time>
      </trkpt>
      <trkpt lat="48.08068" lon="-3.20522">
        <ele>136.16394042969</ele>
        <time>2011-07-08T21:02:43Z</time>
      </trkpt>
      <trkpt lat="48.08057" lon="-3.20518">
        <ele>134.72192382812</ele>
        <time>2011-07-08T21:02:47Z</time>
      </trkpt>
      <trkpt lat="48.0805" lon="-3.2052">
        <ele>133.76049804688</ele>
        <time>2011-07-08T21:02:50Z</time>
      </trkpt>
      <trkpt lat="48.08036" lon="-3.20518">
        <ele>133.76049804688</ele>
        <time>2011-07-08T21:02:55Z</time>
      </trkpt>
      <trkpt lat="48.08021" lon="-3.2052">
        <ele>133.76049804688</ele>
        <time>2011-07-08T21:03:00Z</time>
      </trkpt>
      <trkpt lat="48.08003" lon="-3.20526">
        <ele>133.76049804688</ele>
        <time>2011-07-08T21:03:06Z</time>
      </trkpt>
      <trkpt lat="48.07983" lon="-3.20531">
        <ele>132.31860351562</ele>
        <time>2011-07-08T21:03:11Z</time>
      </trkpt>
      <trkpt lat="48.07972" lon="-3.20534">
        <ele>132.79931640625</ele>
        <time>2011-07-08T21:03:14Z</time>
      </trkpt>
      <trkpt lat="48.0796" lon="-3.20533">
        <ele>130.39599609375</ele>
        <time>2011-07-08T21:03:17Z</time>
      </trkpt>
      <trkpt lat="48.07945" lon="-3.20532">
        <ele>130.39599609375</ele>
        <time>2011-07-08T21:03:20Z</time>
      </trkpt>
      <trkpt lat="48.0792" lon="-3.20526">
        <ele>129.43469238281</ele>
        <time>2011-07-08T21:03:26Z</time>
      </trkpt>
      <trkpt lat="48.07907" lon="-3.20525">
        <ele>127.03137207031</ele>
        <time>2011-07-08T21:03:29Z</time>
      </trkpt>
      <trkpt lat="48.07881" lon="-3.2052">
        <ele>125.58935546875</ele>
        <time>2011-07-08T21:03:35Z</time>
      </trkpt>
      <trkpt lat="48.07877" lon="-3.20519">
        <ele>125.58935546875</ele>
        <time>2011-07-08T21:03:36Z</time>
      </trkpt>
      <trkpt lat="48.07861" lon="-3.20519">
        <ele>126.55065917969</ele>
        <time>2011-07-08T21:03:40Z</time>
      </trkpt>
      <trkpt lat="48.07846" lon="-3.20528">
        <ele>127.51196289062</ele>
        <time>2011-07-08T21:03:45Z</time>
      </trkpt>
      <trkpt lat="48.07834" lon="-3.20537">
        <ele>127.51196289062</ele>
        <time>2011-07-08T21:03:52Z</time>
      </trkpt>
      <trkpt lat="48.07825" lon="-3.20548">
        <ele>128.47338867188</ele>
        <time>2011-07-08T21:03:56Z</time>
      </trkpt>
      <trkpt lat="48.07816" lon="-3.20568">
        <ele>130.87670898438</ele>
        <time>2011-07-08T21:04:01Z</time>
      </trkpt>
      <trkpt lat="48.07814" lon="-3.20571">
        <ele>130.87670898438</ele>
        <time>2011-07-08T21:04:02Z</time>
      </trkpt>
      <trkpt lat="48.07812" lon="-3.20598">
        <ele>138.08654785156</ele>
        <time>2011-07-08T21:04:07Z</time>
      </trkpt>
      <trkpt lat="48.07807" lon="-3.20618">
        <ele>141.93176269531</ele>
        <time>2011-07-08T21:04:11Z</time>
      </trkpt>
      <trkpt lat="48.07803" lon="-3.20626">
        <ele>146.2578125</ele>
        <time>2011-07-08T21:04:15Z</time>
      </trkpt>
      <trkpt lat="48.07803" lon="-3.20629">
        <ele>146.73840332031</ele>
        <time>2011-07-08T21:04:17Z</time>
      </trkpt>
      <trkpt lat="48.07799" lon="-3.20636">
        <ele>144.33520507812</ele>
        <time>2011-07-08T21:04:24Z</time>
      </trkpt>
      <trkpt lat="48.07798" lon="-3.20638">
        <ele>145.29638671875</ele>
        <time>2011-07-08T21:04:25Z</time>
      </trkpt>
      <trkpt lat="48.07796" lon="-3.20642">
        <ele>145.77709960938</ele>
        <time>2011-07-08T21:04:28Z</time>
      </trkpt>
      <trkpt lat="48.07796" lon="-3.20643">
        <ele>145.77709960938</ele>
        <time>2011-07-08T21:04:29Z</time>
      </trkpt>
      <trkpt lat="48.07795" lon="-3.20653">
        <ele>145.29638671875</ele>
        <time>2011-07-08T21:04:34Z</time>
      </trkpt>
      <trkpt lat="48.07795" lon="-3.20674">
        <ele>142.89306640625</ele>
        <time>2011-07-08T21:04:41Z</time>
      </trkpt>
      <trkpt lat="48.0779" lon="-3.2069">
        <ele>135.20251464844</ele>
        <time>2011-07-08T21:04:46Z</time>
      </trkpt>
      <trkpt lat="48.07792" lon="-3.20696">
        <ele>132.79931640625</ele>
        <time>2011-07-08T21:04:48Z</time>
      </trkpt>
      <trkpt lat="48.07794" lon="-3.20703">
        <ele>130.87670898438</ele>
        <time>2011-07-08T21:04:50Z</time>
      </trkpt>
      <trkpt lat="48.07783" lon="-3.20719">
        <ele>127.03137207031</ele>
        <time>2011-07-08T21:04:55Z</time>
      </trkpt>
      <trkpt lat="48.07766" lon="-3.20741">
        <ele>123.18615722656</ele>
        <time>2011-07-08T21:05:01Z</time>
      </trkpt>
      <trkpt lat="48.07759" lon="-3.20751">
        <ele>122.70544433594</ele>
        <time>2011-07-08T21:05:03Z</time>
      </trkpt>
      <trkpt lat="48.07742" lon="-3.20763">
        <ele>117.41821289062</ele>
        <time>2011-07-08T21:05:07Z</time>
      </trkpt>
      <trkpt lat="48.07729" lon="-3.20771">
        <ele>115.49560546875</ele>
        <time>2011-07-08T21:05:10Z</time>
      </trkpt>
      <trkpt lat="48.07718" lon="-3.20782">
        <ele>115.97619628906</ele>
        <time>2011-07-08T21:05:13Z</time>
      </trkpt>
      <trkpt lat="48.07693" lon="-3.20811">
        <ele>122.70544433594</ele>
        <time>2011-07-08T21:05:19Z</time>
      </trkpt>
      <trkpt lat="48.07689" lon="-3.20816">
        <ele>124.14733886719</ele>
        <time>2011-07-08T21:05:20Z</time>
      </trkpt>
      <trkpt lat="48.07677" lon="-3.2083">
        <ele>127.99255371094</ele>
        <time>2011-07-08T21:05:23Z</time>
      </trkpt>
      <trkpt lat="48.07658" lon="-3.20851">
        <ele>140.00915527344</ele>
        <time>2011-07-08T21:05:28Z</time>
      </trkpt>
      <trkpt lat="48.07656" lon="-3.20851">
        <ele>140.97045898438</ele>
        <time>2011-07-08T21:05:29Z</time>
      </trkpt>
      <trkpt lat="48.07657" lon="-3.20833">
        <ele>138.56726074219</ele>
        <time>2011-07-08T21:05:36Z</time>
      </trkpt>
      <trkpt lat="48.07661" lon="-3.20823">
        <ele>137.12524414062</ele>
        <time>2011-07-08T21:05:39Z</time>
      </trkpt>
      <trkpt lat="48.07668" lon="-3.20809">
        <ele>135.68310546875</ele>
        <time>2011-07-08T21:05:44Z</time>
      </trkpt>
      <trkpt lat="48.07668" lon="-3.20806">
        <ele>136.64465332031</ele>
        <time>2011-07-08T21:05:45Z</time>
      </trkpt>
      <trkpt lat="48.07667" lon="-3.208">
        <ele>139.52844238281</ele>
        <time>2011-07-08T21:05:48Z</time>
      </trkpt>
      <trkpt lat="48.07673" lon="-3.2079">
        <ele>142.89306640625</ele>
        <time>2011-07-08T21:05:56Z</time>
      </trkpt>
      <trkpt lat="48.07682" lon="-3.20778">
        <ele>141.93176269531</ele>
        <time>2011-07-08T21:06:02Z</time>
      </trkpt>
      <trkpt lat="48.07686" lon="-3.20771">
        <ele>141.93176269531</ele>
        <time>2011-07-08T21:06:05Z</time>
      </trkpt>
      <trkpt lat="48.07692" lon="-3.20766">
        <ele>140.97045898438</ele>
        <time>2011-07-08T21:06:09Z</time>
      </trkpt>
      <trkpt lat="48.07702" lon="-3.20752">
        <ele>138.56726074219</ele>
        <time>2011-07-08T21:06:15Z</time>
      </trkpt>
      <trkpt lat="48.07709" lon="-3.20741">
        <ele>136.64465332031</ele>
        <time>2011-07-08T21:06:21Z</time>
      </trkpt>
      <trkpt lat="48.07717" lon="-3.20733">
        <ele>134.72192382812</ele>
        <time>2011-07-08T21:06:25Z</time>
      </trkpt>
      <trkpt lat="48.07721" lon="-3.20728">
        <ele>135.20251464844</ele>
        <time>2011-07-08T21:06:28Z</time>
      </trkpt>
      <trkpt lat="48.07723" lon="-3.20725">
        <ele>135.68310546875</ele>
        <time>2011-07-08T21:06:30Z</time>
      </trkpt>
      <trkpt lat="48.07729" lon="-3.20715">
        <ele>135.20251464844</ele>
        <time>2011-07-08T21:06:34Z</time>
      </trkpt>
      <trkpt lat="48.07737" lon="-3.20698">
        <ele>137.12524414062</ele>
        <time>2011-07-08T21:06:41Z</time>
      </trkpt>
      <trkpt lat="48.07739" lon="-3.20692">
        <ele>138.56726074219</ele>
        <time>2011-07-08T21:06:44Z</time>
      </trkpt>
      <trkpt lat="48.07738" lon="-3.20682">
        <ele>142.41247558594</ele>
        <time>2011-07-08T21:06:49Z</time>
      </trkpt>
      <trkpt lat="48.07737" lon="-3.20677">
        <ele>142.41247558594</ele>
        <time>2011-07-08T21:06:55Z</time>
      </trkpt>
      <trkpt lat="48.07735" lon="-3.2068">
        <ele>144.81579589844</ele>
        <time>2011-07-08T21:07:01Z</time>
      </trkpt>
      <trkpt lat="48.07726" lon="-3.20692">
        <ele>149.1416015625</ele>
        <time>2011-07-08T21:07:08Z</time>
      </trkpt>
      <trkpt lat="48.07714" lon="-3.207">
        <ele>148.18041992188</ele>
        <time>2011-07-08T21:07:13Z</time>
      </trkpt>
      <trkpt lat="48.07701" lon="-3.2071">
        <ele>148.18041992188</ele>
        <time>2011-07-08T21:07:17Z</time>
      </trkpt>
      <trkpt lat="48.07691" lon="-3.20716">
        <ele>145.29638671875</ele>
        <time>2011-07-08T21:07:21Z</time>
      </trkpt>
      <trkpt lat="48.07679" lon="-3.20724">
        <ele>144.81579589844</ele>
        <time>2011-07-08T21:07:26Z</time>
      </trkpt>
      <trkpt lat="48.07667" lon="-3.20733">
        <ele>146.2578125</ele>
        <time>2011-07-08T21:07:32Z</time>
      </trkpt>
      <trkpt lat="48.07657" lon="-3.20738">
        <ele>148.66101074219</ele>
        <time>2011-07-08T21:07:38Z</time>
      </trkpt>
      <trkpt lat="48.07646" lon="-3.20745">
        <ele>151.06420898438</ele>
        <time>2011-07-08T21:07:43Z</time>
      </trkpt>
      <trkpt lat="48.07635" lon="-3.20748">
        <ele>149.62231445312</ele>
        <time>2011-07-08T21:07:50Z</time>
      </trkpt>
      <trkpt lat="48.07634" lon="-3.20749">
        <ele>155.39025878906</ele>
        <time>2011-07-08T21:07:56Z</time>
      </trkpt>
      <trkpt lat="48.07635" lon="-3.20748">
        <ele>155.39025878906</ele>
        <time>2011-07-08T21:07:57Z</time>
      </trkpt>
      <trkpt lat="48.07643" lon="-3.20736">
        <ele>153.94836425781</ele>
        <time>2011-07-08T21:08:03Z</time>
      </trkpt>
      <trkpt lat="48.07653" lon="-3.20724">
        <ele>153.94836425781</ele>
        <time>2011-07-08T21:08:07Z</time>
      </trkpt>
      <trkpt lat="48.07665" lon="-3.2071">
        <ele>152.98693847656</ele>
        <time>2011-07-08T21:08:12Z</time>
      </trkpt>
      <trkpt lat="48.07679" lon="-3.20699">
        <ele>153.46765136719</ele>
        <time>2011-07-08T21:08:17Z</time>
      </trkpt>
      <trkpt lat="48.0769" lon="-3.20684">
        <ele>154.42895507812</ele>
        <time>2011-07-08T21:08:21Z</time>
      </trkpt>
      <trkpt lat="48.07705" lon="-3.20671">
        <ele>156.83215332031</ele>
        <time>2011-07-08T21:08:24Z</time>
      </trkpt>
      <trkpt lat="48.07716" lon="-3.20656">
        <ele>159.71618652344</ele>
        <time>2011-07-08T21:08:27Z</time>
      </trkpt>
      <trkpt lat="48.07719" lon="-3.2065">
        <ele>161.158203125</ele>
        <time>2011-07-08T21:08:29Z</time>
      </trkpt>
      <trkpt lat="48.07727" lon="-3.20633">
        <ele>163.08081054688</ele>
        <time>2011-07-08T21:08:35Z</time>
      </trkpt>
      <trkpt lat="48.07734" lon="-3.20608">
        <ele>163.5615234375</ele>
        <time>2011-07-08T21:08:42Z</time>
      </trkpt>
      <trkpt lat="48.07747" lon="-3.20584">
        <ele>164.52270507812</ele>
        <time>2011-07-08T21:08:48Z</time>
      </trkpt>
      <trkpt lat="48.07756" lon="-3.20566">
        <ele>167.88732910156</ele>
        <time>2011-07-08T21:08:52Z</time>
      </trkpt>
      <trkpt lat="48.07763" lon="-3.20549">
        <ele>170.29064941406</ele>
        <time>2011-07-08T21:08:55Z</time>
      </trkpt>
      <trkpt lat="48.07775" lon="-3.20527">
        <ele>170.77136230469</ele>
        <time>2011-07-08T21:09:00Z</time>
      </trkpt>
      <trkpt lat="48.07779" lon="-3.20519">
        <ele>169.81005859375</ele>
        <time>2011-07-08T21:09:02Z</time>
      </trkpt>
      <trkpt lat="48.07798" lon="-3.20475">
        <ele>153.94836425781</ele>
        <time>2011-07-08T21:09:10Z</time>
      </trkpt>
      <trkpt lat="48.07814" lon="-3.20438">
        <ele>152.98693847656</ele>
        <time>2011-07-08T21:09:17Z</time>
      </trkpt>
      <trkpt lat="48.07819" lon="-3.20413">
        <ele>154.42895507812</ele>
        <time>2011-07-08T21:09:22Z</time>
      </trkpt>
      <trkpt lat="48.07819" lon="-3.20409">
        <ele>154.90954589844</ele>
        <time>2011-07-08T21:09:23Z</time>
      </trkpt>
      <trkpt lat="48.07813" lon="-3.20401">
        <ele>157.79357910156</ele>
        <time>2011-07-08T21:09:26Z</time>
      </trkpt>
      <trkpt lat="48.07803" lon="-3.20388">
        <ele>161.158203125</ele>
        <time>2011-07-08T21:09:32Z</time>
      </trkpt>
      <trkpt lat="48.07796" lon="-3.20384">
        <ele>161.158203125</ele>
        <time>2011-07-08T21:09:35Z</time>
      </trkpt>
      <trkpt lat="48.07786" lon="-3.20377">
        <ele>164.52270507812</ele>
        <time>2011-07-08T21:09:42Z</time>
      </trkpt>
      <trkpt lat="48.07777" lon="-3.2037">
        <ele>163.5615234375</ele>
        <time>2011-07-08T21:09:48Z</time>
      </trkpt>
      <trkpt lat="48.07775" lon="-3.20368">
        <ele>164.52270507812</ele>
        <time>2011-07-08T21:09:49Z</time>
      </trkpt>
      <trkpt lat="48.07768" lon="-3.20359">
        <ele>168.36804199219</ele>
        <time>2011-07-08T21:09:56Z</time>
      </trkpt>
      <trkpt lat="48.07763" lon="-3.20354">
        <ele>169.32946777344</ele>
        <time>2011-07-08T21:10:02Z</time>
      </trkpt>
      <trkpt lat="48.07762" lon="-3.20351">
        <ele>169.32946777344</ele>
        <time>2011-07-08T21:10:04Z</time>
      </trkpt>
      <trkpt lat="48.07752" lon="-3.20344">
        <ele>170.77136230469</ele>
        <time>2011-07-08T21:10:12Z</time>
      </trkpt>
      <trkpt lat="48.07743" lon="-3.20337">
        <ele>171.25207519531</ele>
        <time>2011-07-08T21:10:19Z</time>
      </trkpt>
      <trkpt lat="48.07736" lon="-3.20333">
        <ele>170.29064941406</ele>
        <time>2011-07-08T21:10:23Z</time>
      </trkpt>
      <trkpt lat="48.07736" lon="-3.20329">
        <ele>171.73266601562</ele>
        <time>2011-07-08T21:10:27Z</time>
      </trkpt>
      <trkpt lat="48.07753" lon="-3.20322">
        <ele>171.73266601562</ele>
        <time>2011-07-08T21:10:34Z</time>
      </trkpt>
      <trkpt lat="48.07772" lon="-3.20314">
        <ele>170.77136230469</ele>
        <time>2011-07-08T21:10:39Z</time>
      </trkpt>
      <trkpt lat="48.07785" lon="-3.20307">
        <ele>168.84875488281</ele>
        <time>2011-07-08T21:10:43Z</time>
      </trkpt>
      <trkpt lat="48.078" lon="-3.203">
        <ele>169.32946777344</ele>
        <time>2011-07-08T21:10:48Z</time>
      </trkpt>
      <trkpt lat="48.07814" lon="-3.20297">
        <ele>170.29064941406</ele>
        <time>2011-07-08T21:10:53Z</time>
      </trkpt>
      <trkpt lat="48.07817" lon="-3.20303">
        <ele>171.73266601562</ele>
        <time>2011-07-08T21:10:57Z</time>
      </trkpt>
      <trkpt lat="48.07822" lon="-3.2031">
        <ele>172.69396972656</ele>
        <time>2011-07-08T21:11:00Z</time>
      </trkpt>
      <trkpt lat="48.07831" lon="-3.2032">
        <ele>175.57788085938</ele>
        <time>2011-07-08T21:11:05Z</time>
      </trkpt>
      <trkpt lat="48.07839" lon="-3.2032">
        <ele>177.50061035156</ele>
        <time>2011-07-08T21:11:08Z</time>
      </trkpt>
      <trkpt lat="48.0785" lon="-3.20317">
        <ele>178.94262695312</ele>
        <time>2011-07-08T21:11:12Z</time>
      </trkpt>
      <trkpt lat="48.07864" lon="-3.20318">
        <ele>179.42321777344</ele>
        <time>2011-07-08T21:11:18Z</time>
      </trkpt>
      <trkpt lat="48.07868" lon="-3.20317">
        <ele>177.98120117188</ele>
        <time>2011-07-08T21:11:20Z</time>
      </trkpt>
      <trkpt lat="48.0788" lon="-3.20322">
        <ele>176.53930664062</ele>
        <time>2011-07-08T21:11:25Z</time>
      </trkpt>
      <trkpt lat="48.07895" lon="-3.20326">
        <ele>175.09729003906</ele>
        <time>2011-07-08T21:11:30Z</time>
      </trkpt>
      <trkpt lat="48.07904" lon="-3.20323">
        <ele>173.6552734375</ele>
        <time>2011-07-08T21:11:34Z</time>
      </trkpt>
      <trkpt lat="48.07919" lon="-3.20324">
        <ele>177.98120117188</ele>
        <time>2011-07-08T21:11:38Z</time>
      </trkpt>
      <trkpt lat="48.07924" lon="-3.20326">
        <ele>179.42321777344</ele>
        <time>2011-07-08T21:11:40Z</time>
      </trkpt>
      <trkpt lat="48.07935" lon="-3.20325">
        <ele>182.30712890625</ele>
        <time>2011-07-08T21:11:45Z</time>
      </trkpt>
      <trkpt lat="48.0794" lon="-3.20328">
        <ele>183.7490234375</ele>
        <time>2011-07-08T21:11:47Z</time>
      </trkpt>
      <trkpt lat="48.07941" lon="-3.20335">
        <ele>183.26843261719</ele>
        <time>2011-07-08T21:11:50Z</time>
      </trkpt>
      <trkpt lat="48.07941" lon="-3.20339">
        <ele>180.865234375</ele>
        <time>2011-07-08T21:11:53Z</time>
      </trkpt>
      <trkpt lat="48.07927" lon="-3.20337">
        <ele>180.38452148438</ele>
        <time>2011-07-08T21:11:59Z</time>
      </trkpt>
      <trkpt lat="48.07921" lon="-3.20343">
        <ele>180.865234375</ele>
        <time>2011-07-08T21:12:03Z</time>
      </trkpt>
      <trkpt lat="48.07917" lon="-3.20353">
        <ele>178.94262695312</ele>
        <time>2011-07-08T21:12:07Z</time>
      </trkpt>
      <trkpt lat="48.07913" lon="-3.20353">
        <ele>177.98120117188</ele>
        <time>2011-07-08T21:12:09Z</time>
      </trkpt>
      <trkpt lat="48.07899" lon="-3.20353">
        <ele>172.21325683594</ele>
        <time>2011-07-08T21:12:16Z</time>
      </trkpt>
      <trkpt lat="48.0789" lon="-3.20351">
        <ele>172.69396972656</ele>
        <time>2011-07-08T21:12:20Z</time>
      </trkpt>
      <trkpt lat="48.07878" lon="-3.20356">
        <ele>172.69396972656</ele>
        <time>2011-07-08T21:12:26Z</time>
      </trkpt>
      <trkpt lat="48.07874" lon="-3.20358">
        <ele>170.29064941406</ele>
        <time>2011-07-08T21:12:28Z</time>
      </trkpt>
      <trkpt lat="48.07875" lon="-3.20365">
        <ele>169.81005859375</ele>
        <time>2011-07-08T21:12:33Z</time>
      </trkpt>
      <trkpt lat="48.0788" lon="-3.20364">
        <ele>169.81005859375</ele>
        <time>2011-07-08T21:12:36Z</time>
      </trkpt>
      <trkpt lat="48.07885" lon="-3.20364">
        <ele>170.29064941406</ele>
        <time>2011-07-08T21:12:39Z</time>
      </trkpt>
      <trkpt lat="48.07885" lon="-3.20375">
        <ele>168.36804199219</ele>
        <time>2011-07-08T21:12:44Z</time>
      </trkpt>
      <trkpt lat="48.07892" lon="-3.20377">
        <ele>170.29064941406</ele>
        <time>2011-07-08T21:12:48Z</time>
      </trkpt>
      <trkpt lat="48.07898" lon="-3.20377">
        <ele>172.21325683594</ele>
        <time>2011-07-08T21:12:51Z</time>
      </trkpt>
      <trkpt lat="48.07909" lon="-3.20377">
        <ele>175.09729003906</ele>
        <time>2011-07-08T21:12:55Z</time>
      </trkpt>
      <trkpt lat="48.0792" lon="-3.20382">
        <ele>177.50061035156</ele>
        <time>2011-07-08T21:13:00Z</time>
      </trkpt>
      <trkpt lat="48.07925" lon="-3.20389">
        <ele>177.50061035156</ele>
        <time>2011-07-08T21:13:06Z</time>
      </trkpt>
      <trkpt lat="48.07926" lon="-3.20398">
        <ele>174.13586425781</ele>
        <time>2011-07-08T21:13:10Z</time>
      </trkpt>
      <trkpt lat="48.07932" lon="-3.20404">
        <ele>172.69396972656</ele>
        <time>2011-07-08T21:13:14Z</time>
      </trkpt>
      <trkpt lat="48.07946" lon="-3.20405">
        <ele>172.69396972656</ele>
        <time>2011-07-08T21:13:21Z</time>
      </trkpt>
      <trkpt lat="48.07959" lon="-3.20412">
        <ele>172.69396972656</ele>
        <time>2011-07-08T21:13:27Z</time>
      </trkpt>
      <trkpt lat="48.07962" lon="-3.20427">
        <ele>170.77136230469</ele>
        <time>2011-07-08T21:13:31Z</time>
      </trkpt>
      <trkpt lat="48.07966" lon="-3.20438">
        <ele>168.84875488281</ele>
        <time>2011-07-08T21:13:35Z</time>
      </trkpt>
      <trkpt lat="48.07976" lon="-3.2044">
        <ele>166.4453125</ele>
        <time>2011-07-08T21:13:39Z</time>
      </trkpt>
      <trkpt lat="48.07986" lon="-3.20437">
        <ele>165.48413085938</ele>
        <time>2011-07-08T21:13:43Z</time>
      </trkpt>
      <trkpt lat="48.07996" lon="-3.20432">
        <ele>162.60009765625</ele>
        <time>2011-07-08T21:13:48Z</time>
      </trkpt>
      <trkpt lat="48.08001" lon="-3.20428">
        <ele>160.19689941406</ele>
        <time>2011-07-08T21:13:52Z</time>
      </trkpt>
      <trkpt lat="48.08006" lon="-3.2042">
        <ele>158.27416992188</ele>
        <time>2011-07-08T21:13:56Z</time>
      </trkpt>
      <trkpt lat="48.08007" lon="-3.20416">
        <ele>156.3515625</ele>
        <time>2011-07-08T21:13:58Z</time>
      </trkpt>
      <trkpt lat="48.08011" lon="-3.20397">
        <ele>151.544921875</ele>
        <time>2011-07-08T21:14:06Z</time>
      </trkpt>
      <trkpt lat="48.08012" lon="-3.20395">
        <ele>150.10302734375</ele>
        <time>2011-07-08T21:14:07Z</time>
      </trkpt>
      <trkpt lat="48.08016" lon="-3.20384">
        <ele>141.93176269531</ele>
        <time>2011-07-08T21:14:13Z</time>
      </trkpt>
      <trkpt lat="48.0802" lon="-3.20392">
        <ele>141.45104980469</ele>
        <time>2011-07-08T21:14:18Z</time>
      </trkpt>
      <trkpt lat="48.0802" lon="-3.20404">
        <ele>142.89306640625</ele>
        <time>2011-07-08T21:14:23Z</time>
      </trkpt>
      <trkpt lat="48.08029" lon="-3.20422">
        <ele>145.29638671875</ele>
        <time>2011-07-08T21:14:29Z</time>
      </trkpt>
      <trkpt lat="48.08032" lon="-3.2043">
        <ele>146.73840332031</ele>
        <time>2011-07-08T21:14:32Z</time>
      </trkpt>
      <trkpt lat="48.08036" lon="-3.20447">
        <ele>151.544921875</ele>
        <time>2011-07-08T21:14:38Z</time>
      </trkpt>
      <trkpt lat="48.08039" lon="-3.20464">
        <ele>152.50634765625</ele>
        <time>2011-07-08T21:14:42Z</time>
      </trkpt>
      <trkpt lat="48.08045" lon="-3.20465">
        <ele>151.544921875</ele>
        <time>2011-07-08T21:14:47Z</time>
      </trkpt>
      <trkpt lat="48.08054" lon="-3.20467">
        <ele>151.544921875</ele>
        <time>2011-07-08T21:14:51Z</time>
      </trkpt>
      <trkpt lat="48.08062" lon="-3.20474">
        <ele>149.62231445312</ele>
        <time>2011-07-08T21:14:56Z</time>
      </trkpt>
      <trkpt lat="48.08066" lon="-3.20487">
        <ele>147.21899414062</ele>
        <time>2011-07-08T21:15:01Z</time>
      </trkpt>
      <trkpt lat="48.0807" lon="-3.2049">
        <ele>148.66101074219</ele>
        <time>2011-07-08T21:15:05Z</time>
      </trkpt>
      <trkpt lat="48.08072" lon="-3.20491">
        <ele>144.33520507812</ele>
        <time>2011-07-08T21:15:13Z</time>
      </trkpt>
      <trkpt lat="48.08071" lon="-3.20488">
        <ele>147.21899414062</ele>
        <time>2011-07-08T21:15:18Z</time>
      </trkpt>
      <trkpt lat="48.0807" lon="-3.20484">
        <ele>148.18041992188</ele>
        <time>2011-07-08T21:15:23Z</time>
      </trkpt>
      <trkpt lat="48.08069" lon="-3.20477">
        <ele>147.69970703125</ele>
        <time>2011-07-08T21:15:27Z</time>
      </trkpt>
      <trkpt lat="48.08068" lon="-3.20471">
        <ele>148.18041992188</ele>
        <time>2011-07-08T21:15:30Z</time>
      </trkpt>
      <trkpt lat="48.08067" lon="-3.20453">
        <ele>143.85437011719</ele>
        <time>2011-07-08T21:15:36Z</time>
      </trkpt>
      <trkpt lat="48.08067" lon="-3.20447">
        <ele>142.41247558594</ele>
        <time>2011-07-08T21:15:38Z</time>
      </trkpt>
      <trkpt lat="48.08065" lon="-3.2043">
        <ele>140.48986816406</ele>
        <time>2011-07-08T21:15:43Z</time>
      </trkpt>
      <trkpt lat="48.08065" lon="-3.20423">
        <ele>139.52844238281</ele>
        <time>2011-07-08T21:15:45Z</time>
      </trkpt>
      <trkpt lat="48.08064" lon="-3.20405">
        <ele>140.48986816406</ele>
        <time>2011-07-08T21:15:50Z</time>
      </trkpt>
      <trkpt lat="48.08065" lon="-3.20402">
        <ele>140.00915527344</ele>
        <time>2011-07-08T21:15:51Z</time>
      </trkpt>
      <trkpt lat="48.08065" lon="-3.20374">
        <ele>137.60583496094</ele>
        <time>2011-07-08T21:15:57Z</time>
      </trkpt>
      <trkpt lat="48.08064" lon="-3.20345">
        <ele>139.52844238281</ele>
        <time>2011-07-08T21:16:03Z</time>
      </trkpt>
      <trkpt lat="48.08065" lon="-3.20316">
        <ele>141.45104980469</ele>
        <time>2011-07-08T21:16:09Z</time>
      </trkpt>
      <trkpt lat="48.0806" lon="-3.20291">
        <ele>140.48986816406</ele>
        <time>2011-07-08T21:16:15Z</time>
      </trkpt>
      <trkpt lat="48.08054" lon="-3.20274">
        <ele>145.29638671875</ele>
        <time>2011-07-08T21:16:20Z</time>
      </trkpt>
      <trkpt lat="48.08047" lon="-3.20259">
        <ele>148.18041992188</ele>
        <time>2011-07-08T21:16:25Z</time>
      </trkpt>
      <trkpt lat="48.08044" lon="-3.20251">
        <ele>148.66101074219</ele>
        <time>2011-07-08T21:16:28Z</time>
      </trkpt>
      <trkpt lat="48.08042" lon="-3.20228">
        <ele>147.69970703125</ele>
        <time>2011-07-08T21:16:35Z</time>
      </trkpt>
      <trkpt lat="48.08047" lon="-3.202">
        <ele>145.77709960938</ele>
        <time>2011-07-08T21:16:42Z</time>
      </trkpt>
      <trkpt lat="48.08052" lon="-3.20182">
        <ele>141.45104980469</ele>
        <time>2011-07-08T21:16:48Z</time>
      </trkpt>
      <trkpt lat="48.08059" lon="-3.20164">
        <ele>142.89306640625</ele>
        <time>2011-07-08T21:16:55Z</time>
      </trkpt>
      <trkpt lat="48.08062" lon="-3.20157">
        <ele>147.21899414062</ele>
        <time>2011-07-08T21:16:58Z</time>
      </trkpt>
      <trkpt lat="48.08071" lon="-3.20139">
        <ele>145.77709960938</ele>
        <time>2011-07-08T21:17:04Z</time>
      </trkpt>
      <trkpt lat="48.08079" lon="-3.20122">
        <ele>143.85437011719</ele>
        <time>2011-07-08T21:17:11Z</time>
      </trkpt>
      <trkpt lat="48.08086" lon="-3.20104">
        <ele>143.37365722656</ele>
        <time>2011-07-08T21:17:19Z</time>
      </trkpt>
      <trkpt lat="48.08089" lon="-3.20092">
        <ele>142.89306640625</ele>
        <time>2011-07-08T21:17:25Z</time>
      </trkpt>
      <trkpt lat="48.08091" lon="-3.20089">
        <ele>143.37365722656</ele>
        <time>2011-07-08T21:17:27Z</time>
      </trkpt>
      <trkpt lat="48.08094" lon="-3.2007">
        <ele>147.69970703125</ele>
        <time>2011-07-08T21:17:33Z</time>
      </trkpt>
      <trkpt lat="48.08107" lon="-3.20037">
        <ele>150.10302734375</ele>
        <time>2011-07-08T21:17:42Z</time>
      </trkpt>
      <trkpt lat="48.08115" lon="-3.20007">
        <ele>153.46765136719</ele>
        <time>2011-07-08T21:17:48Z</time>
      </trkpt>
      <trkpt lat="48.08118" lon="-3.19968">
        <ele>154.90954589844</ele>
        <time>2011-07-08T21:17:55Z</time>
      </trkpt>
      <trkpt lat="48.08115" lon="-3.1993">
        <ele>156.3515625</ele>
        <time>2011-07-08T21:18:01Z</time>
      </trkpt>
      <trkpt lat="48.08107" lon="-3.19886">
        <ele>157.31286621094</ele>
        <time>2011-07-08T21:18:07Z</time>
      </trkpt>
      <trkpt lat="48.08092" lon="-3.19818">
        <ele>159.23547363281</ele>
        <time>2011-07-08T21:18:15Z</time>
      </trkpt>
      <trkpt lat="48.08078" lon="-3.19756">
        <ele>160.19689941406</ele>
        <time>2011-07-08T21:18:22Z</time>
      </trkpt>
      <trkpt lat="48.08068" lon="-3.19712">
        <ele>160.67749023438</ele>
        <time>2011-07-08T21:18:27Z</time>
      </trkpt>
      <trkpt lat="48.08054" lon="-3.19687">
        <ele>161.158203125</ele>
        <time>2011-07-08T21:18:31Z</time>
      </trkpt>
      <trkpt lat="48.08049" lon="-3.19684">
        <ele>161.158203125</ele>
        <time>2011-07-08T21:18:32Z</time>
      </trkpt>
      <trkpt lat="48.07999" lon="-3.19653">
        <ele>163.5615234375</ele>
        <time>2011-07-08T21:18:41Z</time>
      </trkpt>
      <trkpt lat="48.07971" lon="-3.19633">
        <ele>164.52270507812</ele>
        <time>2011-07-08T21:18:46Z</time>
      </trkpt>
      <trkpt lat="48.07954" lon="-3.19619">
        <ele>165.00341796875</ele>
        <time>2011-07-08T21:18:49Z</time>
      </trkpt>
      <trkpt lat="48.07923" lon="-3.19588">
        <ele>165.96472167969</ele>
        <time>2011-07-08T21:18:55Z</time>
      </trkpt>
      <trkpt lat="48.07883" lon="-3.19546">
        <ele>166.4453125</ele>
        <time>2011-07-08T21:19:02Z</time>
      </trkpt>
      <trkpt lat="48.07859" lon="-3.19517">
        <ele>166.4453125</ele>
        <time>2011-07-08T21:19:06Z</time>
      </trkpt>
      <trkpt lat="48.07821" lon="-3.19455">
        <ele>166.92602539062</ele>
        <time>2011-07-08T21:19:13Z</time>
      </trkpt>
      <trkpt lat="48.07792" lon="-3.19391">
        <ele>167.88732910156</ele>
        <time>2011-07-08T21:19:20Z</time>
      </trkpt>
      <trkpt lat="48.0777" lon="-3.1934">
        <ele>169.32946777344</ele>
        <time>2011-07-08T21:19:26Z</time>
      </trkpt>
      <trkpt lat="48.07754" lon="-3.19302">
        <ele>170.77136230469</ele>
        <time>2011-07-08T21:19:31Z</time>
      </trkpt>
      <trkpt lat="48.07732" lon="-3.19255">
        <ele>171.73266601562</ele>
        <time>2011-07-08T21:19:38Z</time>
      </trkpt>
      <trkpt lat="48.07713" lon="-3.19221">
        <ele>172.69396972656</ele>
        <time>2011-07-08T21:19:44Z</time>
      </trkpt>
      <trkpt lat="48.07685" lon="-3.19187">
        <ele>173.17468261719</ele>
        <time>2011-07-08T21:19:51Z</time>
      </trkpt>
      <trkpt lat="48.07652" lon="-3.19152">
        <ele>173.6552734375</ele>
        <time>2011-07-08T21:19:58Z</time>
      </trkpt>
      <trkpt lat="48.07632" lon="-3.1913">
        <ele>173.6552734375</ele>
        <time>2011-07-08T21:20:03Z</time>
      </trkpt>
      <trkpt lat="48.07624" lon="-3.19122">
        <ele>173.17468261719</ele>
        <time>2011-07-08T21:20:05Z</time>
      </trkpt>
      <trkpt lat="48.0761" lon="-3.19104">
        <ele>173.17468261719</ele>
        <time>2011-07-08T21:20:08Z</time>
      </trkpt>
      <trkpt lat="48.0758" lon="-3.19046">
        <ele>170.77136230469</ele>
        <time>2011-07-08T21:20:14Z</time>
      </trkpt>
      <trkpt lat="48.07538" lon="-3.18951">
        <ele>167.88732910156</ele>
        <time>2011-07-08T21:20:22Z</time>
      </trkpt>
      <trkpt lat="48.07534" lon="-3.18939">
        <ele>167.88732910156</ele>
        <time>2011-07-08T21:20:23Z</time>
      </trkpt>
      <trkpt lat="48.07524" lon="-3.18883">
        <ele>166.4453125</ele>
        <time>2011-07-08T21:20:27Z</time>
      </trkpt>
      <trkpt lat="48.0751" lon="-3.18831">
        <ele>165.48413085938</ele>
        <time>2011-07-08T21:20:31Z</time>
      </trkpt>
      <trkpt lat="48.07487" lon="-3.1881">
        <ele>164.52270507812</ele>
        <time>2011-07-08T21:20:34Z</time>
      </trkpt>
      <trkpt lat="48.07407" lon="-3.18771">
        <ele>162.11950683594</ele>
        <time>2011-07-08T21:20:43Z</time>
      </trkpt>
      <trkpt lat="48.07327" lon="-3.18727">
        <ele>160.67749023438</ele>
        <time>2011-07-08T21:20:52Z</time>
      </trkpt>
      <trkpt lat="48.07283" lon="-3.18704">
        <ele>159.23547363281</ele>
        <time>2011-07-08T21:20:57Z</time>
      </trkpt>
      <trkpt lat="48.0725" lon="-3.18697">
        <ele>158.75476074219</ele>
        <time>2011-07-08T21:21:01Z</time>
      </trkpt>
      <trkpt lat="48.07241" lon="-3.18711">
        <ele>157.79357910156</ele>
        <time>2011-07-08T21:21:05Z</time>
      </trkpt>
      <trkpt lat="48.07231" lon="-3.18729">
        <ele>157.31286621094</ele>
        <time>2011-07-08T21:21:09Z</time>
      </trkpt>
      <trkpt lat="48.0721" lon="-3.18742">
        <ele>156.3515625</ele>
        <time>2011-07-08T21:21:14Z</time>
      </trkpt>
      <trkpt lat="48.07188" lon="-3.18754">
        <ele>155.87097167969</ele>
        <time>2011-07-08T21:21:18Z</time>
      </trkpt>
      <trkpt lat="48.07178" lon="-3.18762">
        <ele>155.39025878906</ele>
        <time>2011-07-08T21:21:20Z</time>
      </trkpt>
      <trkpt lat="48.0716" lon="-3.18774">
        <ele>154.90954589844</ele>
        <time>2011-07-08T21:21:24Z</time>
      </trkpt>
      <trkpt lat="48.07154" lon="-3.18786">
        <ele>154.42895507812</ele>
        <time>2011-07-08T21:21:26Z</time>
      </trkpt>
      <trkpt lat="48.07135" lon="-3.18828">
        <ele>152.02575683594</ele>
        <time>2011-07-08T21:21:31Z</time>
      </trkpt>
      <trkpt lat="48.07105" lon="-3.18894">
        <ele>151.544921875</ele>
        <time>2011-07-08T21:21:38Z</time>
      </trkpt>
      <trkpt lat="48.07091" lon="-3.18906">
        <ele>151.544921875</ele>
        <time>2011-07-08T21:21:41Z</time>
      </trkpt>
      <trkpt lat="48.07075" lon="-3.18898">
        <ele>151.06420898438</ele>
        <time>2011-07-08T21:21:44Z</time>
      </trkpt>
      <trkpt lat="48.07047" lon="-3.18882">
        <ele>150.58361816406</ele>
        <time>2011-07-08T21:21:49Z</time>
      </trkpt>
      <trkpt lat="48.07042" lon="-3.1888">
        <ele>150.58361816406</ele>
        <time>2011-07-08T21:21:50Z</time>
      </trkpt>
      <trkpt lat="48.07031" lon="-3.18875">
        <ele>150.10302734375</ele>
        <time>2011-07-08T21:21:54Z</time>
      </trkpt>
      <trkpt lat="48.07031" lon="-3.18875">
        <ele>150.10302734375</ele>
        <time>2011-07-08T21:21:55Z</time>
      </trkpt>
    </trkseg>
  </trk>
</gpx>